<?xml version='1.0' encoding='UTF-8'?><gpx version="1.1" creator="JPX - https://github.com/jenetics/jpx" xmlns="http://www.topografix.com/GPX/1/1"><trk><trkseg><trkpt lat="45.70828172382047" lon="9.192050126095298"><ele>269.0</ele><time>2026-04-12T08:20:38.647Z</time></trkpt><trkpt lat="45.70810016291746" lon="9.192039320860667"><ele>269.0</ele><time>2026-04-12T08:21:27.232Z</time></trkpt><trkpt lat="45.70810617877998" lon="9.191945015313445"><ele>269.0</ele><time>2026-04-12T08:22:02.003Z</time></trkpt><trkpt lat="45.70814760644269" lon="9.191860352865548"><ele>269.0</ele><time>2026-04-12T08:22:04.003Z</time></trkpt><trkpt lat="45.70821103676269" lon="9.191814499799925"><ele>269.0</ele><time>2026-04-12T08:22:08.002Z</time></trkpt><trkpt lat="45.70829630187362" lon="9.191875905609237"><ele>269.0</ele><time>2026-04-12T08:22:10.001Z</time></trkpt><trkpt lat="45.70835356863893" lon="9.191963583440568"><ele>269.0</ele><time>2026-04-12T08:22:11.001Z</time></trkpt><trkpt lat="45.7084088837697" lon="9.192036602989186"><ele>269.0</ele><time>2026-04-12T08:22:12.001Z</time></trkpt><trkpt lat="45.708456003952605" lon="9.192130055693374"><ele>269.0</ele><time>2026-04-12T08:22:13.001Z</time></trkpt><trkpt lat="45.70851695037224" lon="9.192219610987525"><ele>269.0</ele><time>2026-04-12T08:22:14.001Z</time></trkpt><trkpt lat="45.70858244617467" lon="9.192315851243457"><ele>269.0</ele><time>2026-04-12T08:22:15Z</time></trkpt><trkpt lat="45.70865772485915" lon="9.192405178891812"><ele>269.0</ele><time>2026-04-12T08:22:16Z</time></trkpt><trkpt lat="45.708722217468754" lon="9.192507202166057"><ele>269.0</ele><time>2026-04-12T08:22:17Z</time></trkpt><trkpt lat="45.70879225208116" lon="9.192605110720265"><ele>269.0</ele><time>2026-04-12T08:22:18Z</time></trkpt><trkpt lat="45.708858136941565" lon="9.192712229159056"><ele>269.0</ele><time>2026-04-12T08:22:19Z</time></trkpt><trkpt lat="45.708923002173655" lon="9.19282779501412"><ele>269.0</ele><time>2026-04-12T08:22:20Z</time></trkpt><trkpt lat="45.70899245474336" lon="9.192956620461063"><ele>269.0</ele><time>2026-04-12T08:22:21Z</time></trkpt><trkpt lat="45.70906675080222" lon="9.193098290962523"><ele>269.0</ele><time>2026-04-12T08:22:22Z</time></trkpt><trkpt lat="45.709114752375214" lon="9.193210834967084"><ele>269.0</ele><time>2026-04-12T08:22:23Z</time></trkpt><trkpt lat="45.70915629450158" lon="9.193296330080493"><ele>269.0</ele><time>2026-04-12T08:22:24Z</time></trkpt><trkpt lat="45.709194287919544" lon="9.193451268979388"><ele>269.0</ele><time>2026-04-12T08:22:25.999Z</time></trkpt><trkpt lat="45.70919293484881" lon="9.19355155161844"><ele>269.33333333333337</ele><time>2026-04-12T08:22:26.999Z</time></trkpt><trkpt lat="45.70918350256587" lon="9.193649696674395"><ele>269.6666666666667</ele><time>2026-04-12T08:22:27.999Z</time></trkpt><trkpt lat="45.709187971248866" lon="9.193758759128409"><ele>270.0</ele><time>2026-04-12T08:22:28.999Z</time></trkpt><trkpt lat="45.70919367674609" lon="9.193864338586447"><ele>270.3333333333333</ele><time>2026-04-12T08:22:29.999Z</time></trkpt><trkpt lat="45.709180351159944" lon="9.193989805018266"><ele>270.66666666666663</ele><time>2026-04-12T08:22:30.999Z</time></trkpt><trkpt lat="45.709133311672716" lon="9.194130819881545"><ele>271.0</ele><time>2026-04-12T08:22:31.999Z</time></trkpt><trkpt lat="45.709076907630966" lon="9.194268998120668"><ele>271.0</ele><time>2026-04-12T08:22:32.999Z</time></trkpt><trkpt lat="45.70900669831301" lon="9.194392577964157"><ele>271.0</ele><time>2026-04-12T08:22:33.999Z</time></trkpt><trkpt lat="45.70893445678661" lon="9.194553494595993"><ele>271.0</ele><time>2026-04-12T08:22:34.999Z</time></trkpt><trkpt lat="45.70886878139991" lon="9.194694913927622"><ele>271.0</ele><time>2026-04-12T08:22:35.999Z</time></trkpt><trkpt lat="45.70881560584966" lon="9.194804606755156"><ele>271.3333333333333</ele><time>2026-04-12T08:22:36.999Z</time></trkpt><trkpt lat="45.70877396880395" lon="9.194898172189312"><ele>271.66666666666663</ele><time>2026-04-12T08:22:37.999Z</time></trkpt><trkpt lat="45.70874136459008" lon="9.194975896056086"><ele>272.0</ele><time>2026-04-12T08:22:38.999Z</time></trkpt><trkpt lat="45.70872093177109" lon="9.195084971512717"><ele>272.3333333333333</ele><time>2026-04-12T08:22:40.999Z</time></trkpt><trkpt lat="45.70882446755424" lon="9.195192919198595"><ele>272.6666666666667</ele><time>2026-04-12T08:22:43.999Z</time></trkpt><trkpt lat="45.708890951295544" lon="9.195185622948177"><ele>273.0</ele><time>2026-04-12T08:22:44.999Z</time></trkpt><trkpt lat="45.708988855310565" lon="9.195147949595803"><ele>273.0</ele><time>2026-04-12T08:22:45.999Z</time></trkpt><trkpt lat="45.70907001231139" lon="9.195125921484276"><ele>273.0</ele><time>2026-04-12T08:22:46.999Z</time></trkpt><trkpt lat="45.70916100456013" lon="9.195106402513558"><ele>273.0</ele><time>2026-04-12T08:22:47.999Z</time></trkpt><trkpt lat="45.70926084188616" lon="9.195099582784772"><ele>273.0</ele><time>2026-04-12T08:22:48.998Z</time></trkpt><trkpt lat="45.70936235584497" lon="9.195091762870579"><ele>273.0</ele><time>2026-04-12T08:22:49.998Z</time></trkpt><trkpt lat="45.709453744707226" lon="9.195085295713872"><ele>273.0</ele><time>2026-04-12T08:22:50.998Z</time></trkpt><trkpt lat="45.70954140474019" lon="9.195075861778694"><ele>273.0</ele><time>2026-04-12T08:22:51.998Z</time></trkpt><trkpt lat="45.709618187112255" lon="9.19506226197454"><ele>273.0</ele><time>2026-04-12T08:22:52.998Z</time></trkpt><trkpt lat="45.70968436310495" lon="9.195053802999933"><ele>273.0</ele><time>2026-04-12T08:22:53.998Z</time></trkpt><trkpt lat="45.709804547394974" lon="9.195033143492124"><ele>273.0</ele><time>2026-04-12T08:22:55.998Z</time></trkpt><trkpt lat="45.70991132442375" lon="9.195152800707751"><ele>273.0</ele><time>2026-04-12T08:22:57.998Z</time></trkpt><trkpt lat="45.70995578101813" lon="9.195268336426658"><ele>273.0</ele><time>2026-04-12T08:22:58.998Z</time></trkpt><trkpt lat="45.71001407213979" lon="9.195390713377918"><ele>273.0</ele><time>2026-04-12T08:22:59.998Z</time></trkpt><trkpt lat="45.7100749301192" lon="9.195504978140251"><ele>273.0</ele><time>2026-04-12T08:23:00.998Z</time></trkpt><trkpt lat="45.7101330203864" lon="9.195621034713712"><ele>273.0</ele><time>2026-04-12T08:23:01.998Z</time></trkpt><trkpt lat="45.710169398223506" lon="9.195737688400968"><ele>273.3333333333333</ele><time>2026-04-12T08:23:02.998Z</time></trkpt><trkpt lat="45.71018512882383" lon="9.195844797669444"><ele>273.6666666666667</ele><time>2026-04-12T08:23:03.998Z</time></trkpt><trkpt lat="45.71019988601786" lon="9.195955200697624"><ele>274.0</ele><time>2026-04-12T08:23:04.998Z</time></trkpt><trkpt lat="45.710210735737256" lon="9.196049843304625"><ele>274.33333333333337</ele><time>2026-04-12T08:23:05.998Z</time></trkpt><trkpt lat="45.71022438362819" lon="9.196140499312532"><ele>274.6666666666667</ele><time>2026-04-12T08:23:06.998Z</time></trkpt><trkpt lat="45.71024520226489" lon="9.196304206825413"><ele>275.0</ele><time>2026-04-12T08:23:08.998Z</time></trkpt><trkpt lat="45.71025707404273" lon="9.196408349244065"><ele>275.4</ele><time>2026-04-12T08:23:09.998Z</time></trkpt><trkpt lat="45.71027056170329" lon="9.196521600627653"><ele>275.8</ele><time>2026-04-12T08:23:10.998Z</time></trkpt><trkpt lat="45.71028285263892" lon="9.196637388127161"><ele>276.2</ele><time>2026-04-12T08:23:11.998Z</time></trkpt><trkpt lat="45.71028011764643" lon="9.196782029410503"><ele>276.6</ele><time>2026-04-12T08:23:12.998Z</time></trkpt><trkpt lat="45.71031049887522" lon="9.196920462228675"><ele>277.0</ele><time>2026-04-12T08:23:13.998Z</time></trkpt><trkpt lat="45.71031812191123" lon="9.197069137270912"><ele>277.0</ele><time>2026-04-12T08:23:14.998Z</time></trkpt><trkpt lat="45.710334442929636" lon="9.197220076380988"><ele>277.0</ele><time>2026-04-12T08:23:15.998Z</time></trkpt><trkpt lat="45.71034750134161" lon="9.197368821089007"><ele>277.0</ele><time>2026-04-12T08:23:16.998Z</time></trkpt><trkpt lat="45.710366952497644" lon="9.19751507036352"><ele>277.0</ele><time>2026-04-12T08:23:17.998Z</time></trkpt><trkpt lat="45.71038883660229" lon="9.197649630597931"><ele>277.0</ele><time>2026-04-12T08:23:18.998Z</time></trkpt><trkpt lat="45.71041680267831" lon="9.197779734764309"><ele>277.0</ele><time>2026-04-12T08:23:19.998Z</time></trkpt><trkpt lat="45.710451312523666" lon="9.197920154133852"><ele>277.0</ele><time>2026-04-12T08:23:20.998Z</time></trkpt><trkpt lat="45.710492612721794" lon="9.198051598061086"><ele>277.0</ele><time>2026-04-12T08:23:21.998Z</time></trkpt><trkpt lat="45.71053520051529" lon="9.198183862343159"><ele>277.0</ele><time>2026-04-12T08:23:22.998Z</time></trkpt><trkpt lat="45.710580129081514" lon="9.198314677228806"><ele>277.0</ele><time>2026-04-12T08:23:23.998Z</time></trkpt><trkpt lat="45.71062392373975" lon="9.198431091777676"><ele>277.0</ele><time>2026-04-12T08:23:24.998Z</time></trkpt><trkpt lat="45.710666790832256" lon="9.198536237248627"><ele>277.0</ele><time>2026-04-12T08:23:25.998Z</time></trkpt><trkpt lat="45.71070914533853" lon="9.198637091678712"><ele>277.0</ele><time>2026-04-12T08:23:26.998Z</time></trkpt><trkpt lat="45.71074717922798" lon="9.19874412716604"><ele>277.0</ele><time>2026-04-12T08:23:27.998Z</time></trkpt><trkpt lat="45.710783589661595" lon="9.19884362104624"><ele>277.0</ele><time>2026-04-12T08:23:28.998Z</time></trkpt><trkpt lat="45.71082461339259" lon="9.198955370591506"><ele>277.0</ele><time>2026-04-12T08:23:29.998Z</time></trkpt><trkpt lat="45.710866678155064" lon="9.199068003294117"><ele>277.4</ele><time>2026-04-12T08:23:30.998Z</time></trkpt><trkpt lat="45.71091571332185" lon="9.199185067166793"><ele>277.79999999999995</ele><time>2026-04-12T08:23:31.998Z</time></trkpt><trkpt lat="45.71096320195052" lon="9.199302229856274"><ele>278.2</ele><time>2026-04-12T08:23:32.998Z</time></trkpt><trkpt lat="45.71100882066681" lon="9.199417667558476"><ele>278.59999999999997</ele><time>2026-04-12T08:23:33.998Z</time></trkpt><trkpt lat="45.711053437473105" lon="9.199533770640365"><ele>279.0</ele><time>2026-04-12T08:23:34.998Z</time></trkpt><trkpt lat="45.71110070248477" lon="9.199648965242222"><ele>279.4</ele><time>2026-04-12T08:23:35.998Z</time></trkpt><trkpt lat="45.71115089537679" lon="9.19977009510872"><ele>279.79999999999995</ele><time>2026-04-12T08:23:36.998Z</time></trkpt><trkpt lat="45.71120135648619" lon="9.199895198959469"><ele>280.20000000000005</ele><time>2026-04-12T08:23:37.998Z</time></trkpt><trkpt lat="45.71125784159248" lon="9.200032123212496"><ele>280.6</ele><time>2026-04-12T08:23:38.998Z</time></trkpt><trkpt lat="45.71131360012656" lon="9.200174033835944"><ele>281.0</ele><time>2026-04-12T08:23:39.998Z</time></trkpt><trkpt lat="45.71137190045985" lon="9.200323478151754"><ele>281.25</ele><time>2026-04-12T08:23:40.998Z</time></trkpt><trkpt lat="45.71142959060463" lon="9.200474849178589"><ele>281.5</ele><time>2026-04-12T08:23:41.998Z</time></trkpt><trkpt lat="45.71149395731456" lon="9.200635579686665"><ele>281.75</ele><time>2026-04-12T08:23:42.998Z</time></trkpt><trkpt lat="45.71155779689238" lon="9.200806444149675"><ele>282.0</ele><time>2026-04-12T08:23:43.998Z</time></trkpt><trkpt lat="45.7116223081421" lon="9.20097985410116"><ele>282.0</ele><time>2026-04-12T08:23:44.998Z</time></trkpt><trkpt lat="45.71168786087063" lon="9.201131503802097"><ele>282.0</ele><time>2026-04-12T08:23:45.999Z</time></trkpt><trkpt lat="45.711753027073584" lon="9.201272130338836"><ele>282.0</ele><time>2026-04-12T08:23:46.999Z</time></trkpt><trkpt lat="45.711814957202826" lon="9.201392284911574"><ele>282.0</ele><time>2026-04-12T08:23:47.999Z</time></trkpt><trkpt lat="45.711886885653335" lon="9.201502099722713"><ele>282.8</ele><time>2026-04-12T08:23:48.999Z</time></trkpt><trkpt lat="45.711963081522406" lon="9.20161368824673"><ele>283.6</ele><time>2026-04-12T08:23:49.999Z</time></trkpt><trkpt lat="45.71203560963884" lon="9.20170553228738"><ele>284.40000000000003</ele><time>2026-04-12T08:23:50.999Z</time></trkpt><trkpt lat="45.71211115030618" lon="9.201780447691922"><ele>285.2</ele><time>2026-04-12T08:23:51.999Z</time></trkpt><trkpt lat="45.71217132614861" lon="9.201841211964002"><ele>286.0</ele><time>2026-04-12T08:23:52.999Z</time></trkpt><trkpt lat="45.71224849449376" lon="9.20193543568536"><ele>286.0</ele><time>2026-04-12T08:23:54.999Z</time></trkpt><trkpt lat="45.712291986432014" lon="9.202021629981619"><ele>286.0</ele><time>2026-04-12T08:23:57.999Z</time></trkpt><trkpt lat="45.71235509794651" lon="9.201972464268351"><ele>286.0</ele><time>2026-04-12T08:30:10Z</time></trkpt><trkpt lat="45.71232604850336" lon="9.201843525326781"><ele>286.0</ele><time>2026-04-12T08:30:14Z</time></trkpt><trkpt lat="45.712226452090036" lon="9.201766621757367"><ele>286.0</ele><time>2026-04-12T08:30:16Z</time></trkpt><trkpt lat="45.712168259360766" lon="9.20171986221633"><ele>286.0</ele><time>2026-04-12T08:30:17Z</time></trkpt><trkpt lat="45.71207824589371" lon="9.20173358052406"><ele>286.0</ele><time>2026-04-12T08:30:18Z</time></trkpt><trkpt lat="45.71201340897281" lon="9.201669355702098"><ele>286.0</ele><time>2026-04-12T08:30:19Z</time></trkpt><trkpt lat="45.71194495730929" lon="9.201602565180215"><ele>286.0</ele><time>2026-04-12T08:30:20Z</time></trkpt><trkpt lat="45.71188036111747" lon="9.2015153453387"><ele>286.0</ele><time>2026-04-12T08:30:21Z</time></trkpt><trkpt lat="45.711816858701084" lon="9.201420284038246"><ele>286.0</ele><time>2026-04-12T08:30:22Z</time></trkpt><trkpt lat="45.71172677991602" lon="9.201260184168767"><ele>285.8</ele><time>2026-04-12T08:30:23Z</time></trkpt><trkpt lat="45.71170928660692" lon="9.201053770153255"><ele>285.6</ele><time>2026-04-12T08:30:24Z</time></trkpt><trkpt lat="45.71165510646903" lon="9.200939848193988"><ele>285.4</ele><time>2026-04-12T08:30:25Z</time></trkpt><trkpt lat="45.711603294497664" lon="9.20082211988574"><ele>285.2</ele><time>2026-04-12T08:30:26Z</time></trkpt><trkpt lat="45.71155389845504" lon="9.20070048676649"><ele>285.0</ele><time>2026-04-12T08:30:27Z</time></trkpt><trkpt lat="45.71150632851298" lon="9.200575404006244"><ele>285.0</ele><time>2026-04-12T08:30:28Z</time></trkpt><trkpt lat="45.711457265089045" lon="9.200445571095736"><ele>285.0</ele><time>2026-04-12T08:30:29Z</time></trkpt><trkpt lat="45.71140426598359" lon="9.200314388988362"><ele>285.0</ele><time>2026-04-12T08:30:30Z</time></trkpt><trkpt lat="45.711350609934726" lon="9.20018004102396"><ele>285.0</ele><time>2026-04-12T08:30:31Z</time></trkpt><trkpt lat="45.71129764255354" lon="9.200042694269056"><ele>285.0</ele><time>2026-04-12T08:30:32Z</time></trkpt><trkpt lat="45.71124275254204" lon="9.199906915067837"><ele>284.2</ele><time>2026-04-12T08:30:33Z</time></trkpt><trkpt lat="45.71118864278026" lon="9.19977468095996"><ele>283.4</ele><time>2026-04-12T08:30:34Z</time></trkpt><trkpt lat="45.7111335640045" lon="9.199635882228725"><ele>282.6</ele><time>2026-04-12T08:30:35Z</time></trkpt><trkpt lat="45.711078986063086" lon="9.199509972261"><ele>281.8</ele><time>2026-04-12T08:30:36Z</time></trkpt><trkpt lat="45.711025069455815" lon="9.199379633555086"><ele>281.0</ele><time>2026-04-12T08:30:37Z</time></trkpt><trkpt lat="45.71097646959292" lon="9.199261468085641"><ele>280.6666666666667</ele><time>2026-04-12T08:30:38Z</time></trkpt><trkpt lat="45.710932330819624" lon="9.199150582439986"><ele>280.33333333333337</ele><time>2026-04-12T08:30:39Z</time></trkpt><trkpt lat="45.71089396901277" lon="9.199053386733903"><ele>280.0</ele><time>2026-04-12T08:30:40Z</time></trkpt><trkpt lat="45.71085525898463" lon="9.198952196906884"><ele>279.6666666666667</ele><time>2026-04-12T08:30:41Z</time></trkpt><trkpt lat="45.71081482728497" lon="9.19885527488907"><ele>279.3333333333333</ele><time>2026-04-12T08:30:42Z</time></trkpt><trkpt lat="45.71077417466625" lon="9.198756825335032"><ele>279.0</ele><time>2026-04-12T08:30:43Z</time></trkpt><trkpt lat="45.710740732420696" lon="9.198666851636025"><ele>279.0</ele><time>2026-04-12T08:30:44Z</time></trkpt><trkpt lat="45.71069757173976" lon="9.198555011840998"><ele>279.0</ele><time>2026-04-12T08:30:45Z</time></trkpt><trkpt lat="45.71066816082863" lon="9.198461207106545"><ele>279.0</ele><time>2026-04-12T08:30:46Z</time></trkpt><trkpt lat="45.7106164763031" lon="9.198338426080445"><ele>279.0</ele><time>2026-04-12T08:30:47Z</time></trkpt><trkpt lat="45.71057365023112" lon="9.198227420989152"><ele>279.0</ele><time>2026-04-12T08:30:48Z</time></trkpt><trkpt lat="45.710531488637514" lon="9.198103313070435"><ele>279.0</ele><time>2026-04-12T08:30:49Z</time></trkpt><trkpt lat="45.71048886950777" lon="9.197979361280817"><ele>279.0</ele><time>2026-04-12T08:30:50Z</time></trkpt><trkpt lat="45.71045415829713" lon="9.197849373329074"><ele>279.0</ele><time>2026-04-12T08:30:51Z</time></trkpt><trkpt lat="45.71042294386017" lon="9.197709873326462"><ele>279.0</ele><time>2026-04-12T08:30:52Z</time></trkpt><trkpt lat="45.71039577494548" lon="9.197569174353028"><ele>279.0</ele><time>2026-04-12T08:30:53Z</time></trkpt><trkpt lat="45.71037473248239" lon="9.197419752797442"><ele>279.0</ele><time>2026-04-12T08:30:54Z</time></trkpt><trkpt lat="45.71035392170497" lon="9.197274227689043"><ele>278.5</ele><time>2026-04-12T08:30:55Z</time></trkpt><trkpt lat="45.71033409968022" lon="9.19711619727352"><ele>278.0</ele><time>2026-04-12T08:30:56Z</time></trkpt><trkpt lat="45.71031428241825" lon="9.196951028336803"><ele>277.5</ele><time>2026-04-12T08:30:57Z</time></trkpt><trkpt lat="45.71031372936864" lon="9.196782166707855"><ele>277.0</ele><time>2026-04-12T08:30:58Z</time></trkpt><trkpt lat="45.71027961120684" lon="9.196597954669592"><ele>276.5</ele><time>2026-04-12T08:30:59Z</time></trkpt><trkpt lat="45.71026385259238" lon="9.196402837799994"><ele>276.0</ele><time>2026-04-12T08:31:00Z</time></trkpt><trkpt lat="45.71025046932608" lon="9.196246243525943"><ele>275.5</ele><time>2026-04-12T08:31:01Z</time></trkpt><trkpt lat="45.71023679563345" lon="9.196093008137744"><ele>275.0</ele><time>2026-04-12T08:31:02Z</time></trkpt><trkpt lat="45.71022225585617" lon="9.195937082148987"><ele>275.0</ele><time>2026-04-12T08:31:03Z</time></trkpt><trkpt lat="45.71019327704144" lon="9.195769851993342"><ele>275.0</ele><time>2026-04-12T08:31:04Z</time></trkpt><trkpt lat="45.71014158413602" lon="9.195580196137742"><ele>275.0</ele><time>2026-04-12T08:31:05Z</time></trkpt><trkpt lat="45.71007092569366" lon="9.19541332643509"><ele>275.0</ele><time>2026-04-12T08:31:06Z</time></trkpt><trkpt lat="45.70999247462993" lon="9.195277616812103"><ele>274.5</ele><time>2026-04-12T08:31:07Z</time></trkpt><trkpt lat="45.709915862287325" lon="9.195139827285313"><ele>274.0</ele><time>2026-04-12T08:31:08Z</time></trkpt><trkpt lat="45.709853749091124" lon="9.194982954869003"><ele>273.5</ele><time>2026-04-12T08:31:09Z</time></trkpt><trkpt lat="45.70976032582144" lon="9.194843097803446"><ele>273.0</ele><time>2026-04-12T08:31:10Z</time></trkpt><trkpt lat="45.70967762607476" lon="9.194653472257958"><ele>272.3333333333333</ele><time>2026-04-12T08:31:11Z</time></trkpt><trkpt lat="45.70959401615359" lon="9.194423666757299"><ele>271.66666666666663</ele><time>2026-04-12T08:31:12Z</time></trkpt><trkpt lat="45.709491274901524" lon="9.194186511942693"><ele>271.0</ele><time>2026-04-12T08:31:13Z</time></trkpt><trkpt lat="45.709401594306414" lon="9.193986487807589"><ele>271.0</ele><time>2026-04-12T08:31:14Z</time></trkpt><trkpt lat="45.70935080006185" lon="9.19384004133582"><ele>271.0</ele><time>2026-04-12T08:31:15Z</time></trkpt><trkpt lat="45.70932380924931" lon="9.193707793457873"><ele>271.0</ele><time>2026-04-12T08:31:16Z</time></trkpt><trkpt lat="45.70931189602718" lon="9.193560081816827"><ele>271.0</ele><time>2026-04-12T08:31:17Z</time></trkpt><trkpt lat="45.70929633612853" lon="9.193460072544413"><ele>271.0</ele><time>2026-04-12T08:31:18Z</time></trkpt><trkpt lat="45.709230392607424" lon="9.19335466661219"><ele>271.0</ele><time>2026-04-12T08:31:19Z</time></trkpt><trkpt lat="45.70913185946976" lon="9.193208183375578"><ele>271.0</ele><time>2026-04-12T08:31:20Z</time></trkpt><trkpt lat="45.70904171714753" lon="9.19298443103738"><ele>271.0</ele><time>2026-04-12T08:31:21Z</time></trkpt><trkpt lat="45.70892042713786" lon="9.192785839738976"><ele>270.3333333333333</ele><time>2026-04-12T08:31:22Z</time></trkpt><trkpt lat="45.70879786799029" lon="9.192570212661735"><ele>269.6666666666667</ele><time>2026-04-12T08:31:23Z</time></trkpt><trkpt lat="45.7086590454861" lon="9.192375643175456"><ele>269.0</ele><time>2026-04-12T08:31:24Z</time></trkpt><trkpt lat="45.708551129589495" lon="9.192235414028334"><ele>269.0</ele><time>2026-04-12T08:31:25Z</time></trkpt><trkpt lat="45.708474790838075" lon="9.192089469491505"><ele>269.0</ele><time>2026-04-12T08:31:26Z</time></trkpt><trkpt lat="45.70839411658277" lon="9.191970925432976"><ele>269.0</ele><time>2026-04-12T08:31:27Z</time></trkpt><trkpt lat="45.7083199278435" lon="9.191878725822463"><ele>269.0</ele><time>2026-04-12T08:31:28Z</time></trkpt><trkpt lat="45.70827778971272" lon="9.191811739290179"><ele>269.0</ele><time>2026-04-12T08:31:29Z</time></trkpt><trkpt lat="45.70821607336683" lon="9.191725375456105"><ele>269.0</ele><time>2026-04-12T08:31:31Z</time></trkpt><trkpt lat="45.7081137918524" lon="9.19192127047231"><ele>269.0</ele><time>2026-04-12T08:31:33Z</time></trkpt><trkpt lat="45.70806621201679" lon="9.191983768891527"><ele>269.0</ele><time>2026-04-12T08:31:35Z</time></trkpt><trkpt lat="45.70802613035542" lon="9.192053886517781"><ele>269.0</ele><time>2026-04-12T08:31:38Z</time></trkpt><trkpt lat="45.70806731647499" lon="9.191940360383807"><ele>269.0</ele><time>2026-04-12T09:09:45Z</time></trkpt><trkpt lat="45.708119018980554" lon="9.191876549582496"><ele>269.0</ele><time>2026-04-12T09:09:47Z</time></trkpt><trkpt lat="45.70817729632137" lon="9.191815084726477"><ele>269.0</ele><time>2026-04-12T09:09:50Z</time></trkpt><trkpt lat="45.708300559549734" lon="9.191909042414546"><ele>269.0</ele><time>2026-04-12T09:09:54Z</time></trkpt><trkpt lat="45.708364571871364" lon="9.192011642970598"><ele>269.0</ele><time>2026-04-12T09:09:55Z</time></trkpt><trkpt lat="45.708437592971954" lon="9.19211369042651"><ele>269.0</ele><time>2026-04-12T09:09:56Z</time></trkpt><trkpt lat="45.70851802863599" lon="9.192226961898703"><ele>269.0</ele><time>2026-04-12T09:09:57Z</time></trkpt><trkpt lat="45.708609165940985" lon="9.19235632442428"><ele>269.0</ele><time>2026-04-12T09:09:58Z</time></trkpt><trkpt lat="45.70870533075452" lon="9.192486863063477"><ele>269.0</ele><time>2026-04-12T09:09:59Z</time></trkpt><trkpt lat="45.708786839104874" lon="9.192615558111843"><ele>269.0</ele><time>2026-04-12T09:10:00Z</time></trkpt><trkpt lat="45.70887138185013" lon="9.192745354454567"><ele>269.0</ele><time>2026-04-12T09:10:01Z</time></trkpt><trkpt lat="45.70896523255717" lon="9.19289235281452"><ele>269.0</ele><time>2026-04-12T09:10:02Z</time></trkpt><trkpt lat="45.70903186539907" lon="9.193026736090669"><ele>269.0</ele><time>2026-04-12T09:10:03Z</time></trkpt><trkpt lat="45.70908651673332" lon="9.193142135520302"><ele>269.0</ele><time>2026-04-12T09:10:04Z</time></trkpt><trkpt lat="45.70913254269224" lon="9.193244814666247"><ele>269.0</ele><time>2026-04-12T09:10:05.001Z</time></trkpt><trkpt lat="45.70916169506374" lon="9.193329529811512"><ele>269.4</ele><time>2026-04-12T09:10:06.001Z</time></trkpt><trkpt lat="45.70917424913557" lon="9.193502540838615"><ele>269.79999999999995</ele><time>2026-04-12T09:10:08.001Z</time></trkpt><trkpt lat="45.709183828505" lon="9.193657142746224"><ele>270.20000000000005</ele><time>2026-04-12T09:10:10.001Z</time></trkpt><trkpt lat="45.70924282888636" lon="9.193753193710132"><ele>270.6</ele><time>2026-04-12T09:10:12.001Z</time></trkpt><trkpt lat="45.709311365768905" lon="9.193783271477267"><ele>271.0</ele><time>2026-04-12T09:10:14.001Z</time></trkpt><trkpt lat="45.70933536504995" lon="9.193624544037807"><ele>271.0</ele><time>2026-04-12T09:10:15.001Z</time></trkpt><trkpt lat="45.70933190305865" lon="9.193532833796667"><ele>271.0</ele><time>2026-04-12T09:10:16.001Z</time></trkpt><trkpt lat="45.709335154648954" lon="9.193442397175737"><ele>271.0</ele><time>2026-04-12T09:10:17.001Z</time></trkpt><trkpt lat="45.70936231537333" lon="9.193346719745108"><ele>271.0</ele><time>2026-04-12T09:10:18.001Z</time></trkpt><trkpt lat="45.709406781139606" lon="9.193249624330095"><ele>271.0</ele><time>2026-04-12T09:10:19.001Z</time></trkpt><trkpt lat="45.709458744882035" lon="9.193143593888754"><ele>271.0</ele><time>2026-04-12T09:10:20.001Z</time></trkpt><trkpt lat="45.709499546336374" lon="9.193027405549888"><ele>270.40000000000003</ele><time>2026-04-12T09:10:21.001Z</time></trkpt><trkpt lat="45.709534328276845" lon="9.192909351713956"><ele>269.8</ele><time>2026-04-12T09:10:22.001Z</time></trkpt><trkpt lat="45.70957108495326" lon="9.19278508558444"><ele>269.20000000000005</ele><time>2026-04-12T09:10:23.001Z</time></trkpt><trkpt lat="45.709610462188046" lon="9.192659115477447"><ele>268.6</ele><time>2026-04-12T09:10:24.001Z</time></trkpt><trkpt lat="45.70965842781682" lon="9.192536152812059"><ele>268.0</ele><time>2026-04-12T09:10:25.001Z</time></trkpt><trkpt lat="45.709717532906936" lon="9.192416390828788"><ele>268.0</ele><time>2026-04-12T09:10:26.001Z</time></trkpt><trkpt lat="45.709784039569996" lon="9.192294743892758"><ele>268.0</ele><time>2026-04-12T09:10:27.001Z</time></trkpt><trkpt lat="45.70985088270869" lon="9.192172354828388"><ele>268.0</ele><time>2026-04-12T09:10:28.001Z</time></trkpt><trkpt lat="45.70991846464067" lon="9.19205003892736"><ele>268.0</ele><time>2026-04-12T09:10:29.001Z</time></trkpt><trkpt lat="45.70998976694415" lon="9.19192409657737"><ele>268.0</ele><time>2026-04-12T09:10:30.001Z</time></trkpt><trkpt lat="45.71005922583503" lon="9.191797376563365"><ele>268.0</ele><time>2026-04-12T09:10:31.001Z</time></trkpt><trkpt lat="45.71013066660827" lon="9.191669350329981"><ele>268.0</ele><time>2026-04-12T09:10:32.001Z</time></trkpt><trkpt lat="45.71020305329259" lon="9.191541211373078"><ele>268.0</ele><time>2026-04-12T09:10:33.001Z</time></trkpt><trkpt lat="45.710274593147886" lon="9.191408339930785"><ele>268.0</ele><time>2026-04-12T09:10:34.001Z</time></trkpt><trkpt lat="45.71034576710892" lon="9.191286916008739"><ele>268.0</ele><time>2026-04-12T09:10:35.001Z</time></trkpt><trkpt lat="45.71041628127541" lon="9.19115761989498"><ele>268.0</ele><time>2026-04-12T09:10:36.001Z</time></trkpt><trkpt lat="45.710489076134934" lon="9.191025358798525"><ele>268.0</ele><time>2026-04-12T09:10:37.001Z</time></trkpt><trkpt lat="45.71056374469518" lon="9.190884166420545"><ele>268.0</ele><time>2026-04-12T09:10:38.001Z</time></trkpt><trkpt lat="45.71064983878196" lon="9.190723355426966"><ele>268.3333333333333</ele><time>2026-04-12T09:10:39.001Z</time></trkpt><trkpt lat="45.71075374247099" lon="9.190525998432976"><ele>268.6666666666667</ele><time>2026-04-12T09:10:40.001Z</time></trkpt><trkpt lat="45.710864708970654" lon="9.190314283771404"><ele>269.0</ele><time>2026-04-12T09:10:41.001Z</time></trkpt><trkpt lat="45.71097883434251" lon="9.190100919539253"><ele>269.0</ele><time>2026-04-12T09:10:42.001Z</time></trkpt><trkpt lat="45.711074734469285" lon="9.18991730210969"><ele>269.0</ele><time>2026-04-12T09:10:43.001Z</time></trkpt><trkpt lat="45.711154763149054" lon="9.189761823204876"><ele>269.0</ele><time>2026-04-12T09:10:44.001Z</time></trkpt><trkpt lat="45.71121387103812" lon="9.189652231915485"><ele>269.0</ele><time>2026-04-12T09:10:45.001Z</time></trkpt><trkpt lat="45.711264325646546" lon="9.189564803629318"><ele>269.2</ele><time>2026-04-12T09:10:46.001Z</time></trkpt><trkpt lat="45.71132033765388" lon="9.189484803590453"><ele>269.4</ele><time>2026-04-12T09:10:47.001Z</time></trkpt><trkpt lat="45.71140626750356" lon="9.189413187591937"><ele>269.6</ele><time>2026-04-12T09:10:48.001Z</time></trkpt><trkpt lat="45.71149870467977" lon="9.189329150979562"><ele>269.8</ele><time>2026-04-12T09:10:49.001Z</time></trkpt><trkpt lat="45.711588733393675" lon="9.189271793974818"><ele>270.0</ele><time>2026-04-12T09:10:50.001Z</time></trkpt><trkpt lat="45.71169127700481" lon="9.189239976381302"><ele>270.0</ele><time>2026-04-12T09:10:51.001Z</time></trkpt><trkpt lat="45.7118213623056" lon="9.189226846463775"><ele>270.0</ele><time>2026-04-12T09:10:52.001Z</time></trkpt><trkpt lat="45.71196253911339" lon="9.189241494534144"><ele>270.0</ele><time>2026-04-12T09:10:53.001Z</time></trkpt><trkpt lat="45.71211416365455" lon="9.189273590333162"><ele>270.0</ele><time>2026-04-12T09:10:54.001Z</time></trkpt><trkpt lat="45.7122763137302" lon="9.189308198654901"><ele>270.3333333333333</ele><time>2026-04-12T09:10:55.001Z</time></trkpt><trkpt lat="45.712440653805196" lon="9.189333760093515"><ele>270.66666666666663</ele><time>2026-04-12T09:10:56.001Z</time></trkpt><trkpt lat="45.712603327395655" lon="9.189358989090543"><ele>271.0</ele><time>2026-04-12T09:10:57.001Z</time></trkpt><trkpt lat="45.71275736689568" lon="9.18937974038963"><ele>271.0</ele><time>2026-04-12T09:10:58.001Z</time></trkpt><trkpt lat="45.712887188174555" lon="9.189394798877805"><ele>271.0</ele><time>2026-04-12T09:10:59.001Z</time></trkpt><trkpt lat="45.713000527630335" lon="9.189402836266481"><ele>271.0</ele><time>2026-04-12T09:11:00.001Z</time></trkpt><trkpt lat="45.71310193143756" lon="9.189412440760657"><ele>271.0</ele><time>2026-04-12T09:11:01.001Z</time></trkpt><trkpt lat="45.71319413863253" lon="9.189416035764758"><ele>271.0</ele><time>2026-04-12T09:11:02.001Z</time></trkpt><trkpt lat="45.71328140196138" lon="9.1894150369496"><ele>271.0</ele><time>2026-04-12T09:11:03.001Z</time></trkpt><trkpt lat="45.713351708674665" lon="9.189420038765974"><ele>271.0</ele><time>2026-04-12T09:11:04.002Z</time></trkpt><trkpt lat="45.71341770517159" lon="9.18942024526681"><ele>271.0</ele><time>2026-04-12T09:11:05.002Z</time></trkpt><trkpt lat="45.71352433128665" lon="9.189417269240085"><ele>271.0</ele><time>2026-04-12T09:11:07.002Z</time></trkpt><trkpt lat="45.71359854061614" lon="9.189429230575218"><ele>271.0</ele><time>2026-04-12T09:11:09.002Z</time></trkpt><trkpt lat="45.71361347306111" lon="9.189224468520093"><ele>271.75</ele><time>2026-04-12T09:11:10.002Z</time></trkpt><trkpt lat="45.713609823513295" lon="9.189068222699156"><ele>272.5</ele><time>2026-04-12T09:11:12.002Z</time></trkpt><trkpt lat="45.713620671113155" lon="9.188955986751164"><ele>273.25</ele><time>2026-04-12T09:11:14.002Z</time></trkpt><trkpt lat="45.7137034178487" lon="9.18887848485483"><ele>274.0</ele><time>2026-04-12T09:11:16.002Z</time></trkpt><trkpt lat="45.71386520109766" lon="9.188812433494043"><ele>274.2</ele><time>2026-04-12T09:11:18.002Z</time></trkpt><trkpt lat="45.713951074849504" lon="9.188724799418715"><ele>274.4</ele><time>2026-04-12T09:11:20.002Z</time></trkpt><trkpt lat="45.71396528610911" lon="9.188623490254525"><ele>274.6</ele><time>2026-04-12T09:11:22.002Z</time></trkpt><trkpt lat="45.713914907405496" lon="9.188554823598242"><ele>274.8</ele><time>2026-04-12T09:11:23.002Z</time></trkpt><trkpt lat="45.713852483740716" lon="9.188409681852331"><ele>275.0</ele><time>2026-04-12T09:11:25.002Z</time></trkpt><trkpt lat="45.71380639344003" lon="9.188283028864715"><ele>275.0</ele><time>2026-04-12T09:11:27.002Z</time></trkpt><trkpt lat="45.713768802164786" lon="9.188185751866163"><ele>275.0</ele><time>2026-04-12T09:11:29.002Z</time></trkpt></trkseg><trkseg><trkpt lat="45.713611882733034" lon="9.188945051419072"><ele>274.8</ele><time>2026-04-12T09:26:16.001Z</time></trkpt><trkpt lat="45.713567313717355" lon="9.189070333842025"><ele>274.6</ele><time>2026-04-12T09:26:18.001Z</time></trkpt><trkpt lat="45.713573990525745" lon="9.189193385491425"><ele>274.4</ele><time>2026-04-12T09:26:19.001Z</time></trkpt><trkpt lat="45.71357059619099" lon="9.189304450036918"><ele>274.2</ele><time>2026-04-12T09:26:21.001Z</time></trkpt><trkpt lat="45.71350107823367" lon="9.189373102327151"><ele>274.0</ele><time>2026-04-12T09:26:25.002Z</time></trkpt><trkpt lat="45.713357927167145" lon="9.189366474199801"><ele>273.4</ele><time>2026-04-12T09:26:27.002Z</time></trkpt><trkpt lat="45.71326583661545" lon="9.189366672970728"><ele>272.79999999999995</ele><time>2026-04-12T09:26:28.002Z</time></trkpt><trkpt lat="45.713171173220914" lon="9.189361526677816"><ele>272.20000000000005</ele><time>2026-04-12T09:26:29.002Z</time></trkpt><trkpt lat="45.71307243232177" lon="9.189356812602986"><ele>271.6</ele><time>2026-04-12T09:26:30.002Z</time></trkpt><trkpt lat="45.71296365076793" lon="9.18935884824728"><ele>271.0</ele><time>2026-04-12T09:26:31.002Z</time></trkpt><trkpt lat="45.71284417714645" lon="9.189354547190158"><ele>271.0</ele><time>2026-04-12T09:26:32.001Z</time></trkpt><trkpt lat="45.712723232470694" lon="9.189346772492526"><ele>271.0</ele><time>2026-04-12T09:26:33.001Z</time></trkpt><trkpt lat="45.712607022392284" lon="9.189335326938815"><ele>271.0</ele><time>2026-04-12T09:26:34.001Z</time></trkpt><trkpt lat="45.71248819115752" lon="9.189314613918281"><ele>271.0</ele><time>2026-04-12T09:26:35.001Z</time></trkpt><trkpt lat="45.712371144438386" lon="9.189293353056947"><ele>271.0</ele><time>2026-04-12T09:26:36.001Z</time></trkpt><trkpt lat="45.71225641838366" lon="9.189271169005586"><ele>271.0</ele><time>2026-04-12T09:26:37.001Z</time></trkpt><trkpt lat="45.712151204204616" lon="9.189258104329351"><ele>271.0</ele><time>2026-04-12T09:26:38.001Z</time></trkpt><trkpt lat="45.712050717269456" lon="9.189241038983438"><ele>271.0</ele><time>2026-04-12T09:26:39.001Z</time></trkpt><trkpt lat="45.71195800684703" lon="9.189227065100452"><ele>271.0</ele><time>2026-04-12T09:26:40.001Z</time></trkpt><trkpt lat="45.71187053926553" lon="9.18921488890781"><ele>270.8</ele><time>2026-04-12T09:26:41.001Z</time></trkpt><trkpt lat="45.711794545920746" lon="9.189208518841289"><ele>270.6</ele><time>2026-04-12T09:26:42.001Z</time></trkpt><trkpt lat="45.71168406613996" lon="9.189186620911014"><ele>270.4</ele><time>2026-04-12T09:26:44.001Z</time></trkpt><trkpt lat="45.71158221210553" lon="9.1891068240028"><ele>270.2</ele><time>2026-04-12T09:26:46.001Z</time></trkpt><trkpt lat="45.711477827069174" lon="9.189221761376313"><ele>270.0</ele><time>2026-04-12T09:26:48.001Z</time></trkpt><trkpt lat="45.711434630131926" lon="9.189337719898358"><ele>270.0</ele><time>2026-04-12T09:26:49.001Z</time></trkpt><trkpt lat="45.71138278926235" lon="9.189400586426897"><ele>270.0</ele><time>2026-04-12T09:26:50.001Z</time></trkpt><trkpt lat="45.71126114675739" lon="9.18946759294727"><ele>270.0</ele><time>2026-04-12T09:26:52.001Z</time></trkpt><trkpt lat="45.71121234619193" lon="9.189541701717399"><ele>270.0</ele><time>2026-04-12T09:26:53.001Z</time></trkpt><trkpt lat="45.711182375454825" lon="9.189632126389586"><ele>270.0</ele><time>2026-04-12T09:26:54.001Z</time></trkpt><trkpt lat="45.71113835755057" lon="9.189734866924221"><ele>270.0</ele><time>2026-04-12T09:26:55.001Z</time></trkpt><trkpt lat="45.71108270912196" lon="9.189847563459743"><ele>269.8</ele><time>2026-04-12T09:26:56.001Z</time></trkpt><trkpt lat="45.71101911322586" lon="9.189961571488588"><ele>269.6</ele><time>2026-04-12T09:26:57.001Z</time></trkpt><trkpt lat="45.71094857971439" lon="9.190087890053007"><ele>269.4</ele><time>2026-04-12T09:26:58.001Z</time></trkpt><trkpt lat="45.710882216696824" lon="9.19021257023211"><ele>269.2</ele><time>2026-04-12T09:26:59.001Z</time></trkpt><trkpt lat="45.71082086944922" lon="9.190343946358954"><ele>269.0</ele><time>2026-04-12T09:27:00.001Z</time></trkpt><trkpt lat="45.71074880262338" lon="9.190487620448874"><ele>269.0</ele><time>2026-04-12T09:27:01.001Z</time></trkpt><trkpt lat="45.71067104553771" lon="9.190630287829348"><ele>269.0</ele><time>2026-04-12T09:27:02.001Z</time></trkpt><trkpt lat="45.71059169801631" lon="9.190775240695057"><ele>269.0</ele><time>2026-04-12T09:27:03.001Z</time></trkpt><trkpt lat="45.71051042049309" lon="9.190917538770194"><ele>269.0</ele><time>2026-04-12T09:27:04.001Z</time></trkpt><trkpt lat="45.71043489830454" lon="9.191056472418003"><ele>268.75</ele><time>2026-04-12T09:27:05.001Z</time></trkpt><trkpt lat="45.71035720621644" lon="9.191203836155266"><ele>268.5</ele><time>2026-04-12T09:27:06.001Z</time></trkpt><trkpt lat="45.71028368898696" lon="9.191349548015172"><ele>268.25</ele><time>2026-04-12T09:27:07.001Z</time></trkpt><trkpt lat="45.71020877787009" lon="9.191491247203277"><ele>268.0</ele><time>2026-04-12T09:27:08.001Z</time></trkpt><trkpt lat="45.7101383763193" lon="9.191636946892723"><ele>268.0</ele><time>2026-04-12T09:27:09.001Z</time></trkpt><trkpt lat="45.71005930502507" lon="9.191767795417974"><ele>268.0</ele><time>2026-04-12T09:27:10.001Z</time></trkpt><trkpt lat="45.709978271271694" lon="9.191898750185482"><ele>268.0</ele><time>2026-04-12T09:27:11.001Z</time></trkpt><trkpt lat="45.70990080339387" lon="9.192034323057793"><ele>268.0</ele><time>2026-04-12T09:27:12.001Z</time></trkpt><trkpt lat="45.70982525324259" lon="9.192175314844713"><ele>268.0</ele><time>2026-04-12T09:27:13.001Z</time></trkpt><trkpt lat="45.709749716088815" lon="9.192315633899426"><ele>268.0</ele><time>2026-04-12T09:27:14.001Z</time></trkpt><trkpt lat="45.70967375287289" lon="9.192452441191016"><ele>268.0</ele><time>2026-04-12T09:27:15.001Z</time></trkpt><trkpt lat="45.70961099738816" lon="9.19258778441209"><ele>268.0</ele><time>2026-04-12T09:27:16.001Z</time></trkpt><trkpt lat="45.709565496828475" lon="9.19271336476645"><ele>268.0</ele><time>2026-04-12T09:27:17.001Z</time></trkpt><trkpt lat="45.709529379097624" lon="9.192834233384838"><ele>268.0</ele><time>2026-04-12T09:27:18.001Z</time></trkpt><trkpt lat="45.70949446026881" lon="9.192944300258892"><ele>268.0</ele><time>2026-04-12T09:27:19.001Z</time></trkpt><trkpt lat="45.709466699060755" lon="9.193033199591042"><ele>268.0</ele><time>2026-04-12T09:27:20.001Z</time></trkpt><trkpt lat="45.70942818541582" lon="9.19317059219716"><ele>268.0</ele><time>2026-04-12T09:27:22.001Z</time></trkpt><trkpt lat="45.709384197838034" lon="9.193255451664184"><ele>268.0</ele><time>2026-04-12T09:27:24.001Z</time></trkpt><trkpt lat="45.70930116527833" lon="9.193341568195004"><ele>268.5</ele><time>2026-04-12T09:27:26.001Z</time></trkpt><trkpt lat="45.709218125219806" lon="9.193457659478913"><ele>269.0</ele><time>2026-04-12T09:27:28.001Z</time></trkpt><trkpt lat="45.70917922565326" lon="9.193531343887878"><ele>269.5</ele><time>2026-04-12T09:27:29.001Z</time></trkpt><trkpt lat="45.70916326890945" lon="9.193623200204854"><ele>270.0</ele><time>2026-04-12T09:27:30.001Z</time></trkpt><trkpt lat="45.709180076795455" lon="9.19371685492212"><ele>270.5</ele><time>2026-04-12T09:27:31.001Z</time></trkpt><trkpt lat="45.70919549816633" lon="9.193820965633371"><ele>271.0</ele><time>2026-04-12T09:27:32.001Z</time></trkpt><trkpt lat="45.70919246996353" lon="9.193926421268145"><ele>271.0</ele><time>2026-04-12T09:27:33.001Z</time></trkpt><trkpt lat="45.709164434261766" lon="9.194045340568438"><ele>271.0</ele><time>2026-04-12T09:27:34.001Z</time></trkpt><trkpt lat="45.70911537299457" lon="9.194151988173557"><ele>271.0</ele><time>2026-04-12T09:27:35.001Z</time></trkpt><trkpt lat="45.709058708223864" lon="9.194258678143143"><ele>271.0</ele><time>2026-04-12T09:27:36.001Z</time></trkpt><trkpt lat="45.70900770297157" lon="9.194377500309553"><ele>271.0</ele><time>2026-04-12T09:27:37.001Z</time></trkpt><trkpt lat="45.70895915983256" lon="9.194492134543777"><ele>271.0</ele><time>2026-04-12T09:27:38.001Z</time></trkpt><trkpt lat="45.708912909165385" lon="9.19460015096708"><ele>271.0</ele><time>2026-04-12T09:27:39.001Z</time></trkpt><trkpt lat="45.70887378853686" lon="9.194695875049906"><ele>271.0</ele><time>2026-04-12T09:27:40.001Z</time></trkpt><trkpt lat="45.708838447452635" lon="9.194782602955978"><ele>271.0</ele><time>2026-04-12T09:27:41.001Z</time></trkpt><trkpt lat="45.70877252271052" lon="9.194909938485178"><ele>271.0</ele><time>2026-04-12T09:27:43.001Z</time></trkpt><trkpt lat="45.708741620808325" lon="9.195011857944838"><ele>271.0</ele><time>2026-04-12T09:27:45.001Z</time></trkpt><trkpt lat="45.70871585834355" lon="9.195094452041769"><ele>271.5</ele><time>2026-04-12T09:27:48.001Z</time></trkpt><trkpt lat="45.70885617388601" lon="9.195166425118689"><ele>272.0</ele><time>2026-04-12T09:27:51.001Z</time></trkpt><trkpt lat="45.70898396289375" lon="9.195139019753402"><ele>272.5</ele><time>2026-04-12T09:27:53.001Z</time></trkpt><trkpt lat="45.70905240664972" lon="9.195130220137559"><ele>273.0</ele><time>2026-04-12T09:27:54.001Z</time></trkpt><trkpt lat="45.70918831013282" lon="9.195112788885856"><ele>273.0</ele><time>2026-04-12T09:27:56.001Z</time></trkpt><trkpt lat="45.70926559960171" lon="9.19510574211217"><ele>273.0</ele><time>2026-04-12T09:27:57.001Z</time></trkpt><trkpt lat="45.70934509472413" lon="9.195098606411529"><ele>273.0</ele><time>2026-04-12T09:27:58.001Z</time></trkpt><trkpt lat="45.70941984237597" lon="9.19509706808681"><ele>273.0</ele><time>2026-04-12T09:27:59.001Z</time></trkpt><trkpt lat="45.709484364300046" lon="9.195090412838981"><ele>273.0</ele><time>2026-04-12T09:28:00.001Z</time></trkpt><trkpt lat="45.709549427722244" lon="9.195078076527059"><ele>273.0</ele><time>2026-04-12T09:28:01.001Z</time></trkpt><trkpt lat="45.70961310900846" lon="9.195066821521563"><ele>273.0</ele><time>2026-04-12T09:28:02.001Z</time></trkpt><trkpt lat="45.70971699049354" lon="9.195047987229513"><ele>273.0</ele><time>2026-04-12T09:28:04.001Z</time></trkpt><trkpt lat="45.70980056722014" lon="9.195048761627923"><ele>273.0</ele><time>2026-04-12T09:28:06.001Z</time></trkpt><trkpt lat="45.70987197117052" lon="9.195032062136764"><ele>273.0</ele><time>2026-04-12T09:28:08.001Z</time></trkpt><trkpt lat="45.70991802567488" lon="9.19519172388018"><ele>273.0</ele><time>2026-04-12T09:28:09.001Z</time></trkpt><trkpt lat="45.70996000199914" lon="9.195279366997353"><ele>273.0</ele><time>2026-04-12T09:28:10.001Z</time></trkpt><trkpt lat="45.71000288070778" lon="9.195372820198779"><ele>273.0</ele><time>2026-04-12T09:28:11.001Z</time></trkpt><trkpt lat="45.71005077579344" lon="9.195464209703054"><ele>273.0</ele><time>2026-04-12T09:28:12.001Z</time></trkpt><trkpt lat="45.71010509225285" lon="9.195562365817343"><ele>273.0</ele><time>2026-04-12T09:28:13.001Z</time></trkpt><trkpt lat="45.71014719999481" lon="9.195669711818717"><ele>273.0</ele><time>2026-04-12T09:28:14.001Z</time></trkpt><trkpt lat="45.71017601386008" lon="9.195810208581124"><ele>273.0</ele><time>2026-04-12T09:28:16.001Z</time></trkpt><trkpt lat="45.71019803363258" lon="9.195950994654057"><ele>273.0</ele><time>2026-04-12T09:28:19.001Z</time></trkpt><trkpt lat="45.71022461717522" lon="9.19611721495541"><ele>273.2857142857143</ele><time>2026-04-12T09:28:21.001Z</time></trkpt><trkpt lat="45.71023269881784" lon="9.196209158906639"><ele>273.57142857142856</ele><time>2026-04-12T09:28:22.001Z</time></trkpt><trkpt lat="45.710237901284" lon="9.196305666584061"><ele>273.8571428571429</ele><time>2026-04-12T09:28:23.001Z</time></trkpt><trkpt lat="45.71024943477027" lon="9.196402674967954"><ele>274.1428571428571</ele><time>2026-04-12T09:28:24.001Z</time></trkpt><trkpt lat="45.71025943041415" lon="9.196507865594697"><ele>274.42857142857144</ele><time>2026-04-12T09:28:25.001Z</time></trkpt><trkpt lat="45.71027167309242" lon="9.196610984740376"><ele>274.7142857142857</ele><time>2026-04-12T09:28:26.001Z</time></trkpt><trkpt lat="45.71028449196179" lon="9.196716700442886"><ele>275.0</ele><time>2026-04-12T09:28:27.001Z</time></trkpt><trkpt lat="45.71029290971096" lon="9.196829230514176"><ele>275.33333333333337</ele><time>2026-04-12T09:28:28.001Z</time></trkpt><trkpt lat="45.71030315035993" lon="9.196937326333655"><ele>275.6666666666667</ele><time>2026-04-12T09:28:29.001Z</time></trkpt><trkpt lat="45.71031161979212" lon="9.19704697967402"><ele>276.0</ele><time>2026-04-12T09:28:30.001Z</time></trkpt><trkpt lat="45.710324246814395" lon="9.19715928946646"><ele>276.3333333333333</ele><time>2026-04-12T09:28:31.001Z</time></trkpt><trkpt lat="45.71033857055021" lon="9.19727117715815"><ele>276.66666666666663</ele><time>2026-04-12T09:28:32.001Z</time></trkpt><trkpt lat="45.710350152984674" lon="9.197370455409063"><ele>277.0</ele><time>2026-04-12T09:28:33.001Z</time></trkpt><trkpt lat="45.71037270419928" lon="9.197522268434767"><ele>277.0</ele><time>2026-04-12T09:28:35.001Z</time></trkpt><trkpt lat="45.71038795930392" lon="9.197636331527875"><ele>277.0</ele><time>2026-04-12T09:28:37.001Z</time></trkpt><trkpt lat="45.71043036926663" lon="9.197785953889817"><ele>277.0</ele><time>2026-04-12T09:28:38.999Z</time></trkpt><trkpt lat="45.71045283019644" lon="9.197876819889503"><ele>277.0</ele><time>2026-04-12T09:28:39.999Z</time></trkpt><trkpt lat="45.7104763973784" lon="9.197969896046454"><ele>277.0</ele><time>2026-04-12T09:28:40.999Z</time></trkpt><trkpt lat="45.710504984358195" lon="9.198069181149222"><ele>277.0</ele><time>2026-04-12T09:28:41.999Z</time></trkpt><trkpt lat="45.71053831980668" lon="9.198178210923627"><ele>277.0</ele><time>2026-04-12T09:28:42.999Z</time></trkpt><trkpt lat="45.71057539003501" lon="9.19828275910299"><ele>277.0</ele><time>2026-04-12T09:28:43.999Z</time></trkpt><trkpt lat="45.71061375177521" lon="9.198374132535628"><ele>277.0</ele><time>2026-04-12T09:28:44.999Z</time></trkpt><trkpt lat="45.71063844990535" lon="9.198480846625271"><ele>277.0</ele><time>2026-04-12T09:28:45.999Z</time></trkpt><trkpt lat="45.71069092167407" lon="9.198618632327614"><ele>277.0</ele><time>2026-04-12T09:28:46.999Z</time></trkpt><trkpt lat="45.71076919022852" lon="9.198818979683507"><ele>277.66666666666663</ele><time>2026-04-12T09:28:47.999Z</time></trkpt><trkpt lat="45.71085487737014" lon="9.19902429032128"><ele>278.3333333333333</ele><time>2026-04-12T09:28:48.999Z</time></trkpt><trkpt lat="45.71093773089545" lon="9.199259551802847"><ele>279.0</ele><time>2026-04-12T09:28:49.999Z</time></trkpt><trkpt lat="45.71104440518926" lon="9.19949941234993"><ele>279.6666666666667</ele><time>2026-04-12T09:28:50.999Z</time></trkpt><trkpt lat="45.7111528111616" lon="9.199745065965368"><ele>280.33333333333337</ele><time>2026-04-12T09:28:51.999Z</time></trkpt><trkpt lat="45.71125853506729" lon="9.200022261265211"><ele>281.0</ele><time>2026-04-12T09:28:52.999Z</time></trkpt><trkpt lat="45.711364289832424" lon="9.20028832765099"><ele>281.33333333333337</ele><time>2026-04-12T09:28:53.999Z</time></trkpt><trkpt lat="45.711471821446686" lon="9.200573787195065"><ele>281.6666666666667</ele><time>2026-04-12T09:28:55Z</time></trkpt><trkpt lat="45.71157832434013" lon="9.200843818152588"><ele>282.0</ele><time>2026-04-12T09:28:56Z</time></trkpt><trkpt lat="45.7116797985704" lon="9.201094987944344"><ele>282.0</ele><time>2026-04-12T09:28:57Z</time></trkpt><trkpt lat="45.71178714952676" lon="9.201327753851025"><ele>282.0</ele><time>2026-04-12T09:28:58Z</time></trkpt><trkpt lat="45.71190937117098" lon="9.201540781439467"><ele>282.0</ele><time>2026-04-12T09:28:59Z</time></trkpt><trkpt lat="45.71205473220865" lon="9.201724185554072"><ele>283.3333333333333</ele><time>2026-04-12T09:29:00Z</time></trkpt><trkpt lat="45.712231913373095" lon="9.201889372360002"><ele>284.66666666666663</ele><time>2026-04-12T09:29:01Z</time></trkpt><trkpt lat="45.71240604335696" lon="9.202019065646114"><ele>286.0</ele><time>2026-04-12T09:29:02Z</time></trkpt><trkpt lat="45.712561546492445" lon="9.202131305994214"><ele>286.0</ele><time>2026-04-12T09:29:03Z</time></trkpt><trkpt lat="45.71269236626623" lon="9.202242311312915"><ele>286.0</ele><time>2026-04-12T09:29:04Z</time></trkpt><trkpt lat="45.71281278477235" lon="9.202342858659746"><ele>286.0</ele><time>2026-04-12T09:29:05Z</time></trkpt><trkpt lat="45.71292654467018" lon="9.20243656461898"><ele>286.0</ele><time>2026-04-12T09:29:06Z</time></trkpt><trkpt lat="45.71304542170996" lon="9.202531766839803"><ele>285.25</ele><time>2026-04-12T09:29:07Z</time></trkpt><trkpt lat="45.713153279097575" lon="9.202612346599185"><ele>284.5</ele><time>2026-04-12T09:29:08Z</time></trkpt><trkpt lat="45.713244194847846" lon="9.202713273990632"><ele>283.75</ele><time>2026-04-12T09:29:09Z</time></trkpt><trkpt lat="45.71334314767666" lon="9.202768307578534"><ele>283.0</ele><time>2026-04-12T09:29:10Z</time></trkpt><trkpt lat="45.71343734801304" lon="9.202848833262648"><ele>283.0</ele><time>2026-04-12T09:29:11Z</time></trkpt><trkpt lat="45.713523877067644" lon="9.202944148278696"><ele>283.0</ele><time>2026-04-12T09:29:12Z</time></trkpt><trkpt lat="45.71361928124383" lon="9.20302303612874"><ele>283.0</ele><time>2026-04-12T09:29:13Z</time></trkpt><trkpt lat="45.71370625782742" lon="9.20309495533711"><ele>283.0</ele><time>2026-04-12T09:29:14Z</time></trkpt><trkpt lat="45.71378932460926" lon="9.203137176640832"><ele>283.0</ele><time>2026-04-12T09:29:15Z</time></trkpt><trkpt lat="45.713863645961695" lon="9.203199373217094"><ele>283.16666666666663</ele><time>2026-04-12T09:29:16Z</time></trkpt><trkpt lat="45.71391897895674" lon="9.20327073539237"><ele>283.3333333333333</ele><time>2026-04-12T09:29:17Z</time></trkpt><trkpt lat="45.71398119536599" lon="9.203322087790186"><ele>283.5</ele><time>2026-04-12T09:29:18Z</time></trkpt><trkpt lat="45.714043364356854" lon="9.203363037794421"><ele>283.6666666666667</ele><time>2026-04-12T09:29:19Z</time></trkpt><trkpt lat="45.71410607376803" lon="9.203500282529628"><ele>283.83333333333337</ele><time>2026-04-12T09:29:21Z</time></trkpt><trkpt lat="45.71414206411663" lon="9.203631843787193"><ele>284.0</ele><time>2026-04-12T09:29:23Z</time></trkpt><trkpt lat="45.714252253088674" lon="9.20361565394489"><ele>284.0</ele><time>2026-04-12T09:29:25Z</time></trkpt><trkpt lat="45.714366461517535" lon="9.203645955742342"><ele>284.0</ele><time>2026-04-12T09:29:27Z</time></trkpt><trkpt lat="45.714429059144614" lon="9.20367214420445"><ele>284.0</ele><time>2026-04-12T09:29:28Z</time></trkpt><trkpt lat="45.714489862354654" lon="9.203717008790568"><ele>284.0</ele><time>2026-04-12T09:29:29Z</time></trkpt><trkpt lat="45.71455367706644" lon="9.203773966305956"><ele>284.0</ele><time>2026-04-12T09:29:30Z</time></trkpt><trkpt lat="45.71461229636727" lon="9.203818539783072"><ele>284.0</ele><time>2026-04-12T09:29:31Z</time></trkpt><trkpt lat="45.71469307465841" lon="9.203910206528214"><ele>284.1666666666667</ele><time>2026-04-12T09:29:33Z</time></trkpt><trkpt lat="45.71475192304387" lon="9.203957556879496"><ele>284.33333333333337</ele><time>2026-04-12T09:29:35Z</time></trkpt><trkpt lat="45.71482625054497" lon="9.20400245307183"><ele>284.5</ele><time>2026-04-12T09:29:38Z</time></trkpt><trkpt lat="45.71490153035673" lon="9.204068049416817"><ele>284.6666666666667</ele><time>2026-04-12T09:29:41Z</time></trkpt><trkpt lat="45.71495761146332" lon="9.204132141593911"><ele>284.8333333333333</ele><time>2026-04-12T09:29:43Z</time></trkpt><trkpt lat="45.71502152302131" lon="9.204184449400127"><ele>285.0</ele><time>2026-04-12T09:29:46Z</time></trkpt><trkpt lat="45.715096155739374" lon="9.204291587123327"><ele>285.0</ele><time>2026-04-12T09:30:01Z</time></trkpt><trkpt lat="45.715144039487924" lon="9.20445563044016"><ele>285.0</ele><time>2026-04-12T09:30:03Z</time></trkpt><trkpt lat="45.7151943546011" lon="9.204552656522567"><ele>285.0</ele><time>2026-04-12T09:30:04Z</time></trkpt><trkpt lat="45.71517264730173" lon="9.204753919635127"><ele>285.0</ele><time>2026-04-12T09:30:05Z</time></trkpt><trkpt lat="45.715131415668196" lon="9.20496501174592"><ele>285.0</ele><time>2026-04-12T09:30:06Z</time></trkpt><trkpt lat="45.71509866580511" lon="9.20520388570698"><ele>285.0</ele><time>2026-04-12T09:30:07Z</time></trkpt><trkpt lat="45.71506863819697" lon="9.205413313951748"><ele>285.0</ele><time>2026-04-12T09:30:08Z</time></trkpt><trkpt lat="45.715047458518896" lon="9.205560443366545"><ele>285.0</ele><time>2026-04-12T09:30:09Z</time></trkpt><trkpt lat="45.715029554990785" lon="9.205673985526962"><ele>285.0</ele><time>2026-04-12T09:30:11Z</time></trkpt><trkpt lat="45.71508436742357" lon="9.205754727125546"><ele>285.0</ele><time>2026-04-12T09:30:18Z</time></trkpt><trkpt lat="45.71515996389207" lon="9.205826949724889"><ele>285.0</ele><time>2026-04-12T09:30:19Z</time></trkpt><trkpt lat="45.71524720558637" lon="9.205831567005722"><ele>285.0</ele><time>2026-04-12T09:30:20Z</time></trkpt><trkpt lat="45.71534243256701" lon="9.20579301168148"><ele>285.0</ele><time>2026-04-12T09:30:21Z</time></trkpt><trkpt lat="45.71545715124682" lon="9.205715478998771"><ele>285.25</ele><time>2026-04-12T09:30:22Z</time></trkpt><trkpt lat="45.7155732352081" lon="9.205618487449174"><ele>285.5</ele><time>2026-04-12T09:30:23Z</time></trkpt><trkpt lat="45.715684239553816" lon="9.205509526141991"><ele>285.75</ele><time>2026-04-12T09:30:24Z</time></trkpt><trkpt lat="45.71581001189109" lon="9.205373397189852"><ele>286.0</ele><time>2026-04-12T09:30:25Z</time></trkpt><trkpt lat="45.715926779024436" lon="9.20522182778535"><ele>286.0</ele><time>2026-04-12T09:30:26Z</time></trkpt><trkpt lat="45.71602959162153" lon="9.205072108581428"><ele>286.0</ele><time>2026-04-12T09:30:27Z</time></trkpt><trkpt lat="45.71613476719852" lon="9.204935429668634"><ele>286.0</ele><time>2026-04-12T09:30:28Z</time></trkpt><trkpt lat="45.716260006794954" lon="9.204820669477076"><ele>286.0</ele><time>2026-04-12T09:30:29Z</time></trkpt><trkpt lat="45.71640241689793" lon="9.204710758185223"><ele>286.3333333333333</ele><time>2026-04-12T09:30:30Z</time></trkpt><trkpt lat="45.716543434680794" lon="9.204604194910885"><ele>286.6666666666667</ele><time>2026-04-12T09:30:31Z</time></trkpt><trkpt lat="45.71668429366027" lon="9.204483083320024"><ele>287.0</ele><time>2026-04-12T09:30:32Z</time></trkpt><trkpt lat="45.716821885362116" lon="9.204363318433082"><ele>287.25</ele><time>2026-04-12T09:30:33Z</time></trkpt><trkpt lat="45.71695088720295" lon="9.204261156125868"><ele>287.5</ele><time>2026-04-12T09:30:34Z</time></trkpt><trkpt lat="45.7170741681555" lon="9.204175739971024"><ele>287.75</ele><time>2026-04-12T09:30:35Z</time></trkpt><trkpt lat="45.71720641171344" lon="9.204123064715532"><ele>288.0</ele><time>2026-04-12T09:30:36Z</time></trkpt><trkpt lat="45.717345692811755" lon="9.204104615733007"><ele>288.0</ele><time>2026-04-12T09:30:37Z</time></trkpt><trkpt lat="45.717487175965324" lon="9.204111596945813"><ele>288.0</ele><time>2026-04-12T09:30:38Z</time></trkpt><trkpt lat="45.717626113595685" lon="9.204130995303652"><ele>288.0</ele><time>2026-04-12T09:30:39Z</time></trkpt><trkpt lat="45.71776615660513" lon="9.204161353218614"><ele>288.0</ele><time>2026-04-12T09:30:40.001Z</time></trkpt><trkpt lat="45.71790572726824" lon="9.20418151314679"><ele>288.5</ele><time>2026-04-12T09:30:41.001Z</time></trkpt><trkpt lat="45.71804967481447" lon="9.20419741174957"><ele>289.0</ele><time>2026-04-12T09:30:42.001Z</time></trkpt><trkpt lat="45.71819341205738" lon="9.204211237708545"><ele>289.5</ele><time>2026-04-12T09:30:43.001Z</time></trkpt><trkpt lat="45.71834058116001" lon="9.204224669345114"><ele>290.0</ele><time>2026-04-12T09:30:43.999Z</time></trkpt><trkpt lat="45.71848815205215" lon="9.20424049478646"><ele>290.33333333333337</ele><time>2026-04-12T09:30:44.999Z</time></trkpt><trkpt lat="45.718640622287275" lon="9.204257611995256"><ele>290.6666666666667</ele><time>2026-04-12T09:30:45.999Z</time></trkpt><trkpt lat="45.71878619237665" lon="9.204276367201368"><ele>291.0</ele><time>2026-04-12T09:30:46.999Z</time></trkpt><trkpt lat="45.718943423844784" lon="9.204286930751254"><ele>291.0</ele><time>2026-04-12T09:30:47.999Z</time></trkpt><trkpt lat="45.71909672325903" lon="9.204283582805289"><ele>291.0</ele><time>2026-04-12T09:30:48.999Z</time></trkpt><trkpt lat="45.71925379183058" lon="9.20427220716608"><ele>291.0</ele><time>2026-04-12T09:30:49.999Z</time></trkpt><trkpt lat="45.71941993905067" lon="9.204249002273462"><ele>291.3333333333333</ele><time>2026-04-12T09:30:50.999Z</time></trkpt><trkpt lat="45.71958828728044" lon="9.20422912378414"><ele>291.66666666666663</ele><time>2026-04-12T09:30:51.999Z</time></trkpt><trkpt lat="45.719758799493505" lon="9.204213138957046"><ele>292.0</ele><time>2026-04-12T09:30:52.999Z</time></trkpt><trkpt lat="45.719933235602525" lon="9.2041930349734"><ele>292.0</ele><time>2026-04-12T09:30:53.999Z</time></trkpt><trkpt lat="45.72010946230774" lon="9.204176138867103"><ele>292.0</ele><time>2026-04-12T09:30:54.999Z</time></trkpt><trkpt lat="45.72028331203356" lon="9.204167640735651"><ele>292.0</ele><time>2026-04-12T09:30:55.999Z</time></trkpt><trkpt lat="45.72045687587818" lon="9.204150183644742"><ele>292.66666666666663</ele><time>2026-04-12T09:30:56.999Z</time></trkpt><trkpt lat="45.72063049169277" lon="9.20412923527444"><ele>293.3333333333333</ele><time>2026-04-12T09:30:57.999Z</time></trkpt><trkpt lat="45.72080002652591" lon="9.204112149769767"><ele>294.0</ele><time>2026-04-12T09:30:58.999Z</time></trkpt><trkpt lat="45.720969325013236" lon="9.204100068125749"><ele>294.6666666666667</ele><time>2026-04-12T09:30:59.999Z</time></trkpt><trkpt lat="45.72113427117629" lon="9.204083881363742"><ele>295.33333333333337</ele><time>2026-04-12T09:31:00.999Z</time></trkpt><trkpt lat="45.72129994609461" lon="9.20406432466704"><ele>296.0</ele><time>2026-04-12T09:31:01.999Z</time></trkpt><trkpt lat="45.72146218137085" lon="9.204042227551426"><ele>296.0</ele><time>2026-04-12T09:31:02.999Z</time></trkpt><trkpt lat="45.72162309030538" lon="9.204030013485015"><ele>296.0</ele><time>2026-04-12T09:31:03.999Z</time></trkpt><trkpt lat="45.721783010631256" lon="9.204011532982113"><ele>296.0</ele><time>2026-04-12T09:31:04.999Z</time></trkpt><trkpt lat="45.7219443375774" lon="9.203987521676831"><ele>296.0</ele><time>2026-04-12T09:31:05.999Z</time></trkpt><trkpt lat="45.72209985434722" lon="9.203957042956635"><ele>296.0</ele><time>2026-04-12T09:31:06.999Z</time></trkpt><trkpt lat="45.72225462934585" lon="9.203931820685929"><ele>296.0</ele><time>2026-04-12T09:31:07.999Z</time></trkpt><trkpt lat="45.722415317162486" lon="9.203909295485312"><ele>296.0</ele><time>2026-04-12T09:31:08.999Z</time></trkpt><trkpt lat="45.72257953130077" lon="9.203888758274365"><ele>296.0</ele><time>2026-04-12T09:31:09.999Z</time></trkpt><trkpt lat="45.72274556886147" lon="9.203856968852573"><ele>296.0</ele><time>2026-04-12T09:31:10.999Z</time></trkpt><trkpt lat="45.72291136790352" lon="9.203833662460395"><ele>296.33333333333337</ele><time>2026-04-12T09:31:11.999Z</time></trkpt><trkpt lat="45.723081595850374" lon="9.203801214239627"><ele>296.6666666666667</ele><time>2026-04-12T09:31:12.999Z</time></trkpt><trkpt lat="45.72324985119136" lon="9.203776732286325"><ele>297.0</ele><time>2026-04-12T09:31:13.999Z</time></trkpt><trkpt lat="45.723418838359635" lon="9.203749428890356"><ele>297.0</ele><time>2026-04-12T09:31:14.999Z</time></trkpt><trkpt lat="45.723605038975364" lon="9.203719839701304"><ele>297.0</ele><time>2026-04-12T09:31:15.999Z</time></trkpt><trkpt lat="45.72379405177242" lon="9.20369541538628"><ele>297.0</ele><time>2026-04-12T09:31:16.999Z</time></trkpt><trkpt lat="45.723989100929266" lon="9.203666698865865"><ele>297.0</ele><time>2026-04-12T09:31:17.999Z</time></trkpt><trkpt lat="45.72417978210142" lon="9.203630105540018"><ele>297.0</ele><time>2026-04-12T09:31:18.999Z</time></trkpt><trkpt lat="45.72437152038833" lon="9.203598736518137"><ele>297.0</ele><time>2026-04-12T09:31:19.999Z</time></trkpt><trkpt lat="45.724557615889104" lon="9.203569322287288"><ele>297.3333333333333</ele><time>2026-04-12T09:31:20.999Z</time></trkpt><trkpt lat="45.724721945931165" lon="9.203542223971498"><ele>297.66666666666663</ele><time>2026-04-12T09:31:21.999Z</time></trkpt><trkpt lat="45.72486986256943" lon="9.203515463325049"><ele>298.0</ele><time>2026-04-12T09:31:22.999Z</time></trkpt><trkpt lat="45.725010123955386" lon="9.20349099177131"><ele>298.0</ele><time>2026-04-12T09:31:23.999Z</time></trkpt><trkpt lat="45.725141382763965" lon="9.203467137543992"><ele>298.0</ele><time>2026-04-12T09:31:24.999Z</time></trkpt><trkpt lat="45.72526316477983" lon="9.203452371091187"><ele>298.0</ele><time>2026-04-12T09:31:25.999Z</time></trkpt><trkpt lat="45.725378158612195" lon="9.203432374267814"><ele>298.0</ele><time>2026-04-12T09:31:26.999Z</time></trkpt><trkpt lat="45.72549133070149" lon="9.203415847995807"><ele>298.4</ele><time>2026-04-12T09:31:27.999Z</time></trkpt><trkpt lat="45.725605016410654" lon="9.203398010019344"><ele>298.8</ele><time>2026-04-12T09:31:29Z</time></trkpt><trkpt lat="45.7257133940776" lon="9.20339180349177"><ele>299.2</ele><time>2026-04-12T09:31:30Z</time></trkpt><trkpt lat="45.725809347431266" lon="9.203369648926342"><ele>299.6</ele><time>2026-04-12T09:31:31Z</time></trkpt><trkpt lat="45.725909384320836" lon="9.203346658706584"><ele>300.0</ele><time>2026-04-12T09:31:32Z</time></trkpt><trkpt lat="45.72600399470548" lon="9.203334829835304"><ele>300.2</ele><time>2026-04-12T09:31:33Z</time></trkpt><trkpt lat="45.72610392188965" lon="9.203319055333786"><ele>300.4</ele><time>2026-04-12T09:31:34Z</time></trkpt><trkpt lat="45.72620257702993" lon="9.20329935959516"><ele>300.6</ele><time>2026-04-12T09:31:35Z</time></trkpt><trkpt lat="45.72630107662204" lon="9.203281750770232"><ele>300.8</ele><time>2026-04-12T09:31:36Z</time></trkpt><trkpt lat="45.726395890219116" lon="9.203269885113453"><ele>301.0</ele><time>2026-04-12T09:31:37Z</time></trkpt><trkpt lat="45.72648853077026" lon="9.20325556189555"><ele>301.0</ele><time>2026-04-12T09:31:38Z</time></trkpt><trkpt lat="45.72656809199869" lon="9.20324097706981"><ele>301.0</ele><time>2026-04-12T09:31:39Z</time></trkpt><trkpt lat="45.72664349461797" lon="9.203230618447089"><ele>301.0</ele><time>2026-04-12T09:31:40Z</time></trkpt><trkpt lat="45.72671064390308" lon="9.203222284044491"><ele>301.0</ele><time>2026-04-12T09:31:41Z</time></trkpt><trkpt lat="45.72680390082844" lon="9.203221110126092"><ele>301.0</ele><time>2026-04-12T09:31:43Z</time></trkpt><trkpt lat="45.72687011789596" lon="9.203242444693839"><ele>301.0</ele><time>2026-04-12T09:31:45Z</time></trkpt><trkpt lat="45.72698866810009" lon="9.203297360471945"><ele>301.25</ele><time>2026-04-12T09:31:47Z</time></trkpt><trkpt lat="45.72708866485185" lon="9.20336631311894"><ele>301.5</ele><time>2026-04-12T09:31:48Z</time></trkpt><trkpt lat="45.72719481343735" lon="9.203439884006126"><ele>301.75</ele><time>2026-04-12T09:31:49Z</time></trkpt><trkpt lat="45.72731147024539" lon="9.203524453853007"><ele>302.0</ele><time>2026-04-12T09:31:50Z</time></trkpt><trkpt lat="45.727431930359074" lon="9.203612960100783"><ele>302.0</ele><time>2026-04-12T09:31:51Z</time></trkpt><trkpt lat="45.72756646533714" lon="9.203714803683656"><ele>302.0</ele><time>2026-04-12T09:31:52Z</time></trkpt><trkpt lat="45.727701099198136" lon="9.20381918665203"><ele>302.0</ele><time>2026-04-12T09:31:53Z</time></trkpt><trkpt lat="45.72784346239449" lon="9.203928834609874"><ele>302.0</ele><time>2026-04-12T09:31:54Z</time></trkpt><trkpt lat="45.72799695669679" lon="9.20404493854925"><ele>302.0</ele><time>2026-04-12T09:31:55Z</time></trkpt><trkpt lat="45.72814599264611" lon="9.204163719806596"><ele>302.0</ele><time>2026-04-12T09:31:56Z</time></trkpt><trkpt lat="45.72828995271511" lon="9.204270431177314"><ele>302.0</ele><time>2026-04-12T09:31:57Z</time></trkpt><trkpt lat="45.728445136108064" lon="9.204387789299"><ele>302.0</ele><time>2026-04-12T09:31:58Z</time></trkpt><trkpt lat="45.72859402003341" lon="9.204526988348645"><ele>302.0</ele><time>2026-04-12T09:31:59Z</time></trkpt><trkpt lat="45.728745710647836" lon="9.204652764279547"><ele>301.6666666666667</ele><time>2026-04-12T09:32:00Z</time></trkpt><trkpt lat="45.72891504929939" lon="9.204771182018865"><ele>301.3333333333333</ele><time>2026-04-12T09:32:01Z</time></trkpt><trkpt lat="45.72906640615682" lon="9.204922484386334"><ele>301.0</ele><time>2026-04-12T09:32:02Z</time></trkpt><trkpt lat="45.729228541503986" lon="9.205061727267312"><ele>301.66666666666663</ele><time>2026-04-12T09:32:03Z</time></trkpt><trkpt lat="45.72939550192568" lon="9.205204895308707"><ele>302.3333333333333</ele><time>2026-04-12T09:32:04Z</time></trkpt><trkpt lat="45.729555011531986" lon="9.205341674291345"><ele>303.0</ele><time>2026-04-12T09:32:05Z</time></trkpt><trkpt lat="45.7297101041968" lon="9.205474693056402"><ele>303.0</ele><time>2026-04-12T09:32:06Z</time></trkpt><trkpt lat="45.729864259185625" lon="9.205606914374368"><ele>303.0</ele><time>2026-04-12T09:32:07Z</time></trkpt><trkpt lat="45.73000649396591" lon="9.20572642008449"><ele>303.0</ele><time>2026-04-12T09:32:08Z</time></trkpt><trkpt lat="45.73016334402659" lon="9.205857733264805"><ele>304.6666666666667</ele><time>2026-04-12T09:32:09Z</time></trkpt><trkpt lat="45.730308706090995" lon="9.20597852472869"><ele>306.33333333333337</ele><time>2026-04-12T09:32:10Z</time></trkpt><trkpt lat="45.730453271225485" lon="9.206098653959808"><ele>308.0</ele><time>2026-04-12T09:32:11Z</time></trkpt><trkpt lat="45.73058712951151" lon="9.206211835336518"><ele>308.0</ele><time>2026-04-12T09:32:12Z</time></trkpt><trkpt lat="45.73071728903416" lon="9.206323177531717"><ele>308.0</ele><time>2026-04-12T09:32:13Z</time></trkpt><trkpt lat="45.7308515185126" lon="9.206438075407762"><ele>308.0</ele><time>2026-04-12T09:32:14Z</time></trkpt><trkpt lat="45.730986217366066" lon="9.206556885249196"><ele>308.75</ele><time>2026-04-12T09:32:15Z</time></trkpt><trkpt lat="45.73110967949059" lon="9.20667140736984"><ele>309.5</ele><time>2026-04-12T09:32:16Z</time></trkpt><trkpt lat="45.73123217325024" lon="9.206785031235416"><ele>310.25</ele><time>2026-04-12T09:32:17Z</time></trkpt><trkpt lat="45.73135459782284" lon="9.206893392644579"><ele>311.0</ele><time>2026-04-12T09:32:18Z</time></trkpt><trkpt lat="45.7314766802384" lon="9.206987035155814"><ele>311.0</ele><time>2026-04-12T09:32:19Z</time></trkpt><trkpt lat="45.731605026067356" lon="9.207071105192911"><ele>311.0</ele><time>2026-04-12T09:32:20Z</time></trkpt><trkpt lat="45.73174484823179" lon="9.207123523436856"><ele>311.0</ele><time>2026-04-12T09:32:21Z</time></trkpt><trkpt lat="45.73189203227804" lon="9.207126610404998"><ele>311.0</ele><time>2026-04-12T09:32:22Z</time></trkpt><trkpt lat="45.73203855478986" lon="9.207127081242371"><ele>310.75</ele><time>2026-04-12T09:32:23Z</time></trkpt><trkpt lat="45.73218763861164" lon="9.20714105200935"><ele>310.5</ele><time>2026-04-12T09:32:24Z</time></trkpt><trkpt lat="45.73233413732165" lon="9.2071351304355"><ele>310.25</ele><time>2026-04-12T09:32:25Z</time></trkpt><trkpt lat="45.732479910052675" lon="9.20712842157477"><ele>310.0</ele><time>2026-04-12T09:32:26Z</time></trkpt><trkpt lat="45.73261973338756" lon="9.207121247565242"><ele>311.0</ele><time>2026-04-12T09:32:27Z</time></trkpt><trkpt lat="45.732769970886146" lon="9.20711338288387"><ele>312.0</ele><time>2026-04-12T09:32:28Z</time></trkpt><trkpt lat="45.73291267680046" lon="9.207105932819662"><ele>313.0</ele><time>2026-04-12T09:32:29Z</time></trkpt><trkpt lat="45.73306173656248" lon="9.20709817087429"><ele>314.0</ele><time>2026-04-12T09:32:30Z</time></trkpt><trkpt lat="45.73322279542007" lon="9.20708978410507"><ele>314.0</ele><time>2026-04-12T09:32:31Z</time></trkpt><trkpt lat="45.73338224879223" lon="9.20708148092682"><ele>314.0</ele><time>2026-04-12T09:32:32Z</time></trkpt><trkpt lat="45.73355350027378" lon="9.20707379832827"><ele>314.0</ele><time>2026-04-12T09:32:33Z</time></trkpt><trkpt lat="45.73371277317842" lon="9.207065519821153"><ele>314.33333333333337</ele><time>2026-04-12T09:32:34Z</time></trkpt><trkpt lat="45.73386595763888" lon="9.20705736123575"><ele>314.6666666666667</ele><time>2026-04-12T09:32:35Z</time></trkpt><trkpt lat="45.734023201208956" lon="9.207049006294952"><ele>315.0</ele><time>2026-04-12T09:32:36Z</time></trkpt><trkpt lat="45.73418522679414" lon="9.207021146387289"><ele>315.0</ele><time>2026-04-12T09:32:37Z</time></trkpt><trkpt lat="45.73434285673312" lon="9.207011400604527"><ele>315.0</ele><time>2026-04-12T09:32:38Z</time></trkpt><trkpt lat="45.73450827149943" lon="9.2070004273478"><ele>315.0</ele><time>2026-04-12T09:32:39Z</time></trkpt><trkpt lat="45.73466384583068" lon="9.20699449660299"><ele>317.3333333333333</ele><time>2026-04-12T09:32:40Z</time></trkpt><trkpt lat="45.73481992729822" lon="9.206992075074968"><ele>319.66666666666663</ele><time>2026-04-12T09:32:41Z</time></trkpt><trkpt lat="45.7349768656374" lon="9.206982532606492"><ele>322.0</ele><time>2026-04-12T09:32:42Z</time></trkpt><trkpt lat="45.73513455053009" lon="9.206972196655643"><ele>326.3333333333333</ele><time>2026-04-12T09:32:43Z</time></trkpt><trkpt lat="45.73529149144221" lon="9.206967675577571"><ele>330.6666666666667</ele><time>2026-04-12T09:32:44Z</time></trkpt><trkpt lat="45.73544552755282" lon="9.20695401928372"><ele>335.0</ele><time>2026-04-12T09:32:45Z</time></trkpt><trkpt lat="45.7355976270687" lon="9.20694771441936"><ele>335.0</ele><time>2026-04-12T09:32:46Z</time></trkpt><trkpt lat="45.73574362166131" lon="9.206946698304467"><ele>335.0</ele><time>2026-04-12T09:32:47Z</time></trkpt><trkpt lat="45.73589734599091" lon="9.206963353233457"><ele>335.0</ele><time>2026-04-12T09:32:48Z</time></trkpt><trkpt lat="45.73604506294965" lon="9.206986817739292"><ele>335.0</ele><time>2026-04-12T09:32:49Z</time></trkpt><trkpt lat="45.73619670612645" lon="9.207006786611561"><ele>336.6666666666667</ele><time>2026-04-12T09:32:49.998Z</time></trkpt><trkpt lat="45.7363501434765" lon="9.207026778208837"><ele>338.3333333333333</ele><time>2026-04-12T09:32:50.998Z</time></trkpt><trkpt lat="45.73650372896867" lon="9.207043898836279"><ele>340.0</ele><time>2026-04-12T09:32:51.998Z</time></trkpt><trkpt lat="45.736658565883516" lon="9.207061412144101"><ele>340.0</ele><time>2026-04-12T09:32:52.998Z</time></trkpt><trkpt lat="45.73681474388794" lon="9.207082607935394"><ele>340.0</ele><time>2026-04-12T09:32:53.998Z</time></trkpt><trkpt lat="45.73697108409442" lon="9.20710817980983"><ele>340.0</ele><time>2026-04-12T09:32:54.998Z</time></trkpt><trkpt lat="45.737125183124796" lon="9.20712937509216"><ele>340.0</ele><time>2026-04-12T09:32:55.998Z</time></trkpt><trkpt lat="45.73725687148724" lon="9.20714975459055"><ele>340.0</ele><time>2026-04-12T09:32:56.998Z</time></trkpt><trkpt lat="45.73738261827728" lon="9.207169564415757"><ele>340.0</ele><time>2026-04-12T09:32:57.998Z</time></trkpt><trkpt lat="45.73750473245419" lon="9.207183999545439"><ele>340.0</ele><time>2026-04-12T09:32:58.998Z</time></trkpt><trkpt lat="45.73763191347024" lon="9.20717937143311"><ele>339.8</ele><time>2026-04-12T09:32:59.998Z</time></trkpt><trkpt lat="45.737738425418165" lon="9.207138301378254"><ele>339.6</ele><time>2026-04-12T09:33:00.998Z</time></trkpt><trkpt lat="45.73782050719294" lon="9.207070819660933"><ele>339.4</ele><time>2026-04-12T09:33:01.998Z</time></trkpt><trkpt lat="45.73789686976713" lon="9.207011024733132"><ele>339.2</ele><time>2026-04-12T09:33:02.998Z</time></trkpt><trkpt lat="45.7379616842716" lon="9.20698889540356"><ele>339.0</ele><time>2026-04-12T09:33:03.999Z</time></trkpt><trkpt lat="45.7380035950574" lon="9.207122707080444"><ele>339.0</ele><time>2026-04-12T09:33:05.999Z</time></trkpt><trkpt lat="45.73803033732536" lon="9.207205711195051"><ele>339.0</ele><time>2026-04-12T09:33:06.999Z</time></trkpt><trkpt lat="45.738077438402264" lon="9.207292663113611"><ele>339.0</ele><time>2026-04-12T09:33:07.999Z</time></trkpt><trkpt lat="45.73810230657534" lon="9.207421140446868"><ele>339.0</ele><time>2026-04-12T09:33:08.999Z</time></trkpt><trkpt lat="45.73814420506384" lon="9.207546151907739"><ele>339.0</ele><time>2026-04-12T09:33:09.999Z</time></trkpt><trkpt lat="45.738185736936465" lon="9.207670177273677"><ele>339.0</ele><time>2026-04-12T09:33:10.999Z</time></trkpt><trkpt lat="45.73824367700968" lon="9.207795387981111"><ele>338.25</ele><time>2026-04-12T09:33:11.999Z</time></trkpt><trkpt lat="45.738292548452925" lon="9.207946755886985"><ele>337.5</ele><time>2026-04-12T09:33:12.999Z</time></trkpt><trkpt lat="45.738345934817836" lon="9.208121252853257"><ele>336.75</ele><time>2026-04-12T09:33:13.999Z</time></trkpt><trkpt lat="45.73839741093163" lon="9.208266388671024"><ele>336.0</ele><time>2026-04-12T09:33:14.999Z</time></trkpt><trkpt lat="45.73845157415943" lon="9.20842598963112"><ele>336.25</ele><time>2026-04-12T09:33:15.999Z</time></trkpt><trkpt lat="45.73850016104028" lon="9.208589478046655"><ele>336.5</ele><time>2026-04-12T09:33:16.999Z</time></trkpt><trkpt lat="45.738564106596854" lon="9.20877216108123"><ele>336.75</ele><time>2026-04-12T09:33:17.999Z</time></trkpt><trkpt lat="45.73861622568973" lon="9.208971670331723"><ele>337.0</ele><time>2026-04-12T09:33:18.999Z</time></trkpt><trkpt lat="45.73869616023943" lon="9.209156588584793"><ele>336.3333333333333</ele><time>2026-04-12T09:33:19.999Z</time></trkpt><trkpt lat="45.7387473337971" lon="9.209363392379853"><ele>335.6666666666667</ele><time>2026-04-12T09:33:20.999Z</time></trkpt><trkpt lat="45.73882155178493" lon="9.20955292480634"><ele>335.0</ele><time>2026-04-12T09:33:21.999Z</time></trkpt><trkpt lat="45.7388943381903" lon="9.209767570507072"><ele>335.0</ele><time>2026-04-12T09:33:22.999Z</time></trkpt><trkpt lat="45.738949605370095" lon="9.209974931185164"><ele>335.0</ele><time>2026-04-12T09:33:23.999Z</time></trkpt><trkpt lat="45.73903658222601" lon="9.210183482656934"><ele>335.0</ele><time>2026-04-12T09:33:24.999Z</time></trkpt><trkpt lat="45.73910666890852" lon="9.210408032757432"><ele>335.0</ele><time>2026-04-12T09:33:25.999Z</time></trkpt><trkpt lat="45.73918030992292" lon="9.210631777241096"><ele>335.0</ele><time>2026-04-12T09:33:26.999Z</time></trkpt><trkpt lat="45.73925170255005" lon="9.210850429326777"><ele>335.0</ele><time>2026-04-12T09:33:27.999Z</time></trkpt><trkpt lat="45.73931742691106" lon="9.211072931820754"><ele>335.33333333333337</ele><time>2026-04-12T09:33:28.999Z</time></trkpt><trkpt lat="45.73937761773991" lon="9.211292825500283"><ele>335.6666666666667</ele><time>2026-04-12T09:33:29.999Z</time></trkpt><trkpt lat="45.739429796891" lon="9.211517589256378"><ele>336.0</ele><time>2026-04-12T09:33:30.999Z</time></trkpt><trkpt lat="45.739493007469676" lon="9.211761644707249"><ele>338.0</ele><time>2026-04-12T09:33:31.999Z</time></trkpt><trkpt lat="45.73955921973354" lon="9.211988272451642"><ele>340.0</ele><time>2026-04-12T09:33:32.999Z</time></trkpt><trkpt lat="45.73961187468109" lon="9.212208469995565"><ele>342.0</ele><time>2026-04-12T09:33:33.999Z</time></trkpt><trkpt lat="45.739651515296984" lon="9.212431522133762"><ele>342.3333333333333</ele><time>2026-04-12T09:33:34.999Z</time></trkpt><trkpt lat="45.739707851005825" lon="9.212660970394316"><ele>342.66666666666663</ele><time>2026-04-12T09:33:36Z</time></trkpt><trkpt lat="45.73975939736682" lon="9.212870912202431"><ele>343.0</ele><time>2026-04-12T09:33:37Z</time></trkpt><trkpt lat="45.73982824929506" lon="9.213089368805726"><ele>344.0</ele><time>2026-04-12T09:33:38Z</time></trkpt><trkpt lat="45.7398708043957" lon="9.213282067147171"><ele>345.0</ele><time>2026-04-12T09:33:39Z</time></trkpt><trkpt lat="45.73991589051394" lon="9.213474128881415"><ele>346.0</ele><time>2026-04-12T09:33:40Z</time></trkpt><trkpt lat="45.73996553067797" lon="9.213651867077113"><ele>347.0</ele><time>2026-04-12T09:33:41Z</time></trkpt><trkpt lat="45.74001281613809" lon="9.213819341604932"><ele>347.0</ele><time>2026-04-12T09:33:42Z</time></trkpt><trkpt lat="45.740055667883695" lon="9.213952493923243"><ele>347.0</ele><time>2026-04-12T09:33:43Z</time></trkpt><trkpt lat="45.740087778317346" lon="9.214048273085492"><ele>347.0</ele><time>2026-04-12T09:33:44Z</time></trkpt><trkpt lat="45.74013213945577" lon="9.214176566613572"><ele>347.0</ele><time>2026-04-12T09:33:46Z</time></trkpt><trkpt lat="45.74018287386102" lon="9.214263900643038"><ele>347.0</ele><time>2026-04-12T09:33:48Z</time></trkpt><trkpt lat="45.740235936949574" lon="9.214380690911868"><ele>348.6</ele><time>2026-04-12T09:33:50Z</time></trkpt><trkpt lat="45.74030928784512" lon="9.214512692801396"><ele>350.20000000000005</ele><time>2026-04-12T09:33:52Z</time></trkpt><trkpt lat="45.7403689250088" lon="9.214616816904558"><ele>351.8</ele><time>2026-04-12T09:33:54Z</time></trkpt><trkpt lat="45.7404184808887" lon="9.21470385529138"><ele>353.4</ele><time>2026-04-12T09:33:56Z</time></trkpt><trkpt lat="45.74047020211634" lon="9.214817823882052"><ele>355.0</ele><time>2026-04-12T09:33:58Z</time></trkpt><trkpt lat="45.74046660284873" lon="9.214957146020547"><ele>355.0</ele><time>2026-04-12T09:34:00Z</time></trkpt><trkpt lat="45.740480770083884" lon="9.21508089425911"><ele>355.0</ele><time>2026-04-12T09:34:02Z</time></trkpt><trkpt lat="45.74056805630352" lon="9.215159096800173"><ele>355.0</ele><time>2026-04-12T09:34:05Z</time></trkpt><trkpt lat="45.740663205878064" lon="9.21517677912589"><ele>355.0</ele><time>2026-04-12T09:34:35Z</time></trkpt><trkpt lat="45.74078232488538" lon="9.215203968096542"><ele>355.0</ele><time>2026-04-12T09:34:37Z</time></trkpt><trkpt lat="45.740850310747625" lon="9.215220880139745"><ele>355.0</ele><time>2026-04-12T09:34:38Z</time></trkpt><trkpt lat="45.740932599292385" lon="9.215241090735281"><ele>355.0</ele><time>2026-04-12T09:34:39Z</time></trkpt><trkpt lat="45.74102328726026" lon="9.215267198457509"><ele>355.0</ele><time>2026-04-12T09:34:40Z</time></trkpt><trkpt lat="45.74111883119424" lon="9.215293302666494"><ele>355.0</ele><time>2026-04-12T09:34:41Z</time></trkpt><trkpt lat="45.7412189688228" lon="9.215321057958937"><ele>355.0</ele><time>2026-04-12T09:34:42Z</time></trkpt><trkpt lat="45.74132849240378" lon="9.215351852035347"><ele>356.0</ele><time>2026-04-12T09:34:43Z</time></trkpt><trkpt lat="45.74146892861326" lon="9.215394955392554"><ele>357.0</ele><time>2026-04-12T09:34:44Z</time></trkpt><trkpt lat="45.741615204561185" lon="9.215450283696882"><ele>358.0</ele><time>2026-04-12T09:34:45.001Z</time></trkpt><trkpt lat="45.74176605020726" lon="9.215526238329632"><ele>358.3333333333333</ele><time>2026-04-12T09:34:46.001Z</time></trkpt><trkpt lat="45.74194032994263" lon="9.21563543936892"><ele>358.6666666666667</ele><time>2026-04-12T09:34:47.001Z</time></trkpt><trkpt lat="45.742109298696256" lon="9.215759877209381"><ele>359.0</ele><time>2026-04-12T09:34:48.001Z</time></trkpt><trkpt lat="45.74226708394329" lon="9.215903655531633"><ele>358.0</ele><time>2026-04-12T09:34:49.001Z</time></trkpt><trkpt lat="45.742418901799546" lon="9.216076015012204"><ele>357.0</ele><time>2026-04-12T09:34:50.001Z</time></trkpt><trkpt lat="45.742565113860216" lon="9.216245737404332"><ele>356.0</ele><time>2026-04-12T09:34:51.001Z</time></trkpt><trkpt lat="45.74270935863368" lon="9.216404050253193"><ele>355.33333333333337</ele><time>2026-04-12T09:34:52.001Z</time></trkpt><trkpt lat="45.74285620342449" lon="9.216558095915008"><ele>354.6666666666667</ele><time>2026-04-12T09:34:53.001Z</time></trkpt><trkpt lat="45.74299157322851" lon="9.21669542808217"><ele>354.0</ele><time>2026-04-12T09:34:54.001Z</time></trkpt><trkpt lat="45.74313198236533" lon="9.216838714186293"><ele>354.0</ele><time>2026-04-12T09:34:55.001Z</time></trkpt><trkpt lat="45.74326946246164" lon="9.216980254063865"><ele>354.0</ele><time>2026-04-12T09:34:55.998Z</time></trkpt><trkpt lat="45.74341156555195" lon="9.217132795950317"><ele>354.0</ele><time>2026-04-12T09:34:56.998Z</time></trkpt><trkpt lat="45.74354284674976" lon="9.217282408672357"><ele>352.3333333333333</ele><time>2026-04-12T09:34:57.998Z</time></trkpt><trkpt lat="45.74368184759646" lon="9.217436937561011"><ele>350.66666666666663</ele><time>2026-04-12T09:34:58.998Z</time></trkpt><trkpt lat="45.74381632630555" lon="9.217583047577053"><ele>349.0</ele><time>2026-04-12T09:34:59.998Z</time></trkpt><trkpt lat="45.74395588406608" lon="9.21773315886902"><ele>349.0</ele><time>2026-04-12T09:35:00.998Z</time></trkpt><trkpt lat="45.74410063953426" lon="9.21788661885202"><ele>349.0</ele><time>2026-04-12T09:35:01.998Z</time></trkpt><trkpt lat="45.74424716451939" lon="9.218041548918201"><ele>349.0</ele><time>2026-04-12T09:35:02.998Z</time></trkpt><trkpt lat="45.74439165278118" lon="9.218194812720615"><ele>347.0</ele><time>2026-04-12T09:35:03.998Z</time></trkpt><trkpt lat="45.74454168618616" lon="9.218351949185823"><ele>345.0</ele><time>2026-04-12T09:35:04.999Z</time></trkpt><trkpt lat="45.74468905290299" lon="9.218509702447152"><ele>343.0</ele><time>2026-04-12T09:35:05.999Z</time></trkpt><trkpt lat="45.744836203611676" lon="9.218668161829973"><ele>343.0</ele><time>2026-04-12T09:35:06.999Z</time></trkpt><trkpt lat="45.74497791370718" lon="9.218828006391362"><ele>343.0</ele><time>2026-04-12T09:35:07.999Z</time></trkpt><trkpt lat="45.74512743763852" lon="9.218984315308612"><ele>343.0</ele><time>2026-04-12T09:35:08.999Z</time></trkpt><trkpt lat="45.74527040978548" lon="9.219137636839907"><ele>341.66666666666663</ele><time>2026-04-12T09:35:09.999Z</time></trkpt><trkpt lat="45.74541785963455" lon="9.219277824475279"><ele>340.3333333333333</ele><time>2026-04-12T09:35:10.999Z</time></trkpt><trkpt lat="45.745574456009386" lon="9.219401865822556"><ele>339.0</ele><time>2026-04-12T09:35:11.999Z</time></trkpt><trkpt lat="45.74573825680984" lon="9.21950647522409"><ele>339.0</ele><time>2026-04-12T09:35:12.999Z</time></trkpt><trkpt lat="45.74590492297898" lon="9.21958992847992"><ele>339.0</ele><time>2026-04-12T09:35:13.999Z</time></trkpt><trkpt lat="45.7460824771468" lon="9.219648458292108"><ele>339.0</ele><time>2026-04-12T09:35:14.999Z</time></trkpt><trkpt lat="45.74625545712321" lon="9.219705092071399"><ele>339.0</ele><time>2026-04-12T09:35:15.999Z</time></trkpt><trkpt lat="45.74643148110008" lon="9.219746839671705"><ele>339.0</ele><time>2026-04-12T09:35:16.999Z</time></trkpt><trkpt lat="45.746611092570404" lon="9.219788777756397"><ele>339.0</ele><time>2026-04-12T09:35:17.999Z</time></trkpt><trkpt lat="45.7467816629908" lon="9.219840589576458"><ele>338.6666666666667</ele><time>2026-04-12T09:35:18.999Z</time></trkpt><trkpt lat="45.74695637021634" lon="9.219886987096793"><ele>338.33333333333337</ele><time>2026-04-12T09:35:19.999Z</time></trkpt><trkpt lat="45.74712423819577" lon="9.219929371431425"><ele>338.0</ele><time>2026-04-12T09:35:20.999Z</time></trkpt><trkpt lat="45.747277722372" lon="9.219969531431056"><ele>338.0</ele><time>2026-04-12T09:35:21.999Z</time></trkpt><trkpt lat="45.74742486360896" lon="9.220009871719917"><ele>338.0</ele><time>2026-04-12T09:35:22.999Z</time></trkpt><trkpt lat="45.747569708266425" lon="9.220050063740755"><ele>338.0</ele><time>2026-04-12T09:35:23.999Z</time></trkpt><trkpt lat="45.74770352275251" lon="9.220086447718502"><ele>338.0</ele><time>2026-04-12T09:35:24.999Z</time></trkpt><trkpt lat="45.7478307840146" lon="9.22012203813942"><ele>338.0</ele><time>2026-04-12T09:35:25.999Z</time></trkpt><trkpt lat="45.74794963494279" lon="9.220153418638954"><ele>338.0</ele><time>2026-04-12T09:35:26.999Z</time></trkpt><trkpt lat="45.748061065299716" lon="9.220181324389282"><ele>338.0</ele><time>2026-04-12T09:35:27.999Z</time></trkpt><trkpt lat="45.74816478967697" lon="9.220220446370721"><ele>338.0</ele><time>2026-04-12T09:35:28.999Z</time></trkpt><trkpt lat="45.74825412949223" lon="9.220274614847987"><ele>338.0</ele><time>2026-04-12T09:35:29.999Z</time></trkpt><trkpt lat="45.74832488072168" lon="9.220339875997503"><ele>338.0</ele><time>2026-04-12T09:35:30.999Z</time></trkpt><trkpt lat="45.748380360569456" lon="9.2204107651015"><ele>338.0</ele><time>2026-04-12T09:35:31.999Z</time></trkpt><trkpt lat="45.74843840300934" lon="9.220459394129461"><ele>338.0</ele><time>2026-04-12T09:35:32.999Z</time></trkpt><trkpt lat="45.74851896940083" lon="9.220463545145323"><ele>338.0</ele><time>2026-04-12T09:35:33.999Z</time></trkpt><trkpt lat="45.7486063965986" lon="9.22045012295441"><ele>338.0</ele><time>2026-04-12T09:35:35Z</time></trkpt><trkpt lat="45.748706926384436" lon="9.220433467990926"><ele>338.0</ele><time>2026-04-12T09:35:36Z</time></trkpt><trkpt lat="45.74880899862761" lon="9.220424216634767"><ele>338.0</ele><time>2026-04-12T09:35:37Z</time></trkpt><trkpt lat="45.74891617110755" lon="9.220426751713086"><ele>338.0</ele><time>2026-04-12T09:35:38Z</time></trkpt><trkpt lat="45.749025620930105" lon="9.220440226167952"><ele>338.0</ele><time>2026-04-12T09:35:39Z</time></trkpt><trkpt lat="45.749140648903314" lon="9.220452819620416"><ele>338.0</ele><time>2026-04-12T09:35:40Z</time></trkpt><trkpt lat="45.74926088843191" lon="9.220467041091073"><ele>338.25</ele><time>2026-04-12T09:35:41Z</time></trkpt><trkpt lat="45.74938253735091" lon="9.220487426846258"><ele>338.5</ele><time>2026-04-12T09:35:42Z</time></trkpt><trkpt lat="45.749503425653906" lon="9.22052858308253"><ele>338.75</ele><time>2026-04-12T09:35:43Z</time></trkpt><trkpt lat="45.74961379940212" lon="9.220586531095076"><ele>339.0</ele><time>2026-04-12T09:35:44Z</time></trkpt><trkpt lat="45.749725749019404" lon="9.22065305409713"><ele>338.79999999999995</ele><time>2026-04-12T09:35:45Z</time></trkpt><trkpt lat="45.74982878453304" lon="9.220722814648138"><ele>338.59999999999997</ele><time>2026-04-12T09:35:46Z</time></trkpt><trkpt lat="45.7499278087571" lon="9.220795075667514"><ele>338.4</ele><time>2026-04-12T09:35:47Z</time></trkpt><trkpt lat="45.7500234993431" lon="9.220864409498716"><ele>338.2</ele><time>2026-04-12T09:35:48Z</time></trkpt><trkpt lat="45.75012008729542" lon="9.220926181872645"><ele>338.0</ele><time>2026-04-12T09:35:49Z</time></trkpt><trkpt lat="45.75021479658008" lon="9.220992611688144"><ele>338.0</ele><time>2026-04-12T09:35:50Z</time></trkpt><trkpt lat="45.75031222144375" lon="9.221063424269902"><ele>338.0</ele><time>2026-04-12T09:35:51Z</time></trkpt><trkpt lat="45.7504098347205" lon="9.221132570013785"><ele>338.0</ele><time>2026-04-12T09:35:52Z</time></trkpt><trkpt lat="45.75051060221777" lon="9.221206866469549"><ele>338.0</ele><time>2026-04-12T09:35:53Z</time></trkpt><trkpt lat="45.75060870047674" lon="9.2212778702498"><ele>338.0</ele><time>2026-04-12T09:35:54Z</time></trkpt><trkpt lat="45.75070997502872" lon="9.221350844675317"><ele>338.0</ele><time>2026-04-12T09:35:55Z</time></trkpt><trkpt lat="45.750811420782384" lon="9.221423842259359"><ele>338.0</ele><time>2026-04-12T09:35:56Z</time></trkpt><trkpt lat="45.75091802804171" lon="9.22150103953778"><ele>338.0</ele><time>2026-04-12T09:35:57Z</time></trkpt><trkpt lat="45.75103648254683" lon="9.221580930852657"><ele>338.0</ele><time>2026-04-12T09:35:58Z</time></trkpt><trkpt lat="45.751159612137236" lon="9.221664900951806"><ele>337.75</ele><time>2026-04-12T09:35:59Z</time></trkpt><trkpt lat="45.75128156170098" lon="9.221747991789362"><ele>337.5</ele><time>2026-04-12T09:36:00Z</time></trkpt><trkpt lat="45.75140136837796" lon="9.221830056488168"><ele>337.25</ele><time>2026-04-12T09:36:01Z</time></trkpt><trkpt lat="45.75152558354844" lon="9.221911268482097"><ele>337.0</ele><time>2026-04-12T09:36:02Z</time></trkpt><trkpt lat="45.75164591138899" lon="9.22199869280298"><ele>337.0</ele><time>2026-04-12T09:36:03Z</time></trkpt><trkpt lat="45.75176617003926" lon="9.222086263854711"><ele>337.0</ele><time>2026-04-12T09:36:04Z</time></trkpt><trkpt lat="45.751885282524846" lon="9.222176025080293"><ele>337.0</ele><time>2026-04-12T09:36:05Z</time></trkpt><trkpt lat="45.751998357928045" lon="9.222262480795486"><ele>337.0</ele><time>2026-04-12T09:36:06Z</time></trkpt><trkpt lat="45.752113065529315" lon="9.222339783463111"><ele>337.5</ele><time>2026-04-12T09:36:07Z</time></trkpt><trkpt lat="45.752229248259134" lon="9.22241669840632"><ele>338.0</ele><time>2026-04-12T09:36:08Z</time></trkpt><trkpt lat="45.75234241735821" lon="9.222487947421758"><ele>338.5</ele><time>2026-04-12T09:36:09Z</time></trkpt><trkpt lat="45.75245408391848" lon="9.222555979119527"><ele>339.0</ele><time>2026-04-12T09:36:10Z</time></trkpt><trkpt lat="45.75256189760626" lon="9.22262150377328"><ele>339.0</ele><time>2026-04-12T09:36:11Z</time></trkpt><trkpt lat="45.75266831462457" lon="9.222686336093318"><ele>339.0</ele><time>2026-04-12T09:36:12Z</time></trkpt><trkpt lat="45.75276796723681" lon="9.222750174962416"><ele>339.0</ele><time>2026-04-12T09:36:13Z</time></trkpt><trkpt lat="45.75286752634182" lon="9.222814603176193"><ele>339.0</ele><time>2026-04-12T09:36:14Z</time></trkpt><trkpt lat="45.75296550887928" lon="9.222877897537957"><ele>339.0</ele><time>2026-04-12T09:36:15Z</time></trkpt><trkpt lat="45.75306163044187" lon="9.222938206229898"><ele>338.6666666666667</ele><time>2026-04-12T09:36:16Z</time></trkpt><trkpt lat="45.75314943390081" lon="9.223004897194075"><ele>338.3333333333333</ele><time>2026-04-12T09:36:17Z</time></trkpt><trkpt lat="45.75322647472884" lon="9.223071105247298"><ele>338.0</ele><time>2026-04-12T09:36:18Z</time></trkpt><trkpt lat="45.75329476493028" lon="9.223143504319241"><ele>337.66666666666663</ele><time>2026-04-12T09:36:19Z</time></trkpt><trkpt lat="45.753355965510615" lon="9.223217341072491"><ele>337.3333333333333</ele><time>2026-04-12T09:36:20Z</time></trkpt><trkpt lat="45.753409569656434" lon="9.223292243855472"><ele>337.0</ele><time>2026-04-12T09:36:21Z</time></trkpt><trkpt lat="45.75346917265595" lon="9.223362453171006"><ele>336.8</ele><time>2026-04-12T09:36:22Z</time></trkpt><trkpt lat="45.7535434438894" lon="9.22340602767211"><ele>336.6</ele><time>2026-04-12T09:36:23Z</time></trkpt><trkpt lat="45.75362854101284" lon="9.223427283615347"><ele>336.40000000000003</ele><time>2026-04-12T09:36:24Z</time></trkpt><trkpt lat="45.75373112953446" lon="9.223420280176699"><ele>336.20000000000005</ele><time>2026-04-12T09:36:25Z</time></trkpt><trkpt lat="45.75384131345496" lon="9.223446391916259"><ele>336.0</ele><time>2026-04-12T09:36:26Z</time></trkpt><trkpt lat="45.753950657704166" lon="9.223497003498041"><ele>336.0</ele><time>2026-04-12T09:36:27Z</time></trkpt><trkpt lat="45.75405772069561" lon="9.223566675750725"><ele>336.0</ele><time>2026-04-12T09:36:28Z</time></trkpt><trkpt lat="45.75416568521301" lon="9.223644432606806"><ele>336.0</ele><time>2026-04-12T09:36:29Z</time></trkpt><trkpt lat="45.75427691359115" lon="9.223723201395462"><ele>336.0</ele><time>2026-04-12T09:36:30Z</time></trkpt><trkpt lat="45.754394395829614" lon="9.223795596571286"><ele>336.25</ele><time>2026-04-12T09:36:31Z</time></trkpt><trkpt lat="45.754516045007115" lon="9.223871529920538"><ele>336.5</ele><time>2026-04-12T09:36:32.001Z</time></trkpt><trkpt lat="45.75464094143607" lon="9.223943538127518"><ele>336.75</ele><time>2026-04-12T09:36:33.001Z</time></trkpt><trkpt lat="45.75476724130267" lon="9.224027884413042"><ele>337.0</ele><time>2026-04-12T09:36:34.001Z</time></trkpt><trkpt lat="45.754893045670975" lon="9.224107383322629"><ele>337.0</ele><time>2026-04-12T09:36:35.001Z</time></trkpt><trkpt lat="45.755012930260165" lon="9.224184663243188"><ele>337.0</ele><time>2026-04-12T09:36:36.001Z</time></trkpt><trkpt lat="45.755143381732246" lon="9.224265744037378"><ele>337.0</ele><time>2026-04-12T09:36:37.001Z</time></trkpt><trkpt lat="45.75526927293782" lon="9.224343673554063"><ele>337.0</ele><time>2026-04-12T09:36:38.001Z</time></trkpt><trkpt lat="45.75539005028227" lon="9.224421550652862"><ele>336.0</ele><time>2026-04-12T09:36:39.001Z</time></trkpt><trkpt lat="45.755506832952705" lon="9.224492072085921"><ele>335.0</ele><time>2026-04-12T09:36:40.001Z</time></trkpt><trkpt lat="45.75561725998692" lon="9.22456036760477"><ele>334.0</ele><time>2026-04-12T09:36:41.001Z</time></trkpt><trkpt lat="45.755723497344185" lon="9.224626434881928"><ele>333.0</ele><time>2026-04-12T09:36:42.001Z</time></trkpt><trkpt lat="45.755828739342626" lon="9.224693728293294"><ele>333.0</ele><time>2026-04-12T09:36:43.001Z</time></trkpt><trkpt lat="45.75593314087752" lon="9.224758406371262"><ele>333.0</ele><time>2026-04-12T09:36:44.001Z</time></trkpt><trkpt lat="45.75602962320365" lon="9.224823284849311"><ele>333.0</ele><time>2026-04-12T09:36:45.001Z</time></trkpt><trkpt lat="45.756122216037156" lon="9.224883871310666"><ele>333.0</ele><time>2026-04-12T09:36:46.001Z</time></trkpt><trkpt lat="45.75622115859511" lon="9.2249453990188"><ele>333.0</ele><time>2026-04-12T09:36:47.001Z</time></trkpt><trkpt lat="45.7563094859774" lon="9.224997740686272"><ele>332.5</ele><time>2026-04-12T09:36:48.001Z</time></trkpt><trkpt lat="45.756390809360305" lon="9.22504877264297"><ele>332.0</ele><time>2026-04-12T09:36:49.001Z</time></trkpt><trkpt lat="45.75646558591262" lon="9.225099155867884"><ele>331.5</ele><time>2026-04-12T09:36:50.001Z</time></trkpt><trkpt lat="45.756534282678274" lon="9.225148289089312"><ele>331.0</ele><time>2026-04-12T09:36:51.001Z</time></trkpt><trkpt lat="45.7565997121306" lon="9.225195354697039"><ele>330.5</ele><time>2026-04-12T09:36:52.001Z</time></trkpt><trkpt lat="45.75670266796206" lon="9.225289097365218"><ele>330.0</ele><time>2026-04-12T09:36:54.001Z</time></trkpt><trkpt lat="45.75680723326938" lon="9.225378356482857"><ele>329.4</ele><time>2026-04-12T09:36:56.001Z</time></trkpt><trkpt lat="45.75688543881565" lon="9.225399150783268"><ele>328.8</ele><time>2026-04-12T09:36:57.001Z</time></trkpt><trkpt lat="45.75697809111876" lon="9.225409571089257"><ele>328.20000000000005</ele><time>2026-04-12T09:36:58.001Z</time></trkpt><trkpt lat="45.75708571182926" lon="9.225429918552567"><ele>327.6</ele><time>2026-04-12T09:36:59.001Z</time></trkpt><trkpt lat="45.7571992082662" lon="9.2254560600128"><ele>327.0</ele><time>2026-04-12T09:37:00.001Z</time></trkpt><trkpt lat="45.757298951380726" lon="9.22547880954484"><ele>327.0</ele><time>2026-04-12T09:37:01.001Z</time></trkpt><trkpt lat="45.75738924597869" lon="9.2255066873791"><ele>327.0</ele><time>2026-04-12T09:37:01.999Z</time></trkpt><trkpt lat="45.75747017503975" lon="9.22555095566489"><ele>327.0</ele><time>2026-04-12T09:37:02.999Z</time></trkpt><trkpt lat="45.757541992288246" lon="9.225616302707957"><ele>327.0</ele><time>2026-04-12T09:37:03.999Z</time></trkpt><trkpt lat="45.75761120809042" lon="9.225682261243664"><ele>327.0</ele><time>2026-04-12T09:37:04.999Z</time></trkpt><trkpt lat="45.757685594591166" lon="9.22572477942802"><ele>327.0</ele><time>2026-04-12T09:37:05.999Z</time></trkpt><trkpt lat="45.75776517577827" lon="9.225726232750759"><ele>326.20000000000005</ele><time>2026-04-12T09:37:06.999Z</time></trkpt><trkpt lat="45.757869303852424" lon="9.225715539522092"><ele>325.4</ele><time>2026-04-12T09:37:07.999Z</time></trkpt><trkpt lat="45.757967254762306" lon="9.225690392925724"><ele>324.6</ele><time>2026-04-12T09:37:08.999Z</time></trkpt><trkpt lat="45.75806743693456" lon="9.225675963047854"><ele>323.79999999999995</ele><time>2026-04-12T09:37:09.999Z</time></trkpt><trkpt lat="45.758182841335945" lon="9.225696760624727"><ele>323.0</ele><time>2026-04-12T09:37:10.999Z</time></trkpt><trkpt lat="45.758310155570015" lon="9.225737802734809"><ele>323.0</ele><time>2026-04-12T09:37:11.999Z</time></trkpt><trkpt lat="45.75844811600321" lon="9.22577586732782"><ele>323.0</ele><time>2026-04-12T09:37:12.999Z</time></trkpt><trkpt lat="45.75859629637328" lon="9.225819992383256"><ele>323.0</ele><time>2026-04-12T09:37:13.999Z</time></trkpt><trkpt lat="45.75875427766926" lon="9.2258704959578"><ele>323.0</ele><time>2026-04-12T09:37:14.999Z</time></trkpt><trkpt lat="45.75890935770391" lon="9.225918894778859"><ele>323.0</ele><time>2026-04-12T09:37:15.999Z</time></trkpt><trkpt lat="45.759059979692246" lon="9.225963919076316"><ele>323.0</ele><time>2026-04-12T09:37:16.999Z</time></trkpt><trkpt lat="45.759216605206305" lon="9.226011685924451"><ele>324.6666666666667</ele><time>2026-04-12T09:37:17.999Z</time></trkpt><trkpt lat="45.75938723928693" lon="9.226066863512331"><ele>326.3333333333333</ele><time>2026-04-12T09:37:18.999Z</time></trkpt><trkpt lat="45.75955137234965" lon="9.226117604731598"><ele>328.0</ele><time>2026-04-12T09:37:19.999Z</time></trkpt><trkpt lat="45.75971758574731" lon="9.22616752524012"><ele>328.0</ele><time>2026-04-12T09:37:20.999Z</time></trkpt><trkpt lat="45.75988678514879" lon="9.226215734764889"><ele>328.0</ele><time>2026-04-12T09:37:21.999Z</time></trkpt><trkpt lat="45.760061400925224" lon="9.2262660107662"><ele>328.0</ele><time>2026-04-12T09:37:22.999Z</time></trkpt><trkpt lat="45.76023563036827" lon="9.226318384745387"><ele>326.0</ele><time>2026-04-12T09:37:23.999Z</time></trkpt><trkpt lat="45.76041042680728" lon="9.226370985190893"><ele>324.0</ele><time>2026-04-12T09:37:24.999Z</time></trkpt><trkpt lat="45.76057981816129" lon="9.226429667254251"><ele>322.0</ele><time>2026-04-12T09:37:25.999Z</time></trkpt><trkpt lat="45.76073336973271" lon="9.226534717277145"><ele>322.0</ele><time>2026-04-12T09:37:26.999Z</time></trkpt><trkpt lat="45.76088628312647" lon="9.226646482976022"><ele>322.0</ele><time>2026-04-12T09:37:27.999Z</time></trkpt><trkpt lat="45.761037127146245" lon="9.226778164872421"><ele>322.0</ele><time>2026-04-12T09:37:28.999Z</time></trkpt><trkpt lat="45.76118150431569" lon="9.226909370066013"><ele>319.66666666666663</ele><time>2026-04-12T09:37:29.999Z</time></trkpt><trkpt lat="45.76133633669792" lon="9.227028281928147"><ele>317.3333333333333</ele><time>2026-04-12T09:37:30.999Z</time></trkpt><trkpt lat="45.76148217550915" lon="9.227170241085355"><ele>315.0</ele><time>2026-04-12T09:37:31.999Z</time></trkpt><trkpt lat="45.76163124878324" lon="9.227309957696129"><ele>315.6666666666667</ele><time>2026-04-12T09:37:32.999Z</time></trkpt><trkpt lat="45.761779995894535" lon="9.227445531172842"><ele>316.33333333333337</ele><time>2026-04-12T09:37:33.999Z</time></trkpt><trkpt lat="45.76192720573494" lon="9.227583092484151"><ele>317.0</ele><time>2026-04-12T09:37:34.999Z</time></trkpt><trkpt lat="45.7620782400601" lon="9.22772256512923"><ele>312.6666666666667</ele><time>2026-04-12T09:37:35.999Z</time></trkpt><trkpt lat="45.76222734478329" lon="9.227861594858954"><ele>308.3333333333333</ele><time>2026-04-12T09:37:36.999Z</time></trkpt><trkpt lat="45.762373028991604" lon="9.227999518901893"><ele>304.0</ele><time>2026-04-12T09:37:37.999Z</time></trkpt><trkpt lat="45.76252415052853" lon="9.22813006095661"><ele>304.0</ele><time>2026-04-12T09:37:39Z</time></trkpt><trkpt lat="45.76268343783899" lon="9.228251073407971"><ele>304.0</ele><time>2026-04-12T09:37:40Z</time></trkpt><trkpt lat="45.76285028275345" lon="9.22835289110618"><ele>304.0</ele><time>2026-04-12T09:37:41Z</time></trkpt><trkpt lat="45.76302652693133" lon="9.228428222854518"><ele>304.0</ele><time>2026-04-12T09:37:42Z</time></trkpt><trkpt lat="45.763217196462456" lon="9.228479716402344"><ele>304.0</ele><time>2026-04-12T09:37:43Z</time></trkpt><trkpt lat="45.763419122702956" lon="9.228519032475825"><ele>304.0</ele><time>2026-04-12T09:37:44Z</time></trkpt><trkpt lat="45.76362110977483" lon="9.228560038618566"><ele>304.0</ele><time>2026-04-12T09:37:45Z</time></trkpt><trkpt lat="45.76382302209971" lon="9.228601438252026"><ele>304.0</ele><time>2026-04-12T09:37:46Z</time></trkpt><trkpt lat="45.76402459196777" lon="9.22864079228342"><ele>304.0</ele><time>2026-04-12T09:37:47Z</time></trkpt><trkpt lat="45.76422465468237" lon="9.228678046991654"><ele>303.66666666666663</ele><time>2026-04-12T09:37:48Z</time></trkpt><trkpt lat="45.76440392060309" lon="9.228713899631206"><ele>303.3333333333333</ele><time>2026-04-12T09:37:49Z</time></trkpt><trkpt lat="45.764569454881325" lon="9.228750262609708"><ele>303.0</ele><time>2026-04-12T09:37:50Z</time></trkpt><trkpt lat="45.76472608180112" lon="9.228785875654872"><ele>303.0</ele><time>2026-04-12T09:37:51Z</time></trkpt><trkpt lat="45.764878813119616" lon="9.228815586541376"><ele>303.0</ele><time>2026-04-12T09:37:52Z</time></trkpt><trkpt lat="45.76501688937781" lon="9.228841090569546"><ele>303.0</ele><time>2026-04-12T09:37:53Z</time></trkpt><trkpt lat="45.76512576722737" lon="9.228863384389989"><ele>303.0</ele><time>2026-04-12T09:37:54Z</time></trkpt><trkpt lat="45.76521714798638" lon="9.228882855125521"><ele>303.0</ele><time>2026-04-12T09:37:55Z</time></trkpt><trkpt lat="45.7652938656498" lon="9.228895824164637"><ele>303.0</ele><time>2026-04-12T09:37:56Z</time></trkpt><trkpt lat="45.765413252680865" lon="9.228917724945935"><ele>303.0</ele><time>2026-04-12T09:37:58Z</time></trkpt><trkpt lat="45.76553613787725" lon="9.228987400823605"><ele>303.0</ele><time>2026-04-12T09:38:00Z</time></trkpt><trkpt lat="45.765598517555304" lon="9.229054874990782"><ele>303.0</ele><time>2026-04-12T09:38:01Z</time></trkpt><trkpt lat="45.76565443926048" lon="9.229101806227673"><ele>303.0</ele><time>2026-04-12T09:38:02Z</time></trkpt><trkpt lat="45.76572129395025" lon="9.229127184380182"><ele>303.0</ele><time>2026-04-12T09:38:03Z</time></trkpt><trkpt lat="45.76579078429573" lon="9.229118137642542"><ele>303.0</ele><time>2026-04-12T09:38:04Z</time></trkpt><trkpt lat="45.76586938482495" lon="9.229078552427572"><ele>303.0</ele><time>2026-04-12T09:38:05Z</time></trkpt><trkpt lat="45.76593744085842" lon="9.229000715596767"><ele>303.0</ele><time>2026-04-12T09:38:06Z</time></trkpt><trkpt lat="45.766052923384" lon="9.22905257468202"><ele>303.0</ele><time>2026-04-12T09:38:07Z</time></trkpt><trkpt lat="45.76616187368021" lon="9.22907517688148"><ele>302.75</ele><time>2026-04-12T09:38:08Z</time></trkpt><trkpt lat="45.76628533051738" lon="9.22908281340069"><ele>302.5</ele><time>2026-04-12T09:38:09Z</time></trkpt><trkpt lat="45.766410963089434" lon="9.229119371058884"><ele>302.25</ele><time>2026-04-12T09:38:10Z</time></trkpt><trkpt lat="45.76654445532406" lon="9.229148816949595"><ele>302.0</ele><time>2026-04-12T09:38:11Z</time></trkpt><trkpt lat="45.76668545358589" lon="9.229179982224318"><ele>302.0</ele><time>2026-04-12T09:38:12Z</time></trkpt><trkpt lat="45.76682780280276" lon="9.22921051094646"><ele>302.0</ele><time>2026-04-12T09:38:13Z</time></trkpt><trkpt lat="45.76697619462808" lon="9.22923679008068"><ele>302.0</ele><time>2026-04-12T09:38:14Z</time></trkpt><trkpt lat="45.767129864675944" lon="9.229265633528033"><ele>302.0</ele><time>2026-04-12T09:38:15Z</time></trkpt><trkpt lat="45.76728045677636" lon="9.229299125617862"><ele>302.0</ele><time>2026-04-12T09:38:16Z</time></trkpt><trkpt lat="45.76742808816242" lon="9.229330136624496"><ele>302.0</ele><time>2026-04-12T09:38:17Z</time></trkpt><trkpt lat="45.76757389628426" lon="9.229359295340222"><ele>302.0</ele><time>2026-04-12T09:38:18Z</time></trkpt><trkpt lat="45.767711182852736" lon="9.229387561369018"><ele>302.0</ele><time>2026-04-12T09:38:19Z</time></trkpt><trkpt lat="45.76783557887348" lon="9.229414075943655"><ele>302.0</ele><time>2026-04-12T09:38:20Z</time></trkpt><trkpt lat="45.76795600097598" lon="9.229436250254501"><ele>302.0</ele><time>2026-04-12T09:38:21Z</time></trkpt><trkpt lat="45.76806490546582" lon="9.229456635130974"><ele>302.0</ele><time>2026-04-12T09:38:22Z</time></trkpt><trkpt lat="45.76816447905477" lon="9.229476829598891"><ele>302.0</ele><time>2026-04-12T09:38:23Z</time></trkpt><trkpt lat="45.768259084145434" lon="9.229497087302056"><ele>302.0</ele><time>2026-04-12T09:38:24Z</time></trkpt><trkpt lat="45.76834470388015" lon="9.229516095493127"><ele>302.0</ele><time>2026-04-12T09:38:25Z</time></trkpt><trkpt lat="45.76841488871131" lon="9.229535300277732"><ele>302.0</ele><time>2026-04-12T09:38:26Z</time></trkpt><trkpt lat="45.76851331466086" lon="9.229562187646964"><ele>302.0</ele><time>2026-04-12T09:38:28.001Z</time></trkpt><trkpt lat="45.76861214754238" lon="9.229577628253253"><ele>302.0</ele><time>2026-04-12T09:38:30.001Z</time></trkpt><trkpt lat="45.768748634159365" lon="9.229601101543487"><ele>302.0</ele><time>2026-04-12T09:38:32.001Z</time></trkpt><trkpt lat="45.76882348785875" lon="9.229615522742234"><ele>302.0</ele><time>2026-04-12T09:38:33.001Z</time></trkpt><trkpt lat="45.76890329519379" lon="9.229631408730294"><ele>302.0</ele><time>2026-04-12T09:38:34.001Z</time></trkpt><trkpt lat="45.76898546189383" lon="9.229650565409981"><ele>302.0</ele><time>2026-04-12T09:38:35.001Z</time></trkpt><trkpt lat="45.76906593269743" lon="9.229673120620983"><ele>302.0</ele><time>2026-04-12T09:38:36.001Z</time></trkpt><trkpt lat="45.76915137812202" lon="9.229692508491187"><ele>302.0</ele><time>2026-04-12T09:38:37.001Z</time></trkpt><trkpt lat="45.7692446006981" lon="9.229711859922602"><ele>302.0</ele><time>2026-04-12T09:38:38.001Z</time></trkpt><trkpt lat="45.76933910626448" lon="9.229730385630932"><ele>302.5</ele><time>2026-04-12T09:38:39.001Z</time></trkpt><trkpt lat="45.76944556136976" lon="9.229746285801964"><ele>303.0</ele><time>2026-04-12T09:38:40.001Z</time></trkpt><trkpt lat="45.769560154142646" lon="9.22976772875106"><ele>303.5</ele><time>2026-04-12T09:38:41.001Z</time></trkpt><trkpt lat="45.76968118548682" lon="9.229798724824786"><ele>304.0</ele><time>2026-04-12T09:38:42.001Z</time></trkpt><trkpt lat="45.76980943737798" lon="9.229827908957123"><ele>304.0</ele><time>2026-04-12T09:38:43.001Z</time></trkpt><trkpt lat="45.76994904875903" lon="9.22985932009882"><ele>304.0</ele><time>2026-04-12T09:38:44.001Z</time></trkpt><trkpt lat="45.77011473893746" lon="9.229894332660447"><ele>304.0</ele><time>2026-04-12T09:38:45.001Z</time></trkpt><trkpt lat="45.77029509609074" lon="9.2299317773778"><ele>304.66666666666663</ele><time>2026-04-12T09:38:46.001Z</time></trkpt><trkpt lat="45.770498704676065" lon="9.229971738660675"><ele>305.3333333333333</ele><time>2026-04-12T09:38:47.001Z</time></trkpt><trkpt lat="45.770704829633026" lon="9.230011565382288"><ele>306.0</ele><time>2026-04-12T09:38:48.001Z</time></trkpt><trkpt lat="45.770892959422405" lon="9.230052120260515"><ele>307.6666666666667</ele><time>2026-04-12T09:38:49.001Z</time></trkpt><trkpt lat="45.7710605594661" lon="9.230088794062855"><ele>309.33333333333337</ele><time>2026-04-12T09:38:50.001Z</time></trkpt><trkpt lat="45.77120506569423" lon="9.23011447534865"><ele>311.0</ele><time>2026-04-12T09:38:51.001Z</time></trkpt><trkpt lat="45.77135880596246" lon="9.230135702555803"><ele>311.0</ele><time>2026-04-12T09:38:52.001Z</time></trkpt><trkpt lat="45.771508562003625" lon="9.230148425396184"><ele>311.0</ele><time>2026-04-12T09:38:53.001Z</time></trkpt><trkpt lat="45.77165260804668" lon="9.230155995546896"><ele>311.0</ele><time>2026-04-12T09:38:54.001Z</time></trkpt><trkpt lat="45.7718088363241" lon="9.230164497027843"><ele>310.75</ele><time>2026-04-12T09:38:55.001Z</time></trkpt><trkpt lat="45.771946933245836" lon="9.23017380642863"><ele>310.5</ele><time>2026-04-12T09:38:56.001Z</time></trkpt><trkpt lat="45.7720766644148" lon="9.230178469653888"><ele>310.25</ele><time>2026-04-12T09:38:57.001Z</time></trkpt><trkpt lat="45.77221684976273" lon="9.23018330805055"><ele>310.0</ele><time>2026-04-12T09:38:58.001Z</time></trkpt><trkpt lat="45.77235998874824" lon="9.230183223084879"><ele>310.0</ele><time>2026-04-12T09:38:59.001Z</time></trkpt><trkpt lat="45.77250857025012" lon="9.230182500855308"><ele>310.0</ele><time>2026-04-12T09:39:00.001Z</time></trkpt><trkpt lat="45.77265874031212" lon="9.230178949495693"><ele>310.0</ele><time>2026-04-12T09:39:01.001Z</time></trkpt><trkpt lat="45.77281214579521" lon="9.230173601834615"><ele>309.3333333333333</ele><time>2026-04-12T09:39:02.001Z</time></trkpt><trkpt lat="45.77297027487446" lon="9.230167032729556"><ele>308.6666666666667</ele><time>2026-04-12T09:39:03.001Z</time></trkpt><trkpt lat="45.773130400906794" lon="9.230156453827863"><ele>308.0</ele><time>2026-04-12T09:39:04.001Z</time></trkpt><trkpt lat="45.77329420203983" lon="9.230151493601257"><ele>308.0</ele><time>2026-04-12T09:39:05.001Z</time></trkpt><trkpt lat="45.77346217863616" lon="9.230149630168619"><ele>308.0</ele><time>2026-04-12T09:39:06.001Z</time></trkpt><trkpt lat="45.77362596377317" lon="9.230150731707775"><ele>308.0</ele><time>2026-04-12T09:39:07.001Z</time></trkpt><trkpt lat="45.77379273139186" lon="9.230155561431449"><ele>308.0</ele><time>2026-04-12T09:39:07.999Z</time></trkpt><trkpt lat="45.77396585759113" lon="9.230160719244553"><ele>308.0</ele><time>2026-04-12T09:39:08.999Z</time></trkpt><trkpt lat="45.77414145133063" lon="9.230165580770931"><ele>308.0</ele><time>2026-04-12T09:39:09.999Z</time></trkpt><trkpt lat="45.77431584981689" lon="9.230169497378819"><ele>308.0</ele><time>2026-04-12T09:39:10.999Z</time></trkpt><trkpt lat="45.774488247268586" lon="9.230170204952062"><ele>308.0</ele><time>2026-04-12T09:39:11.999Z</time></trkpt><trkpt lat="45.77466265606131" lon="9.230175061244964"><ele>308.0</ele><time>2026-04-12T09:39:12.999Z</time></trkpt><trkpt lat="45.774828636449726" lon="9.230178328357633"><ele>308.0</ele><time>2026-04-12T09:39:13.999Z</time></trkpt><trkpt lat="45.774974600572584" lon="9.23018257771561"><ele>308.0</ele><time>2026-04-12T09:39:14.999Z</time></trkpt><trkpt lat="45.77511563326689" lon="9.230187733389347"><ele>308.0</ele><time>2026-04-12T09:39:15.999Z</time></trkpt><trkpt lat="45.77524789132658" lon="9.23019073380734"><ele>308.0</ele><time>2026-04-12T09:39:16.999Z</time></trkpt><trkpt lat="45.77538290940371" lon="9.230192272216632"><ele>307.75</ele><time>2026-04-12T09:39:17.999Z</time></trkpt><trkpt lat="45.77551724936235" lon="9.2301944353948"><ele>307.5</ele><time>2026-04-12T09:39:18.999Z</time></trkpt><trkpt lat="45.775652881786705" lon="9.230204615920274"><ele>307.25</ele><time>2026-04-12T09:39:19.999Z</time></trkpt><trkpt lat="45.77578891759059" lon="9.230213609962899"><ele>307.0</ele><time>2026-04-12T09:39:20.999Z</time></trkpt><trkpt lat="45.77592991979301" lon="9.23022832113612"><ele>309.0</ele><time>2026-04-12T09:39:21.999Z</time></trkpt><trkpt lat="45.77607228867966" lon="9.23026380733068"><ele>311.0</ele><time>2026-04-12T09:39:22.999Z</time></trkpt><trkpt lat="45.77621645036023" lon="9.230315022627357"><ele>313.0</ele><time>2026-04-12T09:39:23.999Z</time></trkpt><trkpt lat="45.77636605259043" lon="9.230379434917504"><ele>315.0</ele><time>2026-04-12T09:39:24.999Z</time></trkpt><trkpt lat="45.77651301617853" lon="9.23046271606205"><ele>315.0</ele><time>2026-04-12T09:39:25.999Z</time></trkpt><trkpt lat="45.77665759840922" lon="9.230555706173545"><ele>315.0</ele><time>2026-04-12T09:39:26.999Z</time></trkpt><trkpt lat="45.7767913836212" lon="9.230660693791169"><ele>315.0</ele><time>2026-04-12T09:39:27.999Z</time></trkpt><trkpt lat="45.77692084948476" lon="9.230775998032948"><ele>313.5</ele><time>2026-04-12T09:39:28.999Z</time></trkpt><trkpt lat="45.77704741315184" lon="9.23089609851762"><ele>312.0</ele><time>2026-04-12T09:39:29.999Z</time></trkpt><trkpt lat="45.777163630299704" lon="9.231031924602476"><ele>310.5</ele><time>2026-04-12T09:39:30.999Z</time></trkpt><trkpt lat="45.7772691133637" lon="9.231175052925316"><ele>309.0</ele><time>2026-04-12T09:39:31.999Z</time></trkpt><trkpt lat="45.77737084990007" lon="9.231333116779245"><ele>306.0</ele><time>2026-04-12T09:39:32.999Z</time></trkpt><trkpt lat="45.77746983084615" lon="9.231500694111554"><ele>303.0</ele><time>2026-04-12T09:39:33.999Z</time></trkpt><trkpt lat="45.77756551375549" lon="9.231677909900382"><ele>300.0</ele><time>2026-04-12T09:39:34.999Z</time></trkpt><trkpt lat="45.77765535038947" lon="9.231857029043452"><ele>300.5</ele><time>2026-04-12T09:39:35.999Z</time></trkpt><trkpt lat="45.777734544602836" lon="9.232037883993316"><ele>301.0</ele><time>2026-04-12T09:39:36.999Z</time></trkpt><trkpt lat="45.77781003654465" lon="9.232217168454987"><ele>301.5</ele><time>2026-04-12T09:39:37.999Z</time></trkpt><trkpt lat="45.77788021974023" lon="9.232397724439563"><ele>302.0</ele><time>2026-04-12T09:39:38.999Z</time></trkpt><trkpt lat="45.77794869354541" lon="9.232587985608609"><ele>302.0</ele><time>2026-04-12T09:39:39.999Z</time></trkpt><trkpt lat="45.778014225141476" lon="9.232793133034987"><ele>302.0</ele><time>2026-04-12T09:39:41Z</time></trkpt><trkpt lat="45.778079012778946" lon="9.233007483773106"><ele>302.0</ele><time>2026-04-12T09:39:42Z</time></trkpt><trkpt lat="45.778146533899246" lon="9.23322127339165"><ele>301.33333333333337</ele><time>2026-04-12T09:39:43Z</time></trkpt><trkpt lat="45.77822867545709" lon="9.233434396885203"><ele>300.6666666666667</ele><time>2026-04-12T09:39:44Z</time></trkpt><trkpt lat="45.77832168804023" lon="9.233627904300567"><ele>300.0</ele><time>2026-04-12T09:39:45Z</time></trkpt><trkpt lat="45.77842374677529" lon="9.233823004751901"><ele>301.6666666666667</ele><time>2026-04-12T09:39:46Z</time></trkpt><trkpt lat="45.77852122692072" lon="9.234030790093954"><ele>303.33333333333337</ele><time>2026-04-12T09:39:47Z</time></trkpt><trkpt lat="45.7786152850769" lon="9.234240342522392"><ele>305.0</ele><time>2026-04-12T09:39:48Z</time></trkpt><trkpt lat="45.77871513528429" lon="9.234451912440866"><ele>305.0</ele><time>2026-04-12T09:39:49Z</time></trkpt><trkpt lat="45.77881555185412" lon="9.234671686331918"><ele>305.0</ele><time>2026-04-12T09:39:50Z</time></trkpt><trkpt lat="45.77891282940798" lon="9.234894735257411"><ele>305.0</ele><time>2026-04-12T09:39:51Z</time></trkpt><trkpt lat="45.77901620558774" lon="9.23511138875213"><ele>302.33333333333337</ele><time>2026-04-12T09:39:52Z</time></trkpt><trkpt lat="45.77911749294686" lon="9.235323038858692"><ele>299.6666666666667</ele><time>2026-04-12T09:39:53Z</time></trkpt><trkpt lat="45.77921834201906" lon="9.235533828783256"><ele>297.0</ele><time>2026-04-12T09:39:54Z</time></trkpt><trkpt lat="45.779323455663004" lon="9.235748136408128"><ele>292.6666666666667</ele><time>2026-04-12T09:39:55Z</time></trkpt><trkpt lat="45.779429196077054" lon="9.235949578395815"><ele>288.33333333333337</ele><time>2026-04-12T09:39:56Z</time></trkpt><trkpt lat="45.779548553114765" lon="9.236145677705377"><ele>284.0</ele><time>2026-04-12T09:39:57Z</time></trkpt><trkpt lat="45.77967654139078" lon="9.236328198582317"><ele>283.6666666666667</ele><time>2026-04-12T09:39:58Z</time></trkpt><trkpt lat="45.779814582345324" lon="9.236498993863538"><ele>283.3333333333333</ele><time>2026-04-12T09:39:59Z</time></trkpt><trkpt lat="45.77996604555522" lon="9.236656566563026"><ele>283.0</ele><time>2026-04-12T09:40:00Z</time></trkpt><trkpt lat="45.78011984138789" lon="9.236799064663446"><ele>283.0</ele><time>2026-04-12T09:40:01Z</time></trkpt><trkpt lat="45.78028048385201" lon="9.236936025704264"><ele>283.0</ele><time>2026-04-12T09:40:02Z</time></trkpt><trkpt lat="45.780446547704926" lon="9.237068524249507"><ele>283.0</ele><time>2026-04-12T09:40:03Z</time></trkpt><trkpt lat="45.78061358345891" lon="9.237181706620971"><ele>283.0</ele><time>2026-04-12T09:40:04Z</time></trkpt><trkpt lat="45.78079060965166" lon="9.23727604234338"><ele>283.0</ele><time>2026-04-12T09:40:05Z</time></trkpt><trkpt lat="45.78096400195466" lon="9.237364407882282"><ele>283.0</ele><time>2026-04-12T09:40:06Z</time></trkpt><trkpt lat="45.78113214388267" lon="9.2374484277397"><ele>282.3333333333333</ele><time>2026-04-12T09:40:07Z</time></trkpt><trkpt lat="45.781287621659885" lon="9.237527581183917"><ele>281.6666666666667</ele><time>2026-04-12T09:40:08Z</time></trkpt><trkpt lat="45.7814429133381" lon="9.237610712439654"><ele>281.0</ele><time>2026-04-12T09:40:09Z</time></trkpt><trkpt lat="45.781591839826255" lon="9.237700654640447"><ele>281.0</ele><time>2026-04-12T09:40:10Z</time></trkpt><trkpt lat="45.78173783114697" lon="9.237781643636584"><ele>281.0</ele><time>2026-04-12T09:40:11Z</time></trkpt><trkpt lat="45.78187861013014" lon="9.237864251971537"><ele>281.0</ele><time>2026-04-12T09:40:12Z</time></trkpt><trkpt lat="45.782028846169624" lon="9.237943501664699"><ele>281.0</ele><time>2026-04-12T09:40:13Z</time></trkpt><trkpt lat="45.78217896324955" lon="9.238028859236435"><ele>281.0</ele><time>2026-04-12T09:40:14Z</time></trkpt><trkpt lat="45.78233535136585" lon="9.238117317189765"><ele>281.0</ele><time>2026-04-12T09:40:15Z</time></trkpt><trkpt lat="45.782499933965255" lon="9.238205849061663"><ele>281.0</ele><time>2026-04-12T09:40:16Z</time></trkpt><trkpt lat="45.78266397770468" lon="9.238289833270924"><ele>281.0</ele><time>2026-04-12T09:40:17Z</time></trkpt><trkpt lat="45.78282441860941" lon="9.238376187008651"><ele>281.0</ele><time>2026-04-12T09:40:18Z</time></trkpt><trkpt lat="45.78298820703354" lon="9.238463626593"><ele>281.0</ele><time>2026-04-12T09:40:19Z</time></trkpt><trkpt lat="45.7831421576831" lon="9.238555572875345"><ele>281.0</ele><time>2026-04-12T09:40:20Z</time></trkpt><trkpt lat="45.783299329050855" lon="9.23864610828561"><ele>281.0</ele><time>2026-04-12T09:40:21Z</time></trkpt><trkpt lat="45.78345633735198" lon="9.238733611186605"><ele>281.0</ele><time>2026-04-12T09:40:22Z</time></trkpt><trkpt lat="45.78361183110056" lon="9.238822959442155"><ele>281.0</ele><time>2026-04-12T09:40:23.001Z</time></trkpt><trkpt lat="45.783765302647076" lon="9.23892218345463"><ele>281.0</ele><time>2026-04-12T09:40:24.001Z</time></trkpt><trkpt lat="45.78392088289206" lon="9.239027563179016"><ele>281.0</ele><time>2026-04-12T09:40:25.001Z</time></trkpt><trkpt lat="45.78407294204961" lon="9.239147555225887"><ele>281.0</ele><time>2026-04-12T09:40:26.001Z</time></trkpt><trkpt lat="45.78421866773203" lon="9.239271986342589"><ele>281.0</ele><time>2026-04-12T09:40:27.001Z</time></trkpt><trkpt lat="45.784364281028274" lon="9.239405848089802"><ele>279.33333333333337</ele><time>2026-04-12T09:40:28.001Z</time></trkpt><trkpt lat="45.78450105878351" lon="9.239548011551106"><ele>277.6666666666667</ele><time>2026-04-12T09:40:29.001Z</time></trkpt><trkpt lat="45.78463717637077" lon="9.239696745834268"><ele>276.0</ele><time>2026-04-12T09:40:30.001Z</time></trkpt><trkpt lat="45.78476400801416" lon="9.239859808173932"><ele>275.6666666666667</ele><time>2026-04-12T09:40:31.001Z</time></trkpt><trkpt lat="45.78488490356874" lon="9.240027085074145"><ele>275.33333333333337</ele><time>2026-04-12T09:40:32.001Z</time></trkpt><trkpt lat="45.78500849883067" lon="9.240197682663094"><ele>275.0</ele><time>2026-04-12T09:40:33.001Z</time></trkpt><trkpt lat="45.78513800057349" lon="9.24036767034565"><ele>272.6666666666667</ele><time>2026-04-12T09:40:34.001Z</time></trkpt><trkpt lat="45.78526663624155" lon="9.2405309689382"><ele>270.3333333333333</ele><time>2026-04-12T09:40:35.001Z</time></trkpt><trkpt lat="45.78539823734972" lon="9.240702548447032"><ele>268.0</ele><time>2026-04-12T09:40:36.001Z</time></trkpt><trkpt lat="45.785534598463734" lon="9.240876377154912"><ele>267.66666666666663</ele><time>2026-04-12T09:40:37.001Z</time></trkpt><trkpt lat="45.785665253797525" lon="9.241052432604608"><ele>267.3333333333333</ele><time>2026-04-12T09:40:38.001Z</time></trkpt><trkpt lat="45.78579181112714" lon="9.241228892152483"><ele>267.0</ele><time>2026-04-12T09:40:39.001Z</time></trkpt><trkpt lat="45.785923833300934" lon="9.241401890541502"><ele>265.6666666666667</ele><time>2026-04-12T09:40:40.001Z</time></trkpt><trkpt lat="45.78606071539733" lon="9.24157444951765"><ele>264.33333333333337</ele><time>2026-04-12T09:40:41.001Z</time></trkpt><trkpt lat="45.786200221758236" lon="9.241733898881943"><ele>263.0</ele><time>2026-04-12T09:40:42.001Z</time></trkpt><trkpt lat="45.786347985365204" lon="9.241876060758939"><ele>263.0</ele><time>2026-04-12T09:40:43.001Z</time></trkpt><trkpt lat="45.78650964969824" lon="9.241997842260028"><ele>263.0</ele><time>2026-04-12T09:40:44.001Z</time></trkpt><trkpt lat="45.786678518079704" lon="9.242110379720133"><ele>263.0</ele><time>2026-04-12T09:40:45.001Z</time></trkpt><trkpt lat="45.78684890924236" lon="9.242204519974052"><ele>262.6666666666667</ele><time>2026-04-12T09:40:46.001Z</time></trkpt><trkpt lat="45.78702502165281" lon="9.242285648332793"><ele>262.3333333333333</ele><time>2026-04-12T09:40:47.001Z</time></trkpt><trkpt lat="45.78719775935804" lon="9.242351452337845"><ele>262.0</ele><time>2026-04-12T09:40:48.001Z</time></trkpt><trkpt lat="45.787385279163345" lon="9.242411049307934"><ele>262.0</ele><time>2026-04-12T09:40:49.001Z</time></trkpt><trkpt lat="45.78755683315062" lon="9.242478273656976"><ele>262.0</ele><time>2026-04-12T09:40:50.001Z</time></trkpt><trkpt lat="45.78773352347396" lon="9.242538964781337"><ele>262.0</ele><time>2026-04-12T09:40:51.001Z</time></trkpt><trkpt lat="45.78790380687183" lon="9.242604266519129"><ele>262.0</ele><time>2026-04-12T09:40:52.001Z</time></trkpt><trkpt lat="45.788070282942044" lon="9.242669158641466"><ele>262.0</ele><time>2026-04-12T09:40:53.001Z</time></trkpt><trkpt lat="45.78823056279008" lon="9.242725382019414"><ele>262.0</ele><time>2026-04-12T09:40:54.001Z</time></trkpt><trkpt lat="45.788385640841355" lon="9.24278382592685"><ele>262.0</ele><time>2026-04-12T09:40:55.001Z</time></trkpt><trkpt lat="45.788543856903175" lon="9.242842497265192"><ele>262.0</ele><time>2026-04-12T09:40:56.001Z</time></trkpt><trkpt lat="45.788702717925794" lon="9.242902611698403"><ele>262.0</ele><time>2026-04-12T09:40:57.001Z</time></trkpt><trkpt lat="45.78887001368334" lon="9.24296088261968"><ele>262.0</ele><time>2026-04-12T09:40:58.001Z</time></trkpt><trkpt lat="45.78903585118124" lon="9.243021305075734"><ele>262.0</ele><time>2026-04-12T09:40:59.001Z</time></trkpt><trkpt lat="45.78921491310032" lon="9.243084800846647"><ele>262.0</ele><time>2026-04-12T09:41:00.001Z</time></trkpt><trkpt lat="45.78939982936305" lon="9.24315050149466"><ele>261.3333333333333</ele><time>2026-04-12T09:41:01.001Z</time></trkpt><trkpt lat="45.78959083256522" lon="9.243219172256971"><ele>260.6666666666667</ele><time>2026-04-12T09:41:02.001Z</time></trkpt><trkpt lat="45.78978189397119" lon="9.243288697300702"><ele>260.0</ele><time>2026-04-12T09:41:03.001Z</time></trkpt><trkpt lat="45.7899671582005" lon="9.243358624249733"><ele>260.0</ele><time>2026-04-12T09:41:04.001Z</time></trkpt><trkpt lat="45.79015881680187" lon="9.243428184891483"><ele>260.0</ele><time>2026-04-12T09:41:05.001Z</time></trkpt><trkpt lat="45.790364566110235" lon="9.24349934940788"><ele>260.0</ele><time>2026-04-12T09:41:06.001Z</time></trkpt><trkpt lat="45.79054442632676" lon="9.243574155796416"><ele>260.33333333333337</ele><time>2026-04-12T09:41:07.001Z</time></trkpt><trkpt lat="45.7907178071374" lon="9.243643578203057"><ele>260.6666666666667</ele><time>2026-04-12T09:41:08.001Z</time></trkpt><trkpt lat="45.79087521948623" lon="9.243701665546176"><ele>261.0</ele><time>2026-04-12T09:41:09.001Z</time></trkpt><trkpt lat="45.7910312029015" lon="9.243757519137011"><ele>261.0</ele><time>2026-04-12T09:41:10.001Z</time></trkpt><trkpt lat="45.79117944971144" lon="9.24380386321161"><ele>261.0</ele><time>2026-04-12T09:41:11.001Z</time></trkpt><trkpt lat="45.79133557033932" lon="9.24383728899767"><ele>261.0</ele><time>2026-04-12T09:41:12.002Z</time></trkpt><trkpt lat="45.79149085130892" lon="9.24385075822122"><ele>261.0</ele><time>2026-04-12T09:41:13.002Z</time></trkpt><trkpt lat="45.791644764041514" lon="9.243840519555821"><ele>261.0</ele><time>2026-04-12T09:41:13.999Z</time></trkpt><trkpt lat="45.79179840768798" lon="9.24381197708078"><ele>261.0</ele><time>2026-04-12T09:41:14.999Z</time></trkpt><trkpt lat="45.79195489511874" lon="9.243780484679784"><ele>262.0</ele><time>2026-04-12T09:41:15.999Z</time></trkpt><trkpt lat="45.79210368018735" lon="9.243722191330994"><ele>263.0</ele><time>2026-04-12T09:41:16.999Z</time></trkpt><trkpt lat="45.79225443754439" lon="9.243646968252266"><ele>264.0</ele><time>2026-04-12T09:41:17.999Z</time></trkpt><trkpt lat="45.79239969280095" lon="9.243556747177662"><ele>264.0</ele><time>2026-04-12T09:41:18.999Z</time></trkpt><trkpt lat="45.79254115789379" lon="9.24345782892626"><ele>264.0</ele><time>2026-04-12T09:41:19.999Z</time></trkpt><trkpt lat="45.79268249023903" lon="9.243354408686889"><ele>264.0</ele><time>2026-04-12T09:41:20.999Z</time></trkpt><trkpt lat="45.79281437055865" lon="9.243257955190007"><ele>263.75</ele><time>2026-04-12T09:41:21.999Z</time></trkpt><trkpt lat="45.79294859786387" lon="9.243161735545803"><ele>263.5</ele><time>2026-04-12T09:41:22.999Z</time></trkpt><trkpt lat="45.79307919242029" lon="9.243083194756824"><ele>263.25</ele><time>2026-04-12T09:41:23.999Z</time></trkpt><trkpt lat="45.793202158242195" lon="9.243004082447555"><ele>263.0</ele><time>2026-04-12T09:41:24.999Z</time></trkpt><trkpt lat="45.79332429779835" lon="9.242917816151424"><ele>263.0</ele><time>2026-04-12T09:41:25.999Z</time></trkpt><trkpt lat="45.79344486739496" lon="9.242836696471088"><ele>263.0</ele><time>2026-04-12T09:41:26.999Z</time></trkpt><trkpt lat="45.7935664115219" lon="9.242750821943588"><ele>263.0</ele><time>2026-04-12T09:41:27.999Z</time></trkpt><trkpt lat="45.79368258225869" lon="9.242671236230356"><ele>263.0</ele><time>2026-04-12T09:41:28.999Z</time></trkpt><trkpt lat="45.793802390426734" lon="9.242587613153995"><ele>263.0</ele><time>2026-04-12T09:41:29.999Z</time></trkpt><trkpt lat="45.79391952850995" lon="9.242506789608228"><ele>263.0</ele><time>2026-04-12T09:41:30.999Z</time></trkpt><trkpt lat="45.7940365760831" lon="9.242426866595192"><ele>263.0</ele><time>2026-04-12T09:41:31.999Z</time></trkpt><trkpt lat="45.794146513290414" lon="9.242350449228743"><ele>263.0</ele><time>2026-04-12T09:41:32.999Z</time></trkpt><trkpt lat="45.7942542174907" lon="9.242276732633881"><ele>263.2</ele><time>2026-04-12T09:41:33.999Z</time></trkpt><trkpt lat="45.79435755556612" lon="9.242206313630113"><ele>263.4</ele><time>2026-04-12T09:41:34.999Z</time></trkpt><trkpt lat="45.79444980057253" lon="9.242140898979999"><ele>263.59999999999997</ele><time>2026-04-12T09:41:35.999Z</time></trkpt><trkpt lat="45.79453509376749" lon="9.242079966741475"><ele>263.8</ele><time>2026-04-12T09:41:36.999Z</time></trkpt><trkpt lat="45.79461777727415" lon="9.242022737087316"><ele>264.0</ele><time>2026-04-12T09:41:37.999Z</time></trkpt><trkpt lat="45.79469739935478" lon="9.24196568043507"><ele>264.0</ele><time>2026-04-12T09:41:38.999Z</time></trkpt><trkpt lat="45.7947730737943" lon="9.241914103630055"><ele>264.0</ele><time>2026-04-12T09:41:39.999Z</time></trkpt><trkpt lat="45.79484646731399" lon="9.24186954092716"><ele>264.0</ele><time>2026-04-12T09:41:40.999Z</time></trkpt><trkpt lat="45.794906812952796" lon="9.241833531454446"><ele>264.0</ele><time>2026-04-12T09:41:42Z</time></trkpt><trkpt lat="45.79498399903042" lon="9.241787629163165"><ele>264.0</ele><time>2026-04-12T09:41:44Z</time></trkpt><trkpt lat="45.79509267010057" lon="9.241737591324618"><ele>264.0</ele><time>2026-04-12T09:41:46Z</time></trkpt><trkpt lat="45.79515797856179" lon="9.24170048317398"><ele>264.0</ele><time>2026-04-12T09:41:47Z</time></trkpt><trkpt lat="45.79522126322357" lon="9.241656632703076"><ele>264.0</ele><time>2026-04-12T09:41:48Z</time></trkpt><trkpt lat="45.79529111438673" lon="9.241586227929734"><ele>264.0</ele><time>2026-04-12T09:41:49Z</time></trkpt><trkpt lat="45.795374537817516" lon="9.241518041517075"><ele>264.0</ele><time>2026-04-12T09:41:50Z</time></trkpt><trkpt lat="45.79547074477094" lon="9.241456087622506"><ele>264.0</ele><time>2026-04-12T09:41:51Z</time></trkpt><trkpt lat="45.79558637972791" lon="9.24138622049929"><ele>264.3333333333333</ele><time>2026-04-12T09:41:52Z</time></trkpt><trkpt lat="45.795716593369384" lon="9.241289938478479"><ele>264.66666666666663</ele><time>2026-04-12T09:41:53Z</time></trkpt><trkpt lat="45.795849412977034" lon="9.241167472225568"><ele>265.0</ele><time>2026-04-12T09:41:54Z</time></trkpt><trkpt lat="45.795993474446426" lon="9.24103433785521"><ele>265.25</ele><time>2026-04-12T09:41:55Z</time></trkpt><trkpt lat="45.796126360657205" lon="9.240936581801067"><ele>265.5</ele><time>2026-04-12T09:41:56Z</time></trkpt><trkpt lat="45.7962567081924" lon="9.240853036183344"><ele>265.75</ele><time>2026-04-12T09:41:57Z</time></trkpt><trkpt lat="45.79637752688686" lon="9.24076794761409"><ele>266.0</ele><time>2026-04-12T09:41:58Z</time></trkpt><trkpt lat="45.7964869622959" lon="9.240692647004755"><ele>266.0</ele><time>2026-04-12T09:41:59Z</time></trkpt><trkpt lat="45.79658814345365" lon="9.240621658601354"><ele>266.0</ele><time>2026-04-12T09:42:00Z</time></trkpt><trkpt lat="45.79671099998718" lon="9.24054090882162"><ele>266.0</ele><time>2026-04-12T09:42:01Z</time></trkpt><trkpt lat="45.79682120579752" lon="9.24046639363696"><ele>266.0</ele><time>2026-04-12T09:42:02Z</time></trkpt><trkpt lat="45.796935217810166" lon="9.240389019209745"><ele>266.25</ele><time>2026-04-12T09:42:03Z</time></trkpt><trkpt lat="45.797050855644095" lon="9.240310547589493"><ele>266.5</ele><time>2026-04-12T09:42:04Z</time></trkpt><trkpt lat="45.797167298915966" lon="9.240232035262942"><ele>266.75</ele><time>2026-04-12T09:42:05Z</time></trkpt><trkpt lat="45.79729367547023" lon="9.240145682731628"><ele>267.0</ele><time>2026-04-12T09:42:06Z</time></trkpt><trkpt lat="45.797416149615415" lon="9.240059230683396"><ele>267.0</ele><time>2026-04-12T09:42:07Z</time></trkpt><trkpt lat="45.79754533244309" lon="9.239963157818478"><ele>267.0</ele><time>2026-04-12T09:42:08Z</time></trkpt><trkpt lat="45.79767950917522" lon="9.239866590861169"><ele>267.0</ele><time>2026-04-12T09:42:09Z</time></trkpt><trkpt lat="45.797812595214275" lon="9.239769647679513"><ele>267.0</ele><time>2026-04-12T09:42:10Z</time></trkpt><trkpt lat="45.79794550038141" lon="9.23967215330128"><ele>267.0</ele><time>2026-04-12T09:42:11Z</time></trkpt><trkpt lat="45.79807799110358" lon="9.239580683955307"><ele>267.0</ele><time>2026-04-12T09:42:12Z</time></trkpt><trkpt lat="45.79822352823824" lon="9.239482164486295"><ele>267.0</ele><time>2026-04-12T09:42:13Z</time></trkpt><trkpt lat="45.798363968399315" lon="9.239389315200013"><ele>268.0</ele><time>2026-04-12T09:42:14Z</time></trkpt><trkpt lat="45.79850292517296" lon="9.239286869519265"><ele>269.0</ele><time>2026-04-12T09:42:15Z</time></trkpt><trkpt lat="45.79864381916127" lon="9.239191101695999"><ele>270.0</ele><time>2026-04-12T09:42:16Z</time></trkpt><trkpt lat="45.798782970247515" lon="9.23909697048572"><ele>270.0</ele><time>2026-04-12T09:42:17Z</time></trkpt><trkpt lat="45.79891854533366" lon="9.239007141979467"><ele>270.0</ele><time>2026-04-12T09:42:18Z</time></trkpt><trkpt lat="45.79905338186374" lon="9.238911694913416"><ele>270.0</ele><time>2026-04-12T09:42:19Z</time></trkpt><trkpt lat="45.7991887387782" lon="9.238824841634269"><ele>270.0</ele><time>2026-04-12T09:42:20Z</time></trkpt><trkpt lat="45.79932315423402" lon="9.238737085594801"><ele>270.0</ele><time>2026-04-12T09:42:21.001Z</time></trkpt><trkpt lat="45.79946048545227" lon="9.23863941650295"><ele>270.0</ele><time>2026-04-12T09:42:22.001Z</time></trkpt><trkpt lat="45.79959171142484" lon="9.238550488240932"><ele>270.0</ele><time>2026-04-12T09:42:23.001Z</time></trkpt><trkpt lat="45.799719056318196" lon="9.238462640733289"><ele>270.0</ele><time>2026-04-12T09:42:24.001Z</time></trkpt><trkpt lat="45.79984316418489" lon="9.238376023063259"><ele>270.0</ele><time>2026-04-12T09:42:25.001Z</time></trkpt><trkpt lat="45.799972582327" lon="9.238301086415817"><ele>270.0</ele><time>2026-04-12T09:42:26.001Z</time></trkpt><trkpt lat="45.80009425413438" lon="9.238209220522977"><ele>270.0</ele><time>2026-04-12T09:42:27.001Z</time></trkpt><trkpt lat="45.80021789478451" lon="9.238113149726757"><ele>270.0</ele><time>2026-04-12T09:42:28.001Z</time></trkpt><trkpt lat="45.80033504536103" lon="9.238042600697717"><ele>270.25</ele><time>2026-04-12T09:42:29.001Z</time></trkpt><trkpt lat="45.80045425207676" lon="9.237951738272706"><ele>270.5</ele><time>2026-04-12T09:42:30.001Z</time></trkpt><trkpt lat="45.800571082303044" lon="9.237872218432033"><ele>270.75</ele><time>2026-04-12T09:42:31.001Z</time></trkpt><trkpt lat="45.80068251808847" lon="9.237806324904762"><ele>271.0</ele><time>2026-04-12T09:42:32.001Z</time></trkpt><trkpt lat="45.800790879772684" lon="9.237727836321211"><ele>271.0</ele><time>2026-04-12T09:42:33.001Z</time></trkpt><trkpt lat="45.80089597523768" lon="9.23766500965069"><ele>271.0</ele><time>2026-04-12T09:42:34.001Z</time></trkpt><trkpt lat="45.80100247524927" lon="9.23758761776062"><ele>271.0</ele><time>2026-04-12T09:42:35.001Z</time></trkpt><trkpt lat="45.80110527414844" lon="9.237523569059494"><ele>271.0</ele><time>2026-04-12T09:42:36.001Z</time></trkpt><trkpt lat="45.80120640505788" lon="9.23745368319887"><ele>271.0</ele><time>2026-04-12T09:42:37.001Z</time></trkpt><trkpt lat="45.8013028443008" lon="9.23738626296085"><ele>271.0</ele><time>2026-04-12T09:42:38.001Z</time></trkpt><trkpt lat="45.80139370914458" lon="9.237324437268379"><ele>271.0</ele><time>2026-04-12T09:42:39.001Z</time></trkpt><trkpt lat="45.80148138360002" lon="9.237267507520404"><ele>271.0</ele><time>2026-04-12T09:42:40.001Z</time></trkpt><trkpt lat="45.80156843688553" lon="9.237210303701115"><ele>271.0</ele><time>2026-04-12T09:42:41.001Z</time></trkpt><trkpt lat="45.80165820095172" lon="9.2371516721887"><ele>271.2</ele><time>2026-04-12T09:42:42.001Z</time></trkpt><trkpt lat="45.801747365496475" lon="9.237098123353412"><ele>271.40000000000003</ele><time>2026-04-12T09:42:43.001Z</time></trkpt><trkpt lat="45.80183990363095" lon="9.23704567128902"><ele>271.6</ele><time>2026-04-12T09:42:44.001Z</time></trkpt><trkpt lat="45.80193699657898" lon="9.237003830586406"><ele>271.8</ele><time>2026-04-12T09:42:45.001Z</time></trkpt><trkpt lat="45.80203735655395" lon="9.23696829282162"><ele>272.0</ele><time>2026-04-12T09:42:46.001Z</time></trkpt><trkpt lat="45.8021401460272" lon="9.236929166808656"><ele>272.0</ele><time>2026-04-12T09:42:47.001Z</time></trkpt><trkpt lat="45.80225166183246" lon="9.236878993136393"><ele>272.0</ele><time>2026-04-12T09:42:48.001Z</time></trkpt><trkpt lat="45.80234802758137" lon="9.236752153479479"><ele>272.0</ele><time>2026-04-12T09:42:49.001Z</time></trkpt><trkpt lat="45.80245667630591" lon="9.236639783758191"><ele>272.0</ele><time>2026-04-12T09:42:50.001Z</time></trkpt><trkpt lat="45.8025772324045" lon="9.236551609362106"><ele>272.25</ele><time>2026-04-12T09:42:51.001Z</time></trkpt><trkpt lat="45.802692896289" lon="9.236472487012852"><ele>272.5</ele><time>2026-04-12T09:42:52.001Z</time></trkpt><trkpt lat="45.80280362739472" lon="9.236392591236863"><ele>272.75</ele><time>2026-04-12T09:42:53.001Z</time></trkpt><trkpt lat="45.80290395858506" lon="9.236324107999765"><ele>273.0</ele><time>2026-04-12T09:42:54.001Z</time></trkpt><trkpt lat="45.80300300346011" lon="9.23625807623226"><ele>273.2</ele><time>2026-04-12T09:42:55.001Z</time></trkpt><trkpt lat="45.80310349653985" lon="9.236194109355313"><ele>273.4</ele><time>2026-04-12T09:42:56.001Z</time></trkpt><trkpt lat="45.803195919284384" lon="9.236132568163368"><ele>273.59999999999997</ele><time>2026-04-12T09:42:57.001Z</time></trkpt><trkpt lat="45.80329258267671" lon="9.236076054014895"><ele>273.8</ele><time>2026-04-12T09:42:58.001Z</time></trkpt><trkpt lat="45.80338746809204" lon="9.236014303237525"><ele>274.0</ele><time>2026-04-12T09:42:59.001Z</time></trkpt><trkpt lat="45.80348431650117" lon="9.235952136326313"><ele>274.0</ele><time>2026-04-12T09:43:00.001Z</time></trkpt><trkpt lat="45.803583067093996" lon="9.235886157198747"><ele>274.0</ele><time>2026-04-12T09:43:01.001Z</time></trkpt><trkpt lat="45.803684575405505" lon="9.235818570668464"><ele>274.0</ele><time>2026-04-12T09:43:02.001Z</time></trkpt><trkpt lat="45.80378490708843" lon="9.235749753635085"><ele>274.0</ele><time>2026-04-12T09:43:03.001Z</time></trkpt><trkpt lat="45.80388576954049" lon="9.23568246725918"><ele>274.0</ele><time>2026-04-12T09:43:04.001Z</time></trkpt><trkpt lat="45.80398796884115" lon="9.235615835178965"><ele>274.25</ele><time>2026-04-12T09:43:05.001Z</time></trkpt><trkpt lat="45.804087253886514" lon="9.235545285554585"><ele>274.5</ele><time>2026-04-12T09:43:06.002Z</time></trkpt><trkpt lat="45.80418898680299" lon="9.235463130033809"><ele>274.75</ele><time>2026-04-12T09:43:07.002Z</time></trkpt><trkpt lat="45.804286742471064" lon="9.235381500627128"><ele>275.0</ele><time>2026-04-12T09:43:08.002Z</time></trkpt><trkpt lat="45.80438594401594" lon="9.235294104306785"><ele>275.2</ele><time>2026-04-12T09:43:09.002Z</time></trkpt><trkpt lat="45.80448531801164" lon="9.235206059445067"><ele>275.4</ele><time>2026-04-12T09:43:10.002Z</time></trkpt><trkpt lat="45.804573595793755" lon="9.235121989000795"><ele>275.6</ele><time>2026-04-12T09:43:11.002Z</time></trkpt><trkpt lat="45.80465225142152" lon="9.235040270867007"><ele>275.8</ele><time>2026-04-12T09:43:12.002Z</time></trkpt><trkpt lat="45.804718098157295" lon="9.234975840055291"><ele>276.0</ele><time>2026-04-12T09:43:13.002Z</time></trkpt><trkpt lat="45.804772187754686" lon="9.23492257603979"><ele>276.0</ele><time>2026-04-12T09:43:14.002Z</time></trkpt><trkpt lat="45.80486923648942" lon="9.234818367428115"><ele>276.0</ele><time>2026-04-12T09:43:16.002Z</time></trkpt><trkpt lat="45.80494693182298" lon="9.234716691351336"><ele>276.0</ele><time>2026-04-12T09:43:18.002Z</time></trkpt><trkpt lat="45.80503402028764" lon="9.234639732529311"><ele>276.0</ele><time>2026-04-12T09:43:19.999Z</time></trkpt><trkpt lat="45.80509611553123" lon="9.234586453181889"><ele>276.0</ele><time>2026-04-12T09:43:21.999Z</time></trkpt><trkpt lat="45.80516042261512" lon="9.234563404048494"><ele>276.8</ele><time>2026-04-12T09:43:24.999Z</time></trkpt><trkpt lat="45.80526153855171" lon="9.234559961231446"><ele>277.6</ele><time>2026-04-12T09:43:27.999Z</time></trkpt><trkpt lat="45.8053328151085" lon="9.23458108818054"><ele>278.4</ele><time>2026-04-12T09:43:28.999Z</time></trkpt><trkpt lat="45.80541941404788" lon="9.23456646510019"><ele>279.2</ele><time>2026-04-12T09:43:29.999Z</time></trkpt><trkpt lat="45.80552212522172" lon="9.234516117738007"><ele>280.0</ele><time>2026-04-12T09:43:30.999Z</time></trkpt><trkpt lat="45.8056390484133" lon="9.234457036532488"><ele>280.0</ele><time>2026-04-12T09:43:31.999Z</time></trkpt><trkpt lat="45.80575629531211" lon="9.234410345737997"><ele>280.0</ele><time>2026-04-12T09:43:32.999Z</time></trkpt><trkpt lat="45.80588536250648" lon="9.234365572728196"><ele>280.0</ele><time>2026-04-12T09:43:33.999Z</time></trkpt><trkpt lat="45.80602311955463" lon="9.234320418142568"><ele>280.0</ele><time>2026-04-12T09:43:34.999Z</time></trkpt><trkpt lat="45.80618103295836" lon="9.234284611396113"><ele>279.3333333333333</ele><time>2026-04-12T09:43:35.999Z</time></trkpt><trkpt lat="45.8063368142481" lon="9.234257898895109"><ele>278.6666666666667</ele><time>2026-04-12T09:43:36.999Z</time></trkpt><trkpt lat="45.80649747436204" lon="9.234237619459975"><ele>278.0</ele><time>2026-04-12T09:43:37.999Z</time></trkpt><trkpt lat="45.806659797131815" lon="9.234225162662181"><ele>278.33333333333337</ele><time>2026-04-12T09:43:39Z</time></trkpt><trkpt lat="45.80683847515672" lon="9.234208235202063"><ele>278.6666666666667</ele><time>2026-04-12T09:43:40Z</time></trkpt><trkpt lat="45.80703129411758" lon="9.234189111282857"><ele>279.0</ele><time>2026-04-12T09:43:41Z</time></trkpt><trkpt lat="45.807221629765536" lon="9.234167618370657"><ele>279.0</ele><time>2026-04-12T09:43:42Z</time></trkpt><trkpt lat="45.80739192615107" lon="9.234149290418573"><ele>279.0</ele><time>2026-04-12T09:43:43Z</time></trkpt><trkpt lat="45.80753310258274" lon="9.234128927796405"><ele>279.0</ele><time>2026-04-12T09:43:44Z</time></trkpt><trkpt lat="45.807645352998286" lon="9.234118500761612"><ele>279.0</ele><time>2026-04-12T09:43:45Z</time></trkpt><trkpt lat="45.80773745244366" lon="9.234112839345459"><ele>279.1666666666667</ele><time>2026-04-12T09:43:46Z</time></trkpt><trkpt lat="45.80781872733065" lon="9.234102810263941"><ele>279.3333333333333</ele><time>2026-04-12T09:43:47Z</time></trkpt><trkpt lat="45.807902085856895" lon="9.234097377169453"><ele>279.5</ele><time>2026-04-12T09:43:48Z</time></trkpt><trkpt lat="45.80797851365832" lon="9.234086752475108"><ele>279.66666666666663</ele><time>2026-04-12T09:43:49Z</time></trkpt><trkpt lat="45.80804758008314" lon="9.234084793534812"><ele>279.8333333333333</ele><time>2026-04-12T09:43:50Z</time></trkpt><trkpt lat="45.80815286544666" lon="9.234060084533409"><ele>280.0</ele><time>2026-04-12T09:43:52Z</time></trkpt><trkpt lat="45.808237495242125" lon="9.234048204888627"><ele>280.0</ele><time>2026-04-12T09:43:54Z</time></trkpt><trkpt lat="45.80834625953701" lon="9.234036525595625"><ele>280.0</ele><time>2026-04-12T09:43:56Z</time></trkpt><trkpt lat="45.8084473748615" lon="9.23403096494376"><ele>280.0</ele><time>2026-04-12T09:43:58Z</time></trkpt><trkpt lat="45.80854106426469" lon="9.234015890150463"><ele>280.0</ele><time>2026-04-12T09:44:00Z</time></trkpt><trkpt lat="45.80862024855619" lon="9.234007908446799"><ele>280.0</ele><time>2026-04-12T09:44:02Z</time></trkpt><trkpt lat="45.80871055622838" lon="9.233999419591306"><ele>280.16666666666663</ele><time>2026-04-12T09:44:04Z</time></trkpt><trkpt lat="45.80877681455673" lon="9.233988853315687"><ele>280.3333333333333</ele><time>2026-04-12T09:44:05Z</time></trkpt><trkpt lat="45.808853013288676" lon="9.233970836058626"><ele>280.5</ele><time>2026-04-12T09:44:06Z</time></trkpt><trkpt lat="45.80893799303737" lon="9.233941374239798"><ele>280.6666666666667</ele><time>2026-04-12T09:44:07Z</time></trkpt><trkpt lat="45.80903080786515" lon="9.233928933920712"><ele>280.83333333333337</ele><time>2026-04-12T09:44:08Z</time></trkpt><trkpt lat="45.80912730760744" lon="9.233909020985871"><ele>281.0</ele><time>2026-04-12T09:44:09Z</time></trkpt><trkpt lat="45.80922376821477" lon="9.233885261778763"><ele>281.1666666666667</ele><time>2026-04-12T09:44:10Z</time></trkpt><trkpt lat="45.80931149805479" lon="9.2338628203925"><ele>281.33333333333337</ele><time>2026-04-12T09:44:11Z</time></trkpt><trkpt lat="45.80938539555863" lon="9.233844153586725"><ele>281.5</ele><time>2026-04-12T09:44:12Z</time></trkpt><trkpt lat="45.80944978169199" lon="9.233826272747304"><ele>281.6666666666667</ele><time>2026-04-12T09:44:13Z</time></trkpt><trkpt lat="45.80954958173586" lon="9.233807379627569"><ele>281.8333333333333</ele><time>2026-04-12T09:44:15.001Z</time></trkpt><trkpt lat="45.809619027373245" lon="9.233780030587736"><ele>282.0</ele><time>2026-04-12T09:44:17.001Z</time></trkpt><trkpt lat="45.80968950398915" lon="9.233759094594632"><ele>282.1666666666667</ele><time>2026-04-12T09:44:20.001Z</time></trkpt><trkpt lat="45.80975529125796" lon="9.233750375506238"><ele>282.3333333333333</ele><time>2026-04-12T09:44:23.001Z</time></trkpt><trkpt lat="45.809819346396544" lon="9.233788721072322"><ele>282.5</ele><time>2026-04-12T09:44:27.001Z</time></trkpt><trkpt lat="45.80987817114785" lon="9.23385730979731"><ele>282.66666666666663</ele><time>2026-04-12T09:44:35.001Z</time></trkpt><trkpt lat="45.80994448331614" lon="9.233966080016469"><ele>282.8333333333333</ele><time>2026-04-12T09:44:37.001Z</time></trkpt><trkpt lat="45.8100349129276" lon="9.234052341623196"><ele>283.0</ele><time>2026-04-12T09:44:39.001Z</time></trkpt><trkpt lat="45.81015551090522" lon="9.234038677990432"><ele>282.8333333333333</ele><time>2026-04-12T09:44:41.001Z</time></trkpt><trkpt lat="45.810240863968154" lon="9.23400060177346"><ele>282.66666666666663</ele><time>2026-04-12T09:44:43.001Z</time></trkpt><trkpt lat="45.810340730915726" lon="9.233983608721548"><ele>282.5</ele><time>2026-04-12T09:44:46.001Z</time></trkpt><trkpt lat="45.81045050299618" lon="9.234003691451415"><ele>282.3333333333333</ele><time>2026-04-12T09:44:48.001Z</time></trkpt><trkpt lat="45.81052251434885" lon="9.233989931430862"><ele>282.1666666666667</ele><time>2026-04-12T09:44:49.001Z</time></trkpt><trkpt lat="45.810594936109915" lon="9.233971403883897"><ele>282.0</ele><time>2026-04-12T09:44:50.001Z</time></trkpt><trkpt lat="45.81066631308469" lon="9.233950273255266"><ele>282.0</ele><time>2026-04-12T09:44:51.001Z</time></trkpt><trkpt lat="45.81073419322363" lon="9.233944535845483"><ele>282.0</ele><time>2026-04-12T09:44:52.001Z</time></trkpt><trkpt lat="45.810851280569544" lon="9.233952398500223"><ele>282.0</ele><time>2026-04-12T09:44:54.001Z</time></trkpt><trkpt lat="45.81096344620949" lon="9.233837079447252"><ele>282.0</ele><time>2026-04-12T09:44:56.001Z</time></trkpt><trkpt lat="45.81104798587063" lon="9.233763909758554"><ele>282.0</ele><time>2026-04-12T09:44:57.002Z</time></trkpt><trkpt lat="45.81114939890834" lon="9.233724950525673"><ele>282.5</ele><time>2026-04-12T09:44:58.002Z</time></trkpt><trkpt lat="45.81126700069724" lon="9.23368517821436"><ele>283.0</ele><time>2026-04-12T09:44:59.002Z</time></trkpt><trkpt lat="45.81137124324082" lon="9.233637055167387"><ele>283.5</ele><time>2026-04-12T09:45:00.002Z</time></trkpt><trkpt lat="45.81148945959865" lon="9.2335816405825"><ele>284.0</ele><time>2026-04-12T09:45:01.002Z</time></trkpt><trkpt lat="45.81162236359954" lon="9.233522174038223"><ele>284.0</ele><time>2026-04-12T09:45:02.002Z</time></trkpt><trkpt lat="45.8117598452395" lon="9.233466510112276"><ele>284.0</ele><time>2026-04-12T09:45:03.002Z</time></trkpt><trkpt lat="45.81189691682002" lon="9.233411763317353"><ele>284.0</ele><time>2026-04-12T09:45:04.002Z</time></trkpt><trkpt lat="45.81203762690172" lon="9.233358861512926"><ele>284.0</ele><time>2026-04-12T09:45:05.002Z</time></trkpt><trkpt lat="45.81218303750524" lon="9.233317179422821"><ele>284.0</ele><time>2026-04-12T09:45:06.002Z</time></trkpt><trkpt lat="45.81233730931371" lon="9.233295860540156"><ele>284.0</ele><time>2026-04-12T09:45:07.002Z</time></trkpt><trkpt lat="45.812489826583494" lon="9.233303972861005"><ele>284.0</ele><time>2026-04-12T09:45:08.002Z</time></trkpt><trkpt lat="45.81263912294714" lon="9.23333393151112"><ele>283.75</ele><time>2026-04-12T09:45:09.002Z</time></trkpt><trkpt lat="45.812802208909794" lon="9.233361331872834"><ele>283.5</ele><time>2026-04-12T09:45:10.002Z</time></trkpt><trkpt lat="45.812943917024846" lon="9.23337167395332"><ele>283.25</ele><time>2026-04-12T09:45:11.002Z</time></trkpt><trkpt lat="45.813068399536235" lon="9.233379117307726"><ele>283.0</ele><time>2026-04-12T09:45:12.002Z</time></trkpt><trkpt lat="45.813181621904036" lon="9.233382676260451"><ele>283.0</ele><time>2026-04-12T09:45:13.002Z</time></trkpt><trkpt lat="45.813292826222884" lon="9.233378120861152"><ele>283.0</ele><time>2026-04-12T09:45:14.002Z</time></trkpt><trkpt lat="45.81340685174391" lon="9.233369061565526"><ele>283.0</ele><time>2026-04-12T09:45:15.002Z</time></trkpt><trkpt lat="45.81351850203795" lon="9.233351558290652"><ele>283.0</ele><time>2026-04-12T09:45:16.002Z</time></trkpt><trkpt lat="45.813621338872466" lon="9.233315285619849"><ele>283.0</ele><time>2026-04-12T09:45:17.002Z</time></trkpt><trkpt lat="45.8137267805954" lon="9.233255961621213"><ele>283.75</ele><time>2026-04-12T09:45:18.002Z</time></trkpt><trkpt lat="45.81382901684386" lon="9.233182001303259"><ele>284.5</ele><time>2026-04-12T09:45:19.002Z</time></trkpt><trkpt lat="45.81393170098145" lon="9.23309347927398"><ele>285.25</ele><time>2026-04-12T09:45:20.002Z</time></trkpt><trkpt lat="45.81403857211913" lon="9.232997698575343"><ele>286.0</ele><time>2026-04-12T09:45:21.002Z</time></trkpt><trkpt lat="45.81414639089283" lon="9.2328879755011"><ele>286.25</ele><time>2026-04-12T09:45:22.002Z</time></trkpt><trkpt lat="45.81425597910741" lon="9.23276858090275"><ele>286.5</ele><time>2026-04-12T09:45:23.002Z</time></trkpt><trkpt lat="45.81436399156532" lon="9.232651188193575"><ele>286.75</ele><time>2026-04-12T09:45:24.002Z</time></trkpt><trkpt lat="45.81446720969827" lon="9.2325248351984"><ele>287.0</ele><time>2026-04-12T09:45:25.002Z</time></trkpt><trkpt lat="45.814562696344744" lon="9.232382809559844"><ele>286.75</ele><time>2026-04-12T09:45:26Z</time></trkpt><trkpt lat="45.81465513173661" lon="9.232231248544917"><ele>286.5</ele><time>2026-04-12T09:45:27Z</time></trkpt><trkpt lat="45.81474759601264" lon="9.23207472464592"><ele>286.25</ele><time>2026-04-12T09:45:28Z</time></trkpt><trkpt lat="45.814843262642235" lon="9.231922297029307"><ele>286.0</ele><time>2026-04-12T09:45:29Z</time></trkpt><trkpt lat="45.8149364090811" lon="9.231784249653128"><ele>286.0</ele><time>2026-04-12T09:45:30Z</time></trkpt><trkpt lat="45.81501894235676" lon="9.231661306827256"><ele>286.0</ele><time>2026-04-12T09:45:31Z</time></trkpt><trkpt lat="45.81509160747257" lon="9.231549925732091"><ele>286.0</ele><time>2026-04-12T09:45:32Z</time></trkpt><trkpt lat="45.81515220729286" lon="9.231455543533658"><ele>286.0</ele><time>2026-04-12T09:45:33Z</time></trkpt><trkpt lat="45.815204186902136" lon="9.23137092646825"><ele>286.0</ele><time>2026-04-12T09:45:34Z</time></trkpt><trkpt lat="45.81526298320436" lon="9.23131098748346"><ele>286.0</ele><time>2026-04-12T09:45:35Z</time></trkpt><trkpt lat="45.815342294576624" lon="9.231268543270357"><ele>286.0</ele><time>2026-04-12T09:45:36Z</time></trkpt><trkpt lat="45.815427693908745" lon="9.231245051524061"><ele>286.0</ele><time>2026-04-12T09:45:37Z</time></trkpt><trkpt lat="45.815510410994335" lon="9.231250592257487"><ele>286.0</ele><time>2026-04-12T09:45:38Z</time></trkpt><trkpt lat="45.81558914553383" lon="9.2313029751522"><ele>286.0</ele><time>2026-04-12T09:45:39Z</time></trkpt><trkpt lat="45.81567193850702" lon="9.231388379924558"><ele>286.0</ele><time>2026-04-12T09:45:40Z</time></trkpt><trkpt lat="45.81576350039347" lon="9.231482607770182"><ele>286.25</ele><time>2026-04-12T09:45:41Z</time></trkpt><trkpt lat="45.815866950216964" lon="9.231582422346499"><ele>286.5</ele><time>2026-04-12T09:45:42Z</time></trkpt><trkpt lat="45.815975536543746" lon="9.231684247887115"><ele>286.75</ele><time>2026-04-12T09:45:43Z</time></trkpt><trkpt lat="45.81608913720619" lon="9.231779589315577"><ele>287.0</ele><time>2026-04-12T09:45:44Z</time></trkpt><trkpt lat="45.816181416645684" lon="9.231873799420528"><ele>287.1666666666667</ele><time>2026-04-12T09:45:45Z</time></trkpt><trkpt lat="45.81626196014979" lon="9.231958015246347"><ele>287.33333333333337</ele><time>2026-04-12T09:45:46Z</time></trkpt><trkpt lat="45.81633607287022" lon="9.232030646805766"><ele>287.5</ele><time>2026-04-12T09:45:47Z</time></trkpt><trkpt lat="45.816407398134714" lon="9.232081436741632"><ele>287.6666666666667</ele><time>2026-04-12T09:45:48Z</time></trkpt><trkpt lat="45.81646200937903" lon="9.232137185301056"><ele>287.8333333333333</ele><time>2026-04-12T09:45:49Z</time></trkpt><trkpt lat="45.8165305806874" lon="9.23220488914735"><ele>288.0</ele><time>2026-04-12T09:45:51Z</time></trkpt><trkpt lat="45.816589939262286" lon="9.232260615697552"><ele>288.0</ele><time>2026-04-12T09:45:53Z</time></trkpt><trkpt lat="45.81664807392197" lon="9.232345207246453"><ele>288.0</ele><time>2026-04-12T09:45:55Z</time></trkpt><trkpt lat="45.816742440024" lon="9.232437902285804"><ele>288.0</ele><time>2026-04-12T09:45:57Z</time></trkpt><trkpt lat="45.816742415419306" lon="9.232531325188404"><ele>288.0</ele><time>2026-04-12T09:45:58Z</time></trkpt><trkpt lat="45.816840547423226" lon="9.232618256257464"><ele>288.0</ele><time>2026-04-12T09:46:00Z</time></trkpt><trkpt lat="45.81690373931037" lon="9.232590792151136"><ele>288.0</ele><time>2026-04-12T09:46:02Z</time></trkpt><trkpt lat="45.8169445079397" lon="9.23249024968264"><ele>288.1666666666667</ele><time>2026-04-12T09:46:03Z</time></trkpt><trkpt lat="45.81691518674829" lon="9.23239825037281"><ele>288.3333333333333</ele><time>2026-04-12T09:46:04Z</time></trkpt><trkpt lat="45.817021200186645" lon="9.232318278147607"><ele>288.5</ele><time>2026-04-12T09:46:05Z</time></trkpt><trkpt lat="45.817082324349975" lon="9.232251184060546"><ele>288.66666666666663</ele><time>2026-04-12T09:46:06Z</time></trkpt><trkpt lat="45.81715449137967" lon="9.232180583723697"><ele>288.8333333333333</ele><time>2026-04-12T09:46:07Z</time></trkpt><trkpt lat="45.81722793030729" lon="9.232109040029764"><ele>289.0</ele><time>2026-04-12T09:46:08Z</time></trkpt><trkpt lat="45.81730175260345" lon="9.232056828033013"><ele>289.0</ele><time>2026-04-12T09:46:09Z</time></trkpt><trkpt lat="45.817384963576174" lon="9.231982139355036"><ele>289.0</ele><time>2026-04-12T09:46:10Z</time></trkpt><trkpt lat="45.81746752109916" lon="9.231891345683836"><ele>289.0</ele><time>2026-04-12T09:46:11Z</time></trkpt><trkpt lat="45.81754274574881" lon="9.231776647065514"><ele>289.0</ele><time>2026-04-12T09:46:12Z</time></trkpt><trkpt lat="45.81760482948136" lon="9.231661570371122"><ele>289.0</ele><time>2026-04-12T09:46:13Z</time></trkpt><trkpt lat="45.8176562846826" lon="9.231536960380417"><ele>289.0</ele><time>2026-04-12T09:46:14Z</time></trkpt><trkpt lat="45.8177106879487" lon="9.231411351006795"><ele>289.0</ele><time>2026-04-12T09:46:15Z</time></trkpt><trkpt lat="45.81776147357769" lon="9.231289886003832"><ele>289.0</ele><time>2026-04-12T09:46:16.001Z</time></trkpt><trkpt lat="45.817811936655616" lon="9.2311666368234"><ele>289.0</ele><time>2026-04-12T09:46:17.001Z</time></trkpt><trkpt lat="45.81785438591504" lon="9.231046224144048"><ele>289.0</ele><time>2026-04-12T09:46:18.001Z</time></trkpt><trkpt lat="45.817886432359515" lon="9.230936059474153"><ele>289.0</ele><time>2026-04-12T09:46:19.001Z</time></trkpt><trkpt lat="45.81791025384487" lon="9.23082826498654"><ele>289.0</ele><time>2026-04-12T09:46:20.001Z</time></trkpt><trkpt lat="45.817949507293754" lon="9.230740342273219"><ele>289.0</ele><time>2026-04-12T09:46:21.001Z</time></trkpt><trkpt lat="45.817981309546155" lon="9.230634839364043"><ele>289.0</ele><time>2026-04-12T09:46:22.001Z</time></trkpt><trkpt lat="45.81802120887007" lon="9.230502474080897"><ele>289.0</ele><time>2026-04-12T09:46:23.001Z</time></trkpt><trkpt lat="45.81805983264322" lon="9.230339613498481"><ele>289.25</ele><time>2026-04-12T09:46:24.001Z</time></trkpt><trkpt lat="45.81812020019636" lon="9.230182484857695"><ele>289.5</ele><time>2026-04-12T09:46:25.001Z</time></trkpt><trkpt lat="45.81817036266425" lon="9.230024787878204"><ele>289.75</ele><time>2026-04-12T09:46:26.001Z</time></trkpt><trkpt lat="45.818219951031054" lon="9.22987376471143"><ele>290.0</ele><time>2026-04-12T09:46:27.001Z</time></trkpt><trkpt lat="45.81827325691591" lon="9.229726337239116"><ele>290.0</ele><time>2026-04-12T09:46:28.001Z</time></trkpt><trkpt lat="45.818328281056914" lon="9.2295828935181"><ele>290.0</ele><time>2026-04-12T09:46:29.001Z</time></trkpt><trkpt lat="45.81838909283273" lon="9.229446704349767"><ele>290.0</ele><time>2026-04-12T09:46:30.001Z</time></trkpt><trkpt lat="45.818458697059896" lon="9.229319380210876"><ele>290.0</ele><time>2026-04-12T09:46:31.001Z</time></trkpt><trkpt lat="45.81852917340596" lon="9.229196381535862"><ele>290.6</ele><time>2026-04-12T09:46:32.001Z</time></trkpt><trkpt lat="45.81859476535965" lon="9.229070131234137"><ele>291.2</ele><time>2026-04-12T09:46:33.001Z</time></trkpt><trkpt lat="45.81865442961296" lon="9.228952859241598"><ele>291.8</ele><time>2026-04-12T09:46:34.001Z</time></trkpt><trkpt lat="45.81871045904073" lon="9.228833034045856"><ele>292.4</ele><time>2026-04-12T09:46:35.001Z</time></trkpt><trkpt lat="45.81875927715804" lon="9.22871178269552"><ele>293.0</ele><time>2026-04-12T09:46:36.001Z</time></trkpt><trkpt lat="45.818807191711876" lon="9.22860334335451"><ele>293.2</ele><time>2026-04-12T09:46:37.001Z</time></trkpt><trkpt lat="45.81885265407033" lon="9.228526294510354"><ele>293.4</ele><time>2026-04-12T09:46:38.001Z</time></trkpt><trkpt lat="45.81895097264447" lon="9.228421891638627"><ele>293.59999999999997</ele><time>2026-04-12T09:46:40.001Z</time></trkpt><trkpt lat="45.819036480378834" lon="9.228356678205254"><ele>293.8</ele><time>2026-04-12T09:46:41.001Z</time></trkpt><trkpt lat="45.81913282091509" lon="9.228298206206164"><ele>294.0</ele><time>2026-04-12T09:46:42.001Z</time></trkpt><trkpt lat="45.81923244648284" lon="9.228255466121901"><ele>295.59999999999997</ele><time>2026-04-12T09:46:43.001Z</time></trkpt><trkpt lat="45.81932561117052" lon="9.228286009128889"><ele>297.2</ele><time>2026-04-12T09:46:44.001Z</time></trkpt><trkpt lat="45.81941848682743" lon="9.228330183655869"><ele>298.79999999999995</ele><time>2026-04-12T09:46:45.001Z</time></trkpt><trkpt lat="45.81949958750848" lon="9.228460426057422"><ele>300.4</ele><time>2026-04-12T09:46:46.001Z</time></trkpt><trkpt lat="45.81958730012682" lon="9.22859900230535"><ele>302.0</ele><time>2026-04-12T09:46:47.001Z</time></trkpt><trkpt lat="45.81969456503451" lon="9.228728592246064"><ele>302.0</ele><time>2026-04-12T09:46:48.001Z</time></trkpt><trkpt lat="45.819820042051624" lon="9.22884868187587"><ele>302.0</ele><time>2026-04-12T09:46:49.001Z</time></trkpt><trkpt lat="45.819963242896904" lon="9.228963813401034"><ele>302.0</ele><time>2026-04-12T09:46:50.001Z</time></trkpt><trkpt lat="45.82011344137492" lon="9.22906131268597"><ele>303.25</ele><time>2026-04-12T09:46:51.001Z</time></trkpt><trkpt lat="45.82024957727292" lon="9.229120599183885"><ele>304.5</ele><time>2026-04-12T09:46:52.001Z</time></trkpt><trkpt lat="45.82038140421402" lon="9.229168284298195"><ele>305.75</ele><time>2026-04-12T09:46:53.001Z</time></trkpt><trkpt lat="45.82049694482216" lon="9.229178582794521"><ele>307.0</ele><time>2026-04-12T09:46:54.001Z</time></trkpt><trkpt lat="45.820589774753316" lon="9.229186151443068"><ele>307.0</ele><time>2026-04-12T09:46:55.001Z</time></trkpt><trkpt lat="45.820658910285886" lon="9.229160806705758"><ele>307.0</ele><time>2026-04-12T09:46:57.001Z</time></trkpt><trkpt lat="45.82072919799345" lon="9.229104256250105"><ele>307.0</ele><time>2026-04-12T09:47:30.002Z</time></trkpt><trkpt lat="45.82084100827631" lon="9.229048875839286"><ele>307.0</ele><time>2026-04-12T09:47:32Z</time></trkpt><trkpt lat="45.82089358342863" lon="9.22899835454798"><ele>307.0</ele><time>2026-04-12T09:47:33Z</time></trkpt><trkpt lat="45.820996129297505" lon="9.228907664483263"><ele>306.16666666666663</ele><time>2026-04-12T09:47:35Z</time></trkpt><trkpt lat="45.82105807249489" lon="9.228858378643356"><ele>305.3333333333333</ele><time>2026-04-12T09:47:36Z</time></trkpt><trkpt lat="45.82112743712592" lon="9.228819320603241"><ele>304.5</ele><time>2026-04-12T09:47:37Z</time></trkpt><trkpt lat="45.82120807211374" lon="9.228807703219994"><ele>303.6666666666667</ele><time>2026-04-12T09:47:38Z</time></trkpt><trkpt lat="45.821297477530386" lon="9.228807703220463"><ele>302.83333333333337</ele><time>2026-04-12T09:47:39Z</time></trkpt><trkpt lat="45.82137579818177" lon="9.22878349018651"><ele>302.0</ele><time>2026-04-12T09:47:40Z</time></trkpt><trkpt lat="45.82148062442724" lon="9.228757026393902"><ele>302.0</ele><time>2026-04-12T09:47:41Z</time></trkpt><trkpt lat="45.821576516726864" lon="9.22873518554175"><ele>302.0</ele><time>2026-04-12T09:47:42Z</time></trkpt><trkpt lat="45.82167694085145" lon="9.22871825726015"><ele>302.0</ele><time>2026-04-12T09:47:43Z</time></trkpt><trkpt lat="45.82178504787107" lon="9.22868741693812"><ele>302.0</ele><time>2026-04-12T09:47:44Z</time></trkpt><trkpt lat="45.82188919008378" lon="9.228669690783349"><ele>302.0</ele><time>2026-04-12T09:47:45Z</time></trkpt><trkpt lat="45.82199518383023" lon="9.22863523386241"><ele>302.4</ele><time>2026-04-12T09:47:46Z</time></trkpt><trkpt lat="45.82209549151651" lon="9.228584735672673"><ele>302.79999999999995</ele><time>2026-04-12T09:47:47Z</time></trkpt><trkpt lat="45.82218962171167" lon="9.228505957738191"><ele>303.2</ele><time>2026-04-12T09:47:48Z</time></trkpt><trkpt lat="45.82228686627676" lon="9.22843657660328"><ele>303.59999999999997</ele><time>2026-04-12T09:47:49Z</time></trkpt><trkpt lat="45.822391764957295" lon="9.228400894071935"><ele>304.0</ele><time>2026-04-12T09:47:50Z</time></trkpt><trkpt lat="45.82248807120814" lon="9.228330810995796"><ele>304.0</ele><time>2026-04-12T09:47:51Z</time></trkpt><trkpt lat="45.822593112457675" lon="9.228285519368766"><ele>304.0</ele><time>2026-04-12T09:47:52Z</time></trkpt><trkpt lat="45.82269716107076" lon="9.228256215733852"><ele>304.0</ele><time>2026-04-12T09:47:53Z</time></trkpt><trkpt lat="45.82279944029665" lon="9.228237466809869"><ele>304.0</ele><time>2026-04-12T09:47:54Z</time></trkpt><trkpt lat="45.82290313174462" lon="9.228239936022394"><ele>304.0</ele><time>2026-04-12T09:47:55Z</time></trkpt><trkpt lat="45.82300303146038" lon="9.228261555108014"><ele>303.59999999999997</ele><time>2026-04-12T09:47:56Z</time></trkpt><trkpt lat="45.82309641463828" lon="9.228295404009517"><ele>303.2</ele><time>2026-04-12T09:47:57Z</time></trkpt><trkpt lat="45.8231754723377" lon="9.228337684476113"><ele>302.79999999999995</ele><time>2026-04-12T09:47:58Z</time></trkpt><trkpt lat="45.82323772583435" lon="9.228424619979656"><ele>302.4</ele><time>2026-04-12T09:47:59Z</time></trkpt><trkpt lat="45.823297119823025" lon="9.228539451222108"><ele>302.0</ele><time>2026-04-12T09:48:00Z</time></trkpt><trkpt lat="45.82339000540863" lon="9.228635206830216"><ele>302.0</ele><time>2026-04-12T09:48:01Z</time></trkpt><trkpt lat="45.82348040910278" lon="9.228707760782685"><ele>302.0</ele><time>2026-04-12T09:48:02Z</time></trkpt><trkpt lat="45.82358061798115" lon="9.228724804602132"><ele>302.0</ele><time>2026-04-12T09:48:03Z</time></trkpt><trkpt lat="45.823717535778904" lon="9.228747322434932"><ele>302.0</ele><time>2026-04-12T09:48:04Z</time></trkpt><trkpt lat="45.82383781357875" lon="9.22873479802012"><ele>302.0</ele><time>2026-04-12T09:48:05Z</time></trkpt><trkpt lat="45.82392623637893" lon="9.228722113899721"><ele>302.0</ele><time>2026-04-12T09:48:06Z</time></trkpt><trkpt lat="45.82400846483882" lon="9.228713361728301"><ele>302.0</ele><time>2026-04-12T09:48:07Z</time></trkpt><trkpt lat="45.82409070748525" lon="9.228701794158102"><ele>302.0</ele><time>2026-04-12T09:48:08Z</time></trkpt><trkpt lat="45.824171167234056" lon="9.22870989797187"><ele>302.0</ele><time>2026-04-12T09:48:09Z</time></trkpt><trkpt lat="45.82426509961104" lon="9.22871296759676"><ele>302.0</ele><time>2026-04-12T09:48:10Z</time></trkpt><trkpt lat="45.824374706371906" lon="9.228698047293202"><ele>301.5</ele><time>2026-04-12T09:48:11Z</time></trkpt><trkpt lat="45.82451150721763" lon="9.22872933756998"><ele>301.0</ele><time>2026-04-12T09:48:12Z</time></trkpt><trkpt lat="45.82465890406168" lon="9.228740394044001"><ele>300.5</ele><time>2026-04-12T09:48:13Z</time></trkpt><trkpt lat="45.824811165740485" lon="9.22872953717332"><ele>300.0</ele><time>2026-04-12T09:48:14Z</time></trkpt><trkpt lat="45.82497351814329" lon="9.228759260311554"><ele>300.0</ele><time>2026-04-12T09:48:15Z</time></trkpt><trkpt lat="45.82512564763384" lon="9.228758703302411"><ele>300.0</ele><time>2026-04-12T09:48:16Z</time></trkpt><trkpt lat="45.82525232306245" lon="9.22876791221536"><ele>300.0</ele><time>2026-04-12T09:48:17Z</time></trkpt><trkpt lat="45.82537019411062" lon="9.228746017599192"><ele>300.0</ele><time>2026-04-12T09:48:18.001Z</time></trkpt><trkpt lat="45.825475920398524" lon="9.22869366562615"><ele>300.25</ele><time>2026-04-12T09:48:19.001Z</time></trkpt><trkpt lat="45.82557412647436" lon="9.228601887926226"><ele>300.5</ele><time>2026-04-12T09:48:20.001Z</time></trkpt><trkpt lat="45.82567520120342" lon="9.228465637541728"><ele>300.75</ele><time>2026-04-12T09:48:21.001Z</time></trkpt><trkpt lat="45.825789197224964" lon="9.228331682154517"><ele>301.0</ele><time>2026-04-12T09:48:22.001Z</time></trkpt><trkpt lat="45.825913218689756" lon="9.228151328443204"><ele>301.0</ele><time>2026-04-12T09:48:23.001Z</time></trkpt><trkpt lat="45.82602857749426" lon="9.228016993779375"><ele>301.0</ele><time>2026-04-12T09:48:24.001Z</time></trkpt><trkpt lat="45.82617186560597" lon="9.227867881954518"><ele>301.0</ele><time>2026-04-12T09:48:25.001Z</time></trkpt><trkpt lat="45.82630721484041" lon="9.227702503399513"><ele>301.0</ele><time>2026-04-12T09:48:26.001Z</time></trkpt><trkpt lat="45.82644060997903" lon="9.227539866620223"><ele>301.0</ele><time>2026-04-12T09:48:27.001Z</time></trkpt><trkpt lat="45.82654953579276" lon="9.2274069738083"><ele>301.0</ele><time>2026-04-12T09:48:28.001Z</time></trkpt><trkpt lat="45.826668702585124" lon="9.227264518299632"><ele>301.0</ele><time>2026-04-12T09:48:29.001Z</time></trkpt><trkpt lat="45.826773094144876" lon="9.227164371902177"><ele>301.0</ele><time>2026-04-12T09:48:30.001Z</time></trkpt><trkpt lat="45.826876567031405" lon="9.227083474151536"><ele>301.0</ele><time>2026-04-12T09:48:31.001Z</time></trkpt><trkpt lat="45.82695625448275" lon="9.227005658966824"><ele>301.0</ele><time>2026-04-12T09:48:32.001Z</time></trkpt><trkpt lat="45.827031520126546" lon="9.226952036661405"><ele>301.0</ele><time>2026-04-12T09:48:33.001Z</time></trkpt><trkpt lat="45.827116970062505" lon="9.2268951675677"><ele>301.0</ele><time>2026-04-12T09:48:35.001Z</time></trkpt><trkpt lat="45.8271906710434" lon="9.226837160811808"><ele>301.0</ele><time>2026-04-12T09:48:50.001Z</time></trkpt><trkpt lat="45.827324351778586" lon="9.226799098834826"><ele>301.0</ele><time>2026-04-12T09:48:52.001Z</time></trkpt><trkpt lat="45.827411008292046" lon="9.226806517337858"><ele>301.0</ele><time>2026-04-12T09:48:53.001Z</time></trkpt><trkpt lat="45.8275127421158" lon="9.226815626316771"><ele>301.0</ele><time>2026-04-12T09:48:54.001Z</time></trkpt><trkpt lat="45.82762941989328" lon="9.22682569919267"><ele>301.5</ele><time>2026-04-12T09:48:55.001Z</time></trkpt><trkpt lat="45.827760998854096" lon="9.226839659381648"><ele>302.0</ele><time>2026-04-12T09:48:56.001Z</time></trkpt><trkpt lat="45.827878781831885" lon="9.226853574983595"><ele>302.5</ele><time>2026-04-12T09:48:57.001Z</time></trkpt><trkpt lat="45.82801119691119" lon="9.226874559911145"><ele>303.0</ele><time>2026-04-12T09:48:58.001Z</time></trkpt><trkpt lat="45.82815493975676" lon="9.22691626192344"><ele>303.0</ele><time>2026-04-12T09:48:59.001Z</time></trkpt><trkpt lat="45.82830186193215" lon="9.226967261336226"><ele>303.0</ele><time>2026-04-12T09:49:00.002Z</time></trkpt><trkpt lat="45.828450917484304" lon="9.227027081348986"><ele>303.0</ele><time>2026-04-12T09:49:01.002Z</time></trkpt><trkpt lat="45.82858270807491" lon="9.227017267983063"><ele>303.0</ele><time>2026-04-12T09:49:02.002Z</time></trkpt><trkpt lat="45.828740661955344" lon="9.22705421704343"><ele>303.6666666666667</ele><time>2026-04-12T09:49:03.002Z</time></trkpt><trkpt lat="45.82889454145682" lon="9.227066248991575"><ele>304.33333333333337</ele><time>2026-04-12T09:49:04.002Z</time></trkpt><trkpt lat="45.8290451828315" lon="9.227049300719308"><ele>305.0</ele><time>2026-04-12T09:49:05.002Z</time></trkpt><trkpt lat="45.82920756869295" lon="9.227010466404082"><ele>307.25</ele><time>2026-04-12T09:49:06.002Z</time></trkpt><trkpt lat="45.82933196099787" lon="9.226977041500149"><ele>309.5</ele><time>2026-04-12T09:49:07.002Z</time></trkpt><trkpt lat="45.82944838849264" lon="9.226910649524253"><ele>311.75</ele><time>2026-04-12T09:49:08.002Z</time></trkpt><trkpt lat="45.829545213270755" lon="9.226785492170741"><ele>314.0</ele><time>2026-04-12T09:49:09.002Z</time></trkpt><trkpt lat="45.829661352739144" lon="9.22666360570343"><ele>314.0</ele><time>2026-04-12T09:49:10.002Z</time></trkpt><trkpt lat="45.8297567176379" lon="9.226527735412342"><ele>314.0</ele><time>2026-04-12T09:49:11.002Z</time></trkpt><trkpt lat="45.8298517583247" lon="9.226429159697101"><ele>314.0</ele><time>2026-04-12T09:49:12.002Z</time></trkpt><trkpt lat="45.82995387758601" lon="9.226410633204594"><ele>314.0</ele><time>2026-04-12T09:49:13.002Z</time></trkpt><trkpt lat="45.83003590033685" lon="9.226444196421813"><ele>314.0</ele><time>2026-04-12T09:49:14.002Z</time></trkpt><trkpt lat="45.830161231782256" lon="9.226445629903031"><ele>315.6666666666667</ele><time>2026-04-12T09:49:15.002Z</time></trkpt><trkpt lat="45.83032049519446" lon="9.22646571071632"><ele>317.3333333333333</ele><time>2026-04-12T09:49:16.002Z</time></trkpt><trkpt lat="45.830495697038515" lon="9.226486733534745"><ele>319.0</ele><time>2026-04-12T09:49:17.002Z</time></trkpt><trkpt lat="45.83060851597021" lon="9.22645829637882"><ele>319.0</ele><time>2026-04-12T09:49:18.002Z</time></trkpt><trkpt lat="45.83071989537746" lon="9.226438068466889"><ele>319.0</ele><time>2026-04-12T09:49:19.002Z</time></trkpt><trkpt lat="45.83084766687544" lon="9.2264851325789"><ele>319.0</ele><time>2026-04-12T09:49:20.002Z</time></trkpt><trkpt lat="45.830944141607574" lon="9.226470070916719"><ele>319.0</ele><time>2026-04-12T09:49:21.002Z</time></trkpt><trkpt lat="45.83112505837203" lon="9.226462005000899"><ele>320.3333333333333</ele><time>2026-04-12T09:49:23.002Z</time></trkpt><trkpt lat="45.83124903844922" lon="9.226556132283337"><ele>321.6666666666667</ele><time>2026-04-12T09:49:24.002Z</time></trkpt><trkpt lat="45.83136623593928" lon="9.226636071204004"><ele>323.0</ele><time>2026-04-12T09:49:25.002Z</time></trkpt><trkpt lat="45.831532424427145" lon="9.226769724142754"><ele>323.0</ele><time>2026-04-12T09:49:26.002Z</time></trkpt><trkpt lat="45.831648342286265" lon="9.226877973001516"><ele>323.0</ele><time>2026-04-12T09:49:27.002Z</time></trkpt><trkpt lat="45.83177894696888" lon="9.227007483578799"><ele>323.0</ele><time>2026-04-12T09:49:28.002Z</time></trkpt><trkpt lat="45.831913748126716" lon="9.227143016574178"><ele>324.4</ele><time>2026-04-12T09:49:29.002Z</time></trkpt><trkpt lat="45.83200298369023" lon="9.227224362592498"><ele>325.79999999999995</ele><time>2026-04-12T09:49:30.002Z</time></trkpt><trkpt lat="45.83208570701731" lon="9.227294648327717"><ele>327.2</ele><time>2026-04-12T09:49:31.002Z</time></trkpt><trkpt lat="45.832154045068286" lon="9.227352383073216"><ele>328.6</ele><time>2026-04-12T09:49:32.002Z</time></trkpt><trkpt lat="45.83224223170516" lon="9.227416572132952"><ele>330.0</ele><time>2026-04-12T09:49:34.002Z</time></trkpt><trkpt lat="45.83233383387338" lon="9.2274994115193"><ele>330.0</ele><time>2026-04-12T09:49:38Z</time></trkpt><trkpt lat="45.83244416846849" lon="9.227281381273613"><ele>330.0</ele><time>2026-04-12T09:49:39Z</time></trkpt><trkpt lat="45.83251697886235" lon="9.227130652820865"><ele>330.0</ele><time>2026-04-12T09:49:40Z</time></trkpt><trkpt lat="45.832596058982375" lon="9.226956430797113"><ele>332.0</ele><time>2026-04-12T09:49:41Z</time></trkpt><trkpt lat="45.83266242607978" lon="9.226764231819605"><ele>334.0</ele><time>2026-04-12T09:49:42Z</time></trkpt><trkpt lat="45.83273243832542" lon="9.226591486573872"><ele>336.0</ele><time>2026-04-12T09:49:43Z</time></trkpt><trkpt lat="45.83281448600637" lon="9.226489563141763"><ele>338.0</ele><time>2026-04-12T09:49:44Z</time></trkpt><trkpt lat="45.83292134424922" lon="9.226457028434842"><ele>338.0</ele><time>2026-04-12T09:49:45Z</time></trkpt><trkpt lat="45.833045050453215" lon="9.226461006395319"><ele>338.0</ele><time>2026-04-12T09:49:46Z</time></trkpt><trkpt lat="45.83318570821104" lon="9.22647263204676"><ele>338.0</ele><time>2026-04-12T09:49:47Z</time></trkpt><trkpt lat="45.83333143729507" lon="9.226544336481913"><ele>338.0</ele><time>2026-04-12T09:49:48Z</time></trkpt><trkpt lat="45.833422555399885" lon="9.226588403784618"><ele>337.6666666666667</ele><time>2026-04-12T09:49:49Z</time></trkpt><trkpt lat="45.83351639463863" lon="9.226611698109593"><ele>337.33333333333337</ele><time>2026-04-12T09:49:50Z</time></trkpt><trkpt lat="45.83360011042082" lon="9.226655753041683"><ele>337.0</ele><time>2026-04-12T09:49:51Z</time></trkpt><trkpt lat="45.83369101451072" lon="9.22669910160951"><ele>336.6666666666667</ele><time>2026-04-12T09:49:52Z</time></trkpt><trkpt lat="45.83376297998782" lon="9.226732816896021"><ele>336.3333333333333</ele><time>2026-04-12T09:49:53Z</time></trkpt><trkpt lat="45.83382614211339" lon="9.226763447518673"><ele>336.0</ele><time>2026-04-12T09:49:54Z</time></trkpt><trkpt lat="45.83393409163621" lon="9.226814024020777"><ele>336.0</ele><time>2026-04-12T09:49:56Z</time></trkpt><trkpt lat="45.83399506337314" lon="9.226848837490786"><ele>336.0</ele><time>2026-04-12T09:49:58Z</time></trkpt><trkpt lat="45.834064792698214" lon="9.2267917461471"><ele>336.0</ele><time>2026-04-12T09:50:06Z</time></trkpt><trkpt lat="45.83414075379282" lon="9.226942619516377"><ele>336.0</ele><time>2026-04-12T09:50:07Z</time></trkpt><trkpt lat="45.834182115411735" lon="9.227073021264784"><ele>336.0</ele><time>2026-04-12T09:50:08Z</time></trkpt><trkpt lat="45.83421707189957" lon="9.22719953892398"><ele>336.0</ele><time>2026-04-12T09:50:09Z</time></trkpt><trkpt lat="45.83425104742579" lon="9.227287902001656"><ele>336.0</ele><time>2026-04-12T09:50:10Z</time></trkpt><trkpt lat="45.83429000287413" lon="9.227395172322979"><ele>336.0</ele><time>2026-04-12T09:50:11Z</time></trkpt><trkpt lat="45.83433734426383" lon="9.22751448329109"><ele>336.0</ele><time>2026-04-12T09:50:12Z</time></trkpt><trkpt lat="45.83439396930191" lon="9.227660303320766"><ele>336.0</ele><time>2026-04-12T09:50:13Z</time></trkpt><trkpt lat="45.83445446635286" lon="9.227842973308327"><ele>334.0</ele><time>2026-04-12T09:50:14Z</time></trkpt><trkpt lat="45.83450056078467" lon="9.228032168684178"><ele>332.0</ele><time>2026-04-12T09:50:15Z</time></trkpt><trkpt lat="45.83454048877052" lon="9.228234200926176"><ele>330.0</ele><time>2026-04-12T09:50:16.001Z</time></trkpt><trkpt lat="45.83456449618553" lon="9.228462648138064"><ele>328.0</ele><time>2026-04-12T09:50:17.001Z</time></trkpt><trkpt lat="45.834616175276196" lon="9.228687005615132"><ele>328.0</ele><time>2026-04-12T09:50:18.001Z</time></trkpt><trkpt lat="45.834652020361595" lon="9.228920161443778"><ele>328.0</ele><time>2026-04-12T09:50:19.001Z</time></trkpt><trkpt lat="45.83469407970528" lon="9.229137784626491"><ele>328.0</ele><time>2026-04-12T09:50:20.001Z</time></trkpt><trkpt lat="45.83471804665525" lon="9.229368992421257"><ele>328.3333333333333</ele><time>2026-04-12T09:50:21.001Z</time></trkpt><trkpt lat="45.83475759918727" lon="9.22959662160604"><ele>328.6666666666667</ele><time>2026-04-12T09:50:22.001Z</time></trkpt><trkpt lat="45.83479494591799" lon="9.229811042805558"><ele>329.0</ele><time>2026-04-12T09:50:23.001Z</time></trkpt><trkpt lat="45.834833800870555" lon="9.230032149144309"><ele>331.6666666666667</ele><time>2026-04-12T09:50:24.001Z</time></trkpt><trkpt lat="45.83487247889332" lon="9.230248926000575"><ele>334.3333333333333</ele><time>2026-04-12T09:50:25.001Z</time></trkpt><trkpt lat="45.83491019067426" lon="9.230460287392535"><ele>337.0</ele><time>2026-04-12T09:50:26.001Z</time></trkpt><trkpt lat="45.834946391212874" lon="9.23066317889023"><ele>338.75</ele><time>2026-04-12T09:50:27.001Z</time></trkpt><trkpt lat="45.834982092678246" lon="9.230861997996138"><ele>340.5</ele><time>2026-04-12T09:50:28.001Z</time></trkpt><trkpt lat="45.8350181690212" lon="9.231062829153712"><ele>342.25</ele><time>2026-04-12T09:50:29.001Z</time></trkpt><trkpt lat="45.835055439735804" lon="9.231270308859562"><ele>344.0</ele><time>2026-04-12T09:50:30.001Z</time></trkpt><trkpt lat="45.8350917436741" lon="9.231472406732943"><ele>345.0</ele><time>2026-04-12T09:50:31.001Z</time></trkpt><trkpt lat="45.83512679212282" lon="9.231667515790267"><ele>346.0</ele><time>2026-04-12T09:50:32.001Z</time></trkpt><trkpt lat="45.83517089204999" lon="9.231831512620696"><ele>347.0</ele><time>2026-04-12T09:50:33.001Z</time></trkpt><trkpt lat="45.83520591957293" lon="9.232010873152213"><ele>348.0</ele><time>2026-04-12T09:50:34.001Z</time></trkpt><trkpt lat="45.8352463659782" lon="9.232222221090955"><ele>343.0</ele><time>2026-04-12T09:50:35.001Z</time></trkpt><trkpt lat="45.835266242759694" lon="9.232455220572112"><ele>338.0</ele><time>2026-04-12T09:50:36.001Z</time></trkpt><trkpt lat="45.83528050409507" lon="9.232698768180104"><ele>333.0</ele><time>2026-04-12T09:50:37.001Z</time></trkpt><trkpt lat="45.835301975743086" lon="9.232961195970683"><ele>334.6666666666667</ele><time>2026-04-12T09:50:38.001Z</time></trkpt><trkpt lat="45.83532835838706" lon="9.233218935293188"><ele>336.33333333333337</ele><time>2026-04-12T09:50:39.001Z</time></trkpt><trkpt lat="45.83535702214838" lon="9.233493609108148"><ele>338.0</ele><time>2026-04-12T09:50:40.001Z</time></trkpt><trkpt lat="45.83538919955062" lon="9.233771692440445"><ele>340.6666666666667</ele><time>2026-04-12T09:50:41.001Z</time></trkpt><trkpt lat="45.835428525937424" lon="9.2340573759077"><ele>343.3333333333333</ele><time>2026-04-12T09:50:42.001Z</time></trkpt><trkpt lat="45.835477676028745" lon="9.23434600064083"><ele>346.0</ele><time>2026-04-12T09:50:43.001Z</time></trkpt><trkpt lat="45.835546957725015" lon="9.234641949037309"><ele>346.0</ele><time>2026-04-12T09:50:44.001Z</time></trkpt><trkpt lat="45.83559570929947" lon="9.234966344292294"><ele>346.0</ele><time>2026-04-12T09:50:45.001Z</time></trkpt><trkpt lat="45.83563933949015" lon="9.235305796125202"><ele>346.5</ele><time>2026-04-12T09:50:46.001Z</time></trkpt><trkpt lat="45.83568069259297" lon="9.235663648471228"><ele>347.0</ele><time>2026-04-12T09:50:47.001Z</time></trkpt><trkpt lat="45.83570130999835" lon="9.236024800503074"><ele>347.0</ele><time>2026-04-12T09:50:48.001Z</time></trkpt><trkpt lat="45.835742338395164" lon="9.236340461180106"><ele>347.0</ele><time>2026-04-12T09:50:49.001Z</time></trkpt><trkpt lat="45.8358134168733" lon="9.236634931551722"><ele>347.0</ele><time>2026-04-12T09:50:50.001Z</time></trkpt><trkpt lat="45.83590894732237" lon="9.236937045334678"><ele>350.5</ele><time>2026-04-12T09:50:51.001Z</time></trkpt><trkpt lat="45.83603103097037" lon="9.237259741220594"><ele>354.0</ele><time>2026-04-12T09:50:52.001Z</time></trkpt><trkpt lat="45.836152924329646" lon="9.237589337258513"><ele>354.0</ele><time>2026-04-12T09:50:53.001Z</time></trkpt><trkpt lat="45.836273768547514" lon="9.237919616462788"><ele>354.0</ele><time>2026-04-12T09:50:54.001Z</time></trkpt><trkpt lat="45.8363977774719" lon="9.238258545821974"><ele>352.5</ele><time>2026-04-12T09:50:55.001Z</time></trkpt><trkpt lat="45.83652290120605" lon="9.238599609720941"><ele>351.0</ele><time>2026-04-12T09:50:56.001Z</time></trkpt><trkpt lat="45.83664830522143" lon="9.238945223413952"><ele>349.0</ele><time>2026-04-12T09:50:57.001Z</time></trkpt><trkpt lat="45.836764743944094" lon="9.239297585058333"><ele>347.0</ele><time>2026-04-12T09:50:58.001Z</time></trkpt><trkpt lat="45.83684981621844" lon="9.239607054036544"><ele>347.0</ele><time>2026-04-12T09:50:59.001Z</time></trkpt><trkpt lat="45.83692394822858" lon="9.239913543008907"><ele>347.0</ele><time>2026-04-12T09:51:00.002Z</time></trkpt><trkpt lat="45.83699281058658" lon="9.240218755848929"><ele>347.0</ele><time>2026-04-12T09:51:01.002Z</time></trkpt><trkpt lat="45.83705619519655" lon="9.240515398999236"><ele>347.0</ele><time>2026-04-12T09:51:02.002Z</time></trkpt><trkpt lat="45.837127417512306" lon="9.2408218727229"><ele>347.0</ele><time>2026-04-12T09:51:03.002Z</time></trkpt><trkpt lat="45.837215022571506" lon="9.24112766612193"><ele>345.0</ele><time>2026-04-12T09:51:04.002Z</time></trkpt><trkpt lat="45.837316632904766" lon="9.241401146334836"><ele>343.0</ele><time>2026-04-12T09:51:05.002Z</time></trkpt><trkpt lat="45.83741212157785" lon="9.241653917383635"><ele>341.0</ele><time>2026-04-12T09:51:06.002Z</time></trkpt><trkpt lat="45.83751908036838" lon="9.241884045957747"><ele>341.0</ele><time>2026-04-12T09:51:07.002Z</time></trkpt><trkpt lat="45.83762680552676" lon="9.242078465134453"><ele>341.0</ele><time>2026-04-12T09:51:08.002Z</time></trkpt><trkpt lat="45.83773876322644" lon="9.242262293724396"><ele>341.0</ele><time>2026-04-12T09:51:09.002Z</time></trkpt><trkpt lat="45.83786452385103" lon="9.242454269954042"><ele>341.33333333333337</ele><time>2026-04-12T09:51:10.002Z</time></trkpt><trkpt lat="45.8380066379926" lon="9.242636887831141"><ele>341.6666666666667</ele><time>2026-04-12T09:51:11.002Z</time></trkpt><trkpt lat="45.83814999362517" lon="9.242806019119417"><ele>342.0</ele><time>2026-04-12T09:51:12.002Z</time></trkpt><trkpt lat="45.83826830732884" lon="9.242971463304478"><ele>343.0</ele><time>2026-04-12T09:51:13.002Z</time></trkpt><trkpt lat="45.83835848150975" lon="9.243131367574339"><ele>344.0</ele><time>2026-04-12T09:51:14.002Z</time></trkpt><trkpt lat="45.83844007876503" lon="9.24330313550711"><ele>345.0</ele><time>2026-04-12T09:51:15.002Z</time></trkpt><trkpt lat="45.83850956061469" lon="9.24349911711617"><ele>346.0</ele><time>2026-04-12T09:51:16.002Z</time></trkpt><trkpt lat="45.8385572460914" lon="9.243717370128655"><ele>346.0</ele><time>2026-04-12T09:51:17.002Z</time></trkpt><trkpt lat="45.8385886354656" lon="9.24394633419226"><ele>346.0</ele><time>2026-04-12T09:51:18.002Z</time></trkpt><trkpt lat="45.838617364589744" lon="9.244191393803579"><ele>346.0</ele><time>2026-04-12T09:51:19.002Z</time></trkpt><trkpt lat="45.838663593309825" lon="9.244451961843597"><ele>345.66666666666663</ele><time>2026-04-12T09:51:20.002Z</time></trkpt><trkpt lat="45.83870198124948" lon="9.2447434519942"><ele>345.3333333333333</ele><time>2026-04-12T09:51:21.002Z</time></trkpt><trkpt lat="45.838771679425676" lon="9.245039680035028"><ele>345.0</ele><time>2026-04-12T09:51:22.002Z</time></trkpt><trkpt lat="45.83881802731388" lon="9.245351460108973"><ele>346.0</ele><time>2026-04-12T09:51:23.002Z</time></trkpt><trkpt lat="45.83887264267567" lon="9.245644028319129"><ele>347.0</ele><time>2026-04-12T09:51:24.002Z</time></trkpt><trkpt lat="45.83895040218773" lon="9.245926989613963"><ele>348.0</ele><time>2026-04-12T09:51:25.002Z</time></trkpt><trkpt lat="45.83905393309618" lon="9.24621928141144"><ele>352.5</ele><time>2026-04-12T09:51:26.002Z</time></trkpt><trkpt lat="45.839172228808984" lon="9.246513011361984"><ele>357.0</ele><time>2026-04-12T09:51:27.002Z</time></trkpt><trkpt lat="45.83928510901334" lon="9.246783379082931"><ele>355.6666666666667</ele><time>2026-04-12T09:51:28.002Z</time></trkpt><trkpt lat="45.83938612829146" lon="9.24702662817652"><ele>354.33333333333337</ele><time>2026-04-12T09:51:29.002Z</time></trkpt><trkpt lat="45.83948029430159" lon="9.247249386244189"><ele>353.0</ele><time>2026-04-12T09:51:30.002Z</time></trkpt><trkpt lat="45.839560413603444" lon="9.247451192017081"><ele>353.0</ele><time>2026-04-12T09:51:31.002Z</time></trkpt><trkpt lat="45.839632693302256" lon="9.247637790346307"><ele>353.0</ele><time>2026-04-12T09:51:32.002Z</time></trkpt><trkpt lat="45.83970713063555" lon="9.247845529040115"><ele>353.0</ele><time>2026-04-12T09:51:33.002Z</time></trkpt><trkpt lat="45.83977754761273" lon="9.248067247473134"><ele>353.0</ele><time>2026-04-12T09:51:34.002Z</time></trkpt><trkpt lat="45.83984916550604" lon="9.248312569465973"><ele>353.0</ele><time>2026-04-12T09:51:35.002Z</time></trkpt><trkpt lat="45.839937568032724" lon="9.248550105185762"><ele>353.0</ele><time>2026-04-12T09:51:36.002Z</time></trkpt><trkpt lat="45.84004865543255" lon="9.248782989590934"><ele>352.33333333333337</ele><time>2026-04-12T09:51:37.002Z</time></trkpt><trkpt lat="45.840168633881824" lon="9.249022192361503"><ele>351.6666666666667</ele><time>2026-04-12T09:51:38.002Z</time></trkpt><trkpt lat="45.840286213315494" lon="9.249267382939014"><ele>351.0</ele><time>2026-04-12T09:51:39.002Z</time></trkpt><trkpt lat="45.84039323797649" lon="9.249518799658528"><ele>351.0</ele><time>2026-04-12T09:51:40.002Z</time></trkpt><trkpt lat="45.84049226775607" lon="9.249768820064771"><ele>351.0</ele><time>2026-04-12T09:51:41.002Z</time></trkpt><trkpt lat="45.8405886669805" lon="9.250008556365293"><ele>351.0</ele><time>2026-04-12T09:51:42.002Z</time></trkpt><trkpt lat="45.84067991015023" lon="9.250219632273765"><ele>351.0</ele><time>2026-04-12T09:51:43.003Z</time></trkpt><trkpt lat="45.84076719584233" lon="9.25041743000444"><ele>351.0</ele><time>2026-04-12T09:51:44Z</time></trkpt><trkpt lat="45.84084090914836" lon="9.25058161605564"><ele>351.0</ele><time>2026-04-12T09:51:45Z</time></trkpt><trkpt lat="45.84090984802013" lon="9.250731501857318"><ele>351.0</ele><time>2026-04-12T09:51:46Z</time></trkpt><trkpt lat="45.84096859646946" lon="9.250863031683052"><ele>351.0</ele><time>2026-04-12T09:51:47Z</time></trkpt><trkpt lat="45.841034273070036" lon="9.250985462844943"><ele>351.0</ele><time>2026-04-12T09:51:48Z</time></trkpt><trkpt lat="45.841104698920034" lon="9.251111490379861"><ele>351.0</ele><time>2026-04-12T09:51:49Z</time></trkpt><trkpt lat="45.84118345479182" lon="9.251229039908793"><ele>351.0</ele><time>2026-04-12T09:51:50Z</time></trkpt><trkpt lat="45.84125846028954" lon="9.251323656366095"><ele>351.0</ele><time>2026-04-12T09:51:51Z</time></trkpt><trkpt lat="45.84132207111205" lon="9.251400426717328"><ele>351.5</ele><time>2026-04-12T09:51:52Z</time></trkpt><trkpt lat="45.84138424084034" lon="9.25148190298806"><ele>352.0</ele><time>2026-04-12T09:51:53Z</time></trkpt><trkpt lat="45.84144740582721" lon="9.251567952752724"><ele>352.5</ele><time>2026-04-12T09:51:54Z</time></trkpt><trkpt lat="45.841519569988286" lon="9.25166291582716"><ele>353.0</ele><time>2026-04-12T09:51:55Z</time></trkpt><trkpt lat="45.841587302814546" lon="9.25175233053458"><ele>353.5</ele><time>2026-04-12T09:51:56Z</time></trkpt><trkpt lat="45.84165065560749" lon="9.251824159667922"><ele>354.0</ele><time>2026-04-12T09:51:57Z</time></trkpt><trkpt lat="45.841715601903054" lon="9.251899056718887"><ele>354.0</ele><time>2026-04-12T09:51:58Z</time></trkpt><trkpt lat="45.84177945535059" lon="9.25198275482927"><ele>354.0</ele><time>2026-04-12T09:51:59Z</time></trkpt><trkpt lat="45.84184787645256" lon="9.252076227592218"><ele>354.0</ele><time>2026-04-12T09:52:00Z</time></trkpt><trkpt lat="45.84191818094813" lon="9.252165619875276"><ele>354.0</ele><time>2026-04-12T09:52:01Z</time></trkpt><trkpt lat="45.841985361444" lon="9.252239848492623"><ele>354.0</ele><time>2026-04-12T09:52:02Z</time></trkpt><trkpt lat="45.842044931270756" lon="9.252313063259162"><ele>354.0</ele><time>2026-04-12T09:52:03Z</time></trkpt><trkpt lat="45.842112417587664" lon="9.252396220461256"><ele>353.79999999999995</ele><time>2026-04-12T09:52:04Z</time></trkpt><trkpt lat="45.84218443895873" lon="9.252488679486833"><ele>353.59999999999997</ele><time>2026-04-12T09:52:05Z</time></trkpt><trkpt lat="45.84226207161301" lon="9.25258614138291"><ele>353.4</ele><time>2026-04-12T09:52:06Z</time></trkpt><trkpt lat="45.84233656661058" lon="9.252687688640064"><ele>353.2</ele><time>2026-04-12T09:52:07Z</time></trkpt><trkpt lat="45.84241122264408" lon="9.252796516750983"><ele>353.0</ele><time>2026-04-12T09:52:08Z</time></trkpt><trkpt lat="45.8424809911541" lon="9.252914858084266"><ele>353.0</ele><time>2026-04-12T09:52:09Z</time></trkpt><trkpt lat="45.84255358092103" lon="9.253039075070207"><ele>353.0</ele><time>2026-04-12T09:52:10Z</time></trkpt><trkpt lat="45.84260997503693" lon="9.253143937308693"><ele>353.0</ele><time>2026-04-12T09:52:11Z</time></trkpt><trkpt lat="45.84265924904515" lon="9.253243692763027"><ele>353.0</ele><time>2026-04-12T09:52:12Z</time></trkpt><trkpt lat="45.842710182625815" lon="9.25334486843285"><ele>353.0</ele><time>2026-04-12T09:52:13Z</time></trkpt><trkpt lat="45.842762044100446" lon="9.25344340745232"><ele>353.79999999999995</ele><time>2026-04-12T09:52:14Z</time></trkpt><trkpt lat="45.84281364634049" lon="9.253535856415"><ele>354.6</ele><time>2026-04-12T09:52:15.001Z</time></trkpt><trkpt lat="45.84287091075384" lon="9.253615019299145"><ele>355.4</ele><time>2026-04-12T09:52:16Z</time></trkpt><trkpt lat="45.84294742598271" lon="9.253697369150197"><ele>356.20000000000005</ele><time>2026-04-12T09:52:17Z</time></trkpt><trkpt lat="45.84304420726115" lon="9.253773765923244"><ele>357.0</ele><time>2026-04-12T09:52:18Z</time></trkpt><trkpt lat="45.8431299533205" lon="9.253825208606294"><ele>357.0</ele><time>2026-04-12T09:52:19Z</time></trkpt><trkpt lat="45.843220157965746" lon="9.25389096220939"><ele>357.0</ele><time>2026-04-12T09:52:20Z</time></trkpt><trkpt lat="45.84331130424222" lon="9.25396346901916"><ele>357.0</ele><time>2026-04-12T09:52:21.001Z</time></trkpt><trkpt lat="45.84340672606644" lon="9.254041486838133"><ele>357.0</ele><time>2026-04-12T09:52:22.001Z</time></trkpt><trkpt lat="45.84350505506787" lon="9.254130044673179"><ele>357.0</ele><time>2026-04-12T09:52:23.001Z</time></trkpt><trkpt lat="45.8435959374611" lon="9.254212660973772"><ele>356.8</ele><time>2026-04-12T09:52:24.001Z</time></trkpt><trkpt lat="45.84367502302334" lon="9.254293328436825"><ele>356.6</ele><time>2026-04-12T09:52:25.001Z</time></trkpt><trkpt lat="45.84375974603212" lon="9.254384590441175"><ele>356.40000000000003</ele><time>2026-04-12T09:52:26.001Z</time></trkpt><trkpt lat="45.843842692343934" lon="9.254475484396826"><ele>356.20000000000005</ele><time>2026-04-12T09:52:27.001Z</time></trkpt><trkpt lat="45.84393157464335" lon="9.254572144800376"><ele>356.0</ele><time>2026-04-12T09:52:28.001Z</time></trkpt><trkpt lat="45.844027053223165" lon="9.254673285584724"><ele>356.0</ele><time>2026-04-12T09:52:29.001Z</time></trkpt><trkpt lat="45.84412578835397" lon="9.25478163958334"><ele>356.0</ele><time>2026-04-12T09:52:30.001Z</time></trkpt><trkpt lat="45.84422170875708" lon="9.25488792917959"><ele>356.0</ele><time>2026-04-12T09:52:31.001Z</time></trkpt><trkpt lat="45.84432127123557" lon="9.254998471012847"><ele>356.0</ele><time>2026-04-12T09:52:32.001Z</time></trkpt><trkpt lat="45.844425163060514" lon="9.255109306338115"><ele>356.8</ele><time>2026-04-12T09:52:33.001Z</time></trkpt><trkpt lat="45.844522919941035" lon="9.25520903487628"><ele>357.6</ele><time>2026-04-12T09:52:34.001Z</time></trkpt><trkpt lat="45.84460773555554" lon="9.255294838200756"><ele>358.4</ele><time>2026-04-12T09:52:35.001Z</time></trkpt><trkpt lat="45.84468475467834" lon="9.255376926035328"><ele>359.2</ele><time>2026-04-12T09:52:36.001Z</time></trkpt><trkpt lat="45.84476135096099" lon="9.255461908557058"><ele>360.0</ele><time>2026-04-12T09:52:37.001Z</time></trkpt><trkpt lat="45.84483702844915" lon="9.255550550983639"><ele>360.0</ele><time>2026-04-12T09:52:38.001Z</time></trkpt><trkpt lat="45.844916536123904" lon="9.25563753112519"><ele>360.0</ele><time>2026-04-12T09:52:39.001Z</time></trkpt><trkpt lat="45.84500749773418" lon="9.255734634472944"><ele>360.0</ele><time>2026-04-12T09:52:40.001Z</time></trkpt><trkpt lat="45.84510309907483" lon="9.25584378890471"><ele>360.0</ele><time>2026-04-12T09:52:41.001Z</time></trkpt><trkpt lat="45.84519911823356" lon="9.255948347011948"><ele>360.0</ele><time>2026-04-12T09:52:42.001Z</time></trkpt><trkpt lat="45.845282906031265" lon="9.256035691518038"><ele>360.0</ele><time>2026-04-12T09:52:43.001Z</time></trkpt><trkpt lat="45.84534258141825" lon="9.256122239834887"><ele>360.0</ele><time>2026-04-12T09:52:44.001Z</time></trkpt><trkpt lat="45.845399330822296" lon="9.256184195891647"><ele>360.0</ele><time>2026-04-12T09:52:45.001Z</time></trkpt><trkpt lat="45.84550642870256" lon="9.256279143552957"><ele>360.0</ele><time>2026-04-12T09:52:47.001Z</time></trkpt><trkpt lat="45.84560144146477" lon="9.256415117161836"><ele>360.2</ele><time>2026-04-12T09:52:49.001Z</time></trkpt><trkpt lat="45.84564337435638" lon="9.25650709592544"><ele>360.4</ele><time>2026-04-12T09:52:50.001Z</time></trkpt><trkpt lat="45.84569666895893" lon="9.256582119968098"><ele>360.6</ele><time>2026-04-12T09:52:51.001Z</time></trkpt><trkpt lat="45.845813446548775" lon="9.256653666213955"><ele>360.8</ele><time>2026-04-12T09:52:52.001Z</time></trkpt><trkpt lat="45.84593160152208" lon="9.256771229712482"><ele>361.0</ele><time>2026-04-12T09:52:53.001Z</time></trkpt><trkpt lat="45.84607051769227" lon="9.256922773419518"><ele>361.66666666666663</ele><time>2026-04-12T09:52:54.001Z</time></trkpt><trkpt lat="45.84621988692373" lon="9.25708320689325"><ele>362.3333333333333</ele><time>2026-04-12T09:52:55.001Z</time></trkpt><trkpt lat="45.84638607354799" lon="9.257241306726206"><ele>363.0</ele><time>2026-04-12T09:52:56.001Z</time></trkpt><trkpt lat="45.8465494635048" lon="9.257423954876042"><ele>363.6666666666667</ele><time>2026-04-12T09:52:57.001Z</time></trkpt><trkpt lat="45.84669007851607" lon="9.257585061240848"><ele>364.33333333333337</ele><time>2026-04-12T09:52:58.001Z</time></trkpt><trkpt lat="45.84681606329223" lon="9.25774025154083"><ele>365.0</ele><time>2026-04-12T09:52:59.001Z</time></trkpt><trkpt lat="45.84692140580867" lon="9.25789462846674"><ele>365.0</ele><time>2026-04-12T09:53:00.001Z</time></trkpt><trkpt lat="45.84700765438388" lon="9.258072441979948"><ele>365.0</ele><time>2026-04-12T09:53:01.001Z</time></trkpt><trkpt lat="45.84711259750023" lon="9.25826744532146"><ele>365.0</ele><time>2026-04-12T09:53:02.001Z</time></trkpt><trkpt lat="45.84722006622357" lon="9.258482201289551"><ele>366.33333333333337</ele><time>2026-04-12T09:53:03.001Z</time></trkpt><trkpt lat="45.84733511526524" lon="9.258721686685591"><ele>367.6666666666667</ele><time>2026-04-12T09:53:04.001Z</time></trkpt><trkpt lat="45.84748834101235" lon="9.258951107402808"><ele>369.0</ele><time>2026-04-12T09:53:05.001Z</time></trkpt><trkpt lat="45.84760685784866" lon="9.259224646875214"><ele>368.0</ele><time>2026-04-12T09:53:06.001Z</time></trkpt><trkpt lat="45.84772431210938" lon="9.259501032087211"><ele>367.0</ele><time>2026-04-12T09:53:07.001Z</time></trkpt><trkpt lat="45.847853308986174" lon="9.259791586727882"><ele>366.0</ele><time>2026-04-12T09:53:08.002Z</time></trkpt><trkpt lat="45.8479850464601" lon="9.26006561267463"><ele>365.0</ele><time>2026-04-12T09:53:09.002Z</time></trkpt><trkpt lat="45.84811402371407" lon="9.260330880804483"><ele>365.0</ele><time>2026-04-12T09:53:10.002Z</time></trkpt><trkpt lat="45.84823746601493" lon="9.260581884396757"><ele>365.0</ele><time>2026-04-12T09:53:11.002Z</time></trkpt><trkpt lat="45.84834705953348" lon="9.260810102647444"><ele>365.0</ele><time>2026-04-12T09:53:12.002Z</time></trkpt><trkpt lat="45.84844761075127" lon="9.261020583257036"><ele>367.0</ele><time>2026-04-12T09:53:13.002Z</time></trkpt><trkpt lat="45.848524286384205" lon="9.261219108604495"><ele>369.0</ele><time>2026-04-12T09:53:14.002Z</time></trkpt><trkpt lat="45.848627560913904" lon="9.261394503332525"><ele>371.0</ele><time>2026-04-12T09:53:15.002Z</time></trkpt><trkpt lat="45.848711292684655" lon="9.2615752959895"><ele>371.0</ele><time>2026-04-12T09:53:16.002Z</time></trkpt><trkpt lat="45.84879552350672" lon="9.26175249994515"><ele>371.0</ele><time>2026-04-12T09:53:17.002Z</time></trkpt><trkpt lat="45.848886258491405" lon="9.261932431638138"><ele>371.0</ele><time>2026-04-12T09:53:18.002Z</time></trkpt><trkpt lat="45.84899358296063" lon="9.262126784023875"><ele>371.33333333333337</ele><time>2026-04-12T09:53:19.002Z</time></trkpt><trkpt lat="45.84910187572401" lon="9.262328018575776"><ele>371.6666666666667</ele><time>2026-04-12T09:53:20.002Z</time></trkpt><trkpt lat="45.8492419938674" lon="9.262529393756587"><ele>372.0</ele><time>2026-04-12T09:53:21.002Z</time></trkpt><trkpt lat="45.849387501345376" lon="9.262721508784004"><ele>372.0</ele><time>2026-04-12T09:53:22.002Z</time></trkpt><trkpt lat="45.84954026503528" lon="9.262919709359947"><ele>372.0</ele><time>2026-04-12T09:53:23.002Z</time></trkpt><trkpt lat="45.8496990074448" lon="9.26312512546646"><ele>372.0</ele><time>2026-04-12T09:53:24.002Z</time></trkpt><trkpt lat="45.84986076782232" lon="9.263321122248183"><ele>372.3333333333333</ele><time>2026-04-12T09:53:25.002Z</time></trkpt><trkpt lat="45.85001573585268" lon="9.263542639808215"><ele>372.66666666666663</ele><time>2026-04-12T09:53:26.002Z</time></trkpt><trkpt lat="45.8501582947275" lon="9.263759376792798"><ele>373.0</ele><time>2026-04-12T09:53:27.002Z</time></trkpt><trkpt lat="45.85030137588003" lon="9.26398555492317"><ele>375.0</ele><time>2026-04-12T09:53:28.002Z</time></trkpt><trkpt lat="45.850452586284824" lon="9.26422538969949"><ele>377.0</ele><time>2026-04-12T09:53:29.002Z</time></trkpt><trkpt lat="45.85059603880612" lon="9.26449207056897"><ele>377.0</ele><time>2026-04-12T09:53:30.002Z</time></trkpt><trkpt lat="45.85075196299565" lon="9.26474863507941"><ele>377.0</ele><time>2026-04-12T09:53:31.002Z</time></trkpt><trkpt lat="45.85090838584988" lon="9.265006435223855"><ele>377.0</ele><time>2026-04-12T09:53:32.002Z</time></trkpt><trkpt lat="45.851070585292305" lon="9.265258667969054"><ele>377.0</ele><time>2026-04-12T09:53:33.002Z</time></trkpt><trkpt lat="45.85122651338003" lon="9.265527443342018"><ele>378.5</ele><time>2026-04-12T09:53:34.002Z</time></trkpt><trkpt lat="45.851383667621484" lon="9.265783791753945"><ele>380.0</ele><time>2026-04-12T09:53:35.002Z</time></trkpt><trkpt lat="45.85154686390796" lon="9.266053810496615"><ele>380.0</ele><time>2026-04-12T09:53:36.002Z</time></trkpt><trkpt lat="45.85170690999319" lon="9.266317418232724"><ele>380.0</ele><time>2026-04-12T09:53:37.002Z</time></trkpt><trkpt lat="45.85186778420514" lon="9.266585005450645"><ele>380.0</ele><time>2026-04-12T09:53:38.002Z</time></trkpt><trkpt lat="45.85202858636208" lon="9.26685634746863"><ele>380.0</ele><time>2026-04-12T09:53:39.002Z</time></trkpt><trkpt lat="45.85218250279345" lon="9.267133531085676"><ele>382.5</ele><time>2026-04-12T09:53:40.002Z</time></trkpt><trkpt lat="45.852328596741195" lon="9.267415589742633"><ele>385.0</ele><time>2026-04-12T09:53:41.002Z</time></trkpt><trkpt lat="45.852461865805644" lon="9.26767809724942"><ele>385.0</ele><time>2026-04-12T09:53:42.002Z</time></trkpt><trkpt lat="45.85259894424276" lon="9.267941498515457"><ele>385.0</ele><time>2026-04-12T09:53:43.002Z</time></trkpt><trkpt lat="45.85271957918444" lon="9.26821136524768"><ele>384.6666666666667</ele><time>2026-04-12T09:53:44.002Z</time></trkpt><trkpt lat="45.852851146875025" lon="9.268434887459184"><ele>384.33333333333337</ele><time>2026-04-12T09:53:45.002Z</time></trkpt><trkpt lat="45.85295074277302" lon="9.268642746290881"><ele>384.0</ele><time>2026-04-12T09:53:46.002Z</time></trkpt><trkpt lat="45.85304080424419" lon="9.26884410213802"><ele>384.66666666666663</ele><time>2026-04-12T09:53:47.002Z</time></trkpt><trkpt lat="45.85311468105806" lon="9.269045694765909"><ele>385.3333333333333</ele><time>2026-04-12T09:53:48.002Z</time></trkpt><trkpt lat="45.85317457587231" lon="9.26924667284637"><ele>386.0</ele><time>2026-04-12T09:53:49.002Z</time></trkpt><trkpt lat="45.85319728026685" lon="9.26948157803196"><ele>386.0</ele><time>2026-04-12T09:53:50Z</time></trkpt><trkpt lat="45.85321953150203" lon="9.2697076328235"><ele>386.0</ele><time>2026-04-12T09:53:51Z</time></trkpt><trkpt lat="45.853241493222825" lon="9.269901369110258"><ele>386.0</ele><time>2026-04-12T09:53:52Z</time></trkpt><trkpt lat="45.85321660455583" lon="9.27010797821495"><ele>386.0</ele><time>2026-04-12T09:53:53Z</time></trkpt><trkpt lat="45.85321008361991" lon="9.270321618366841"><ele>387.66666666666663</ele><time>2026-04-12T09:53:54Z</time></trkpt><trkpt lat="45.85315375545881" lon="9.270542558446168"><ele>389.33333333333337</ele><time>2026-04-12T09:53:55Z</time></trkpt><trkpt lat="45.8531069031359" lon="9.270780967185187"><ele>391.0</ele><time>2026-04-12T09:53:56Z</time></trkpt><trkpt lat="45.853068227589056" lon="9.271019892857165"><ele>391.33333333333337</ele><time>2026-04-12T09:53:57Z</time></trkpt><trkpt lat="45.853032190080896" lon="9.271263222488889"><ele>391.66666666666663</ele><time>2026-04-12T09:53:58Z</time></trkpt><trkpt lat="45.85302879617143" lon="9.271489533614407"><ele>392.0</ele><time>2026-04-12T09:53:59Z</time></trkpt><trkpt lat="45.8530389426566" lon="9.271665138566325"><ele>391.66666666666663</ele><time>2026-04-12T09:54:00Z</time></trkpt><trkpt lat="45.85305058925979" lon="9.271792396966042"><ele>391.3333333333333</ele><time>2026-04-12T09:54:01Z</time></trkpt><trkpt lat="45.853067906053504" lon="9.271933142801332"><ele>391.0</ele><time>2026-04-12T09:54:03Z</time></trkpt><trkpt lat="45.85309241934932" lon="9.272069440394796"><ele>390.66666666666663</ele><time>2026-04-12T09:54:05Z</time></trkpt><trkpt lat="45.85310496508979" lon="9.272162767400461"><ele>390.3333333333333</ele><time>2026-04-12T09:54:06Z</time></trkpt><trkpt lat="45.85316395029125" lon="9.272271930138446"><ele>390.0</ele><time>2026-04-12T09:54:08Z</time></trkpt><trkpt lat="45.853292436408985" lon="9.272224079785842"><ele>390.0</ele><time>2026-04-12T09:54:10Z</time></trkpt><trkpt lat="45.85337318292617" lon="9.272130580937047"><ele>390.0</ele><time>2026-04-12T09:54:11Z</time></trkpt><trkpt lat="45.85349899830333" lon="9.272073428832378"><ele>390.0</ele><time>2026-04-12T09:54:12Z</time></trkpt><trkpt lat="45.853638169659376" lon="9.271968732592157"><ele>390.0</ele><time>2026-04-12T09:54:13Z</time></trkpt><trkpt lat="45.853807876684904" lon="9.271842229200773"><ele>389.0</ele><time>2026-04-12T09:54:14Z</time></trkpt><trkpt lat="45.8539742507064" lon="9.271744228391018"><ele>388.0</ele><time>2026-04-12T09:54:15Z</time></trkpt><trkpt lat="45.85412613107123" lon="9.271614418687061"><ele>387.0</ele><time>2026-04-12T09:54:16Z</time></trkpt><trkpt lat="45.85424166002908" lon="9.271494895401842"><ele>388.25</ele><time>2026-04-12T09:54:17Z</time></trkpt><trkpt lat="45.85433419261321" lon="9.271375526838193"><ele>389.5</ele><time>2026-04-12T09:54:18Z</time></trkpt><trkpt lat="45.854427578865035" lon="9.271236555318774"><ele>390.75</ele><time>2026-04-12T09:54:19Z</time></trkpt><trkpt lat="45.85450729078871" lon="9.271090934598769"><ele>392.0</ele><time>2026-04-12T09:54:20Z</time></trkpt><trkpt lat="45.854572724836046" lon="9.270962085721694"><ele>391.99999999999994</ele><time>2026-04-12T09:54:21Z</time></trkpt><trkpt lat="45.85462385278255" lon="9.270839219076164"><ele>392.0</ele><time>2026-04-12T09:54:22Z</time></trkpt><trkpt lat="45.854665150094206" lon="9.270720498524879"><ele>392.0</ele><time>2026-04-12T09:54:23Z</time></trkpt><trkpt lat="45.854704355730846" lon="9.270607173102366"><ele>392.0</ele><time>2026-04-12T09:54:24Z</time></trkpt><trkpt lat="45.85474113655135" lon="9.270501495769373"><ele>391.99999999999994</ele><time>2026-04-12T09:54:25Z</time></trkpt><trkpt lat="45.854777482435985" lon="9.270398578555398"><ele>392.0</ele><time>2026-04-12T09:54:26Z</time></trkpt><trkpt lat="45.85481450740369" lon="9.270291588436539"><ele>391.3333333333333</ele><time>2026-04-12T09:54:27Z</time></trkpt><trkpt lat="45.85485493632913" lon="9.27018119740341"><ele>390.66666666666663</ele><time>2026-04-12T09:54:28Z</time></trkpt><trkpt lat="45.85490287231741" lon="9.27005656149818"><ele>390.0</ele><time>2026-04-12T09:54:29Z</time></trkpt><trkpt lat="45.85494148861834" lon="9.269947620176078"><ele>389.33333333333337</ele><time>2026-04-12T09:54:30Z</time></trkpt><trkpt lat="45.85497694870076" lon="9.269858811793169"><ele>388.6666666666667</ele><time>2026-04-12T09:54:31Z</time></trkpt><trkpt lat="45.85501486774801" lon="9.26976096639866"><ele>388.0</ele><time>2026-04-12T09:54:32.001Z</time></trkpt><trkpt lat="45.855050608950016" lon="9.26967447743923"><ele>387.85714285714283</ele><time>2026-04-12T09:54:33.001Z</time></trkpt><trkpt lat="45.85509195710338" lon="9.269589660646872"><ele>387.7142857142857</ele><time>2026-04-12T09:54:34.001Z</time></trkpt><trkpt lat="45.85513831453939" lon="9.269519149073759"><ele>387.57142857142856</ele><time>2026-04-12T09:54:35.001Z</time></trkpt><trkpt lat="45.855192472063564" lon="9.26945982558933"><ele>387.42857142857144</ele><time>2026-04-12T09:54:36.001Z</time></trkpt><trkpt lat="45.85525347813151" lon="9.269419112918296"><ele>387.28571428571433</ele><time>2026-04-12T09:54:37.001Z</time></trkpt><trkpt lat="45.8553188989635" lon="9.269393539980113"><ele>387.14285714285717</ele><time>2026-04-12T09:54:38.001Z</time></trkpt><trkpt lat="45.855386673608805" lon="9.269379597253264"><ele>387.0</ele><time>2026-04-12T09:54:39.001Z</time></trkpt><trkpt lat="45.85546526048056" lon="9.26937369769593"><ele>387.0</ele><time>2026-04-12T09:54:40.001Z</time></trkpt><trkpt lat="45.85553339016945" lon="9.269396117644146"><ele>387.0</ele><time>2026-04-12T09:54:41.001Z</time></trkpt><trkpt lat="45.85561281397735" lon="9.26941536862248"><ele>387.0</ele><time>2026-04-12T09:54:42.001Z</time></trkpt><trkpt lat="45.855689438842965" lon="9.269423471776086"><ele>387.0</ele><time>2026-04-12T09:54:43.001Z</time></trkpt><trkpt lat="45.855801130035026" lon="9.269429429411005"><ele>387.0</ele><time>2026-04-12T09:54:45.001Z</time></trkpt><trkpt lat="45.85589612136544" lon="9.269448688834183"><ele>387.0</ele><time>2026-04-12T09:54:47.001Z</time></trkpt><trkpt lat="45.85601642507584" lon="9.269474238080283"><ele>387.5</ele><time>2026-04-12T09:54:49.001Z</time></trkpt><trkpt lat="45.85608064247389" lon="9.26948789266639"><ele>388.0</ele><time>2026-04-12T09:54:50.001Z</time></trkpt><trkpt lat="45.856153304687446" lon="9.269513986503874"><ele>388.5</ele><time>2026-04-12T09:54:51.001Z</time></trkpt><trkpt lat="45.856228335021925" lon="9.269548859158695"><ele>389.0</ele><time>2026-04-12T09:54:52.001Z</time></trkpt><trkpt lat="45.85631919332738" lon="9.269588837497382"><ele>389.5</ele><time>2026-04-12T09:54:53.001Z</time></trkpt><trkpt lat="45.856426133866606" lon="9.269634197977451"><ele>390.0</ele><time>2026-04-12T09:54:54.001Z</time></trkpt><trkpt lat="45.85653623806895" lon="9.269681230085533"><ele>390.0</ele><time>2026-04-12T09:54:55.001Z</time></trkpt><trkpt lat="45.85664637727431" lon="9.269730638134572"><ele>390.0</ele><time>2026-04-12T09:54:56.001Z</time></trkpt><trkpt lat="45.85676200154708" lon="9.269780154050881"><ele>390.0</ele><time>2026-04-12T09:54:57.001Z</time></trkpt><trkpt lat="45.85687305526808" lon="9.269818960647948"><ele>390.0</ele><time>2026-04-12T09:54:58.001Z</time></trkpt><trkpt lat="45.8569716619439" lon="9.269831750187876"><ele>390.0</ele><time>2026-04-12T09:54:59.001Z</time></trkpt><trkpt lat="45.85707949617394" lon="9.269821221780681"><ele>390.75</ele><time>2026-04-12T09:55:00.001Z</time></trkpt><trkpt lat="45.85720481520075" lon="9.269797944610158"><ele>391.5</ele><time>2026-04-12T09:55:01.001Z</time></trkpt><trkpt lat="45.85732945907132" lon="9.269765927207544"><ele>392.25</ele><time>2026-04-12T09:55:02.001Z</time></trkpt><trkpt lat="45.85744226857615" lon="9.269744188509174"><ele>393.0</ele><time>2026-04-12T09:55:03.001Z</time></trkpt><trkpt lat="45.8575355642448" lon="9.269735623267186"><ele>393.4</ele><time>2026-04-12T09:55:04.001Z</time></trkpt><trkpt lat="45.857623667575794" lon="9.269723190629767"><ele>393.79999999999995</ele><time>2026-04-12T09:55:05.001Z</time></trkpt><trkpt lat="45.857714184921505" lon="9.269707280834668"><ele>394.2</ele><time>2026-04-12T09:55:06.001Z</time></trkpt><trkpt lat="45.857808287340255" lon="9.269690915702125"><ele>394.6</ele><time>2026-04-12T09:55:07.001Z</time></trkpt><trkpt lat="45.85791026338696" lon="9.269688272570326"><ele>395.0</ele><time>2026-04-12T09:55:08.001Z</time></trkpt><trkpt lat="45.85802401050185" lon="9.269678694502895"><ele>395.0</ele><time>2026-04-12T09:55:09.001Z</time></trkpt><trkpt lat="45.85814094055619" lon="9.269675127837173"><ele>395.0</ele><time>2026-04-12T09:55:10.001Z</time></trkpt><trkpt lat="45.858263715503966" lon="9.26968638303961"><ele>395.0</ele><time>2026-04-12T09:55:11.001Z</time></trkpt><trkpt lat="45.85838329493091" lon="9.269711698242297"><ele>395.0</ele><time>2026-04-12T09:55:12.001Z</time></trkpt><trkpt lat="45.85849982765426" lon="9.269732941342168"><ele>396.2</ele><time>2026-04-12T09:55:13.001Z</time></trkpt><trkpt lat="45.85860987611061" lon="9.269763704086401"><ele>397.4</ele><time>2026-04-12T09:55:14.001Z</time></trkpt><trkpt lat="45.85871534896455" lon="9.269774556609628"><ele>398.6</ele><time>2026-04-12T09:55:15.001Z</time></trkpt><trkpt lat="45.85882228941504" lon="9.269762271498488"><ele>399.8</ele><time>2026-04-12T09:55:16.001Z</time></trkpt><trkpt lat="45.85892528329495" lon="9.269732789612325"><ele>401.0</ele><time>2026-04-12T09:55:17.001Z</time></trkpt><trkpt lat="45.859031864029774" lon="9.269697634906377"><ele>401.0</ele><time>2026-04-12T09:55:18.001Z</time></trkpt><trkpt lat="45.85913114549618" lon="9.269644750492022"><ele>401.0</ele><time>2026-04-12T09:55:19.001Z</time></trkpt><trkpt lat="45.85923455395917" lon="9.269577731570092"><ele>401.0</ele><time>2026-04-12T09:55:20.002Z</time></trkpt><trkpt lat="45.85933274067321" lon="9.269506424325158"><ele>401.0</ele><time>2026-04-12T09:55:21.002Z</time></trkpt><trkpt lat="45.85942537600074" lon="9.269431296287342"><ele>401.0</ele><time>2026-04-12T09:55:22.002Z</time></trkpt><trkpt lat="45.85951073741286" lon="9.269362641926747"><ele>402.3333333333333</ele><time>2026-04-12T09:55:23.002Z</time></trkpt><trkpt lat="45.85958958906369" lon="9.269304043944638"><ele>403.66666666666663</ele><time>2026-04-12T09:55:24.002Z</time></trkpt><trkpt lat="45.859660181992986" lon="9.269234597458112"><ele>405.0</ele><time>2026-04-12T09:55:25.002Z</time></trkpt><trkpt lat="45.859721460746385" lon="9.269157377055233"><ele>406.33333333333337</ele><time>2026-04-12T09:55:26.002Z</time></trkpt><trkpt lat="45.85977961887288" lon="9.269067433936556"><ele>407.6666666666667</ele><time>2026-04-12T09:55:27.002Z</time></trkpt><trkpt lat="45.85983606627309" lon="9.268967012443543"><ele>409.0</ele><time>2026-04-12T09:55:28.002Z</time></trkpt><trkpt lat="45.85988442444598" lon="9.26888463390203"><ele>409.00000000000006</ele><time>2026-04-12T09:55:29.002Z</time></trkpt><trkpt lat="45.85993356238061" lon="9.268822769819849"><ele>409.0</ele><time>2026-04-12T09:55:30.002Z</time></trkpt><trkpt lat="45.85998949656274" lon="9.268779160204382"><ele>409.0</ele><time>2026-04-12T09:55:31.002Z</time></trkpt><trkpt lat="45.86010543588408" lon="9.26878318195855"><ele>409.0</ele><time>2026-04-12T09:55:33.002Z</time></trkpt><trkpt lat="45.86017134626905" lon="9.268839964763778"><ele>409.00000000000006</ele><time>2026-04-12T09:55:34.002Z</time></trkpt><trkpt lat="45.86022258254476" lon="9.268917708284741"><ele>409.0</ele><time>2026-04-12T09:55:35.002Z</time></trkpt><trkpt lat="45.8602521624001" lon="9.269004340234478"><ele>409.33333333333337</ele><time>2026-04-12T09:55:36.002Z</time></trkpt><trkpt lat="45.86028502250727" lon="9.26917111840855"><ele>409.6666666666667</ele><time>2026-04-12T09:55:38.002Z</time></trkpt><trkpt lat="45.860344623363034" lon="9.269315626095286"><ele>410.0</ele><time>2026-04-12T09:55:40.002Z</time></trkpt><trkpt lat="45.86039849911873" lon="9.269364490179864"><ele>410.33333333333337</ele><time>2026-04-12T09:55:41.002Z</time></trkpt><trkpt lat="45.8604647026587" lon="9.269384350707309"><ele>410.6666666666667</ele><time>2026-04-12T09:55:42.002Z</time></trkpt><trkpt lat="45.86053884725778" lon="9.26938795784138"><ele>411.0</ele><time>2026-04-12T09:55:43.002Z</time></trkpt><trkpt lat="45.86061649551143" lon="9.269383410130816"><ele>411.0</ele><time>2026-04-12T09:55:44.002Z</time></trkpt><trkpt lat="45.86070079912827" lon="9.269385575180012"><ele>411.0</ele><time>2026-04-12T09:55:45.002Z</time></trkpt><trkpt lat="45.860786031146844" lon="9.269396086537625"><ele>411.0</ele><time>2026-04-12T09:55:46.002Z</time></trkpt><trkpt lat="45.86087058102439" lon="9.2694210997646"><ele>411.0</ele><time>2026-04-12T09:55:47.002Z</time></trkpt><trkpt lat="45.86096571576642" lon="9.269471891916309"><ele>411.0</ele><time>2026-04-12T09:55:48.002Z</time></trkpt><trkpt lat="45.86107377309182" lon="9.26952284405178"><ele>411.5</ele><time>2026-04-12T09:55:49.002Z</time></trkpt><trkpt lat="45.86115407995237" lon="9.269570690671838"><ele>412.0</ele><time>2026-04-12T09:55:50.002Z</time></trkpt><trkpt lat="45.86122341491826" lon="9.269604780545835"><ele>412.5</ele><time>2026-04-12T09:55:51.002Z</time></trkpt><trkpt lat="45.861331638321154" lon="9.269628538147755"><ele>413.0</ele><time>2026-04-12T09:55:53.002Z</time></trkpt><trkpt lat="45.86140667861647" lon="9.269638911539058"><ele>413.5</ele><time>2026-04-12T09:55:55.002Z</time></trkpt><trkpt lat="45.86146869721226" lon="9.269676420914264"><ele>414.0</ele><time>2026-04-12T09:55:58Z</time></trkpt><trkpt lat="45.861515738382764" lon="9.269753064831937"><ele>415.2</ele><time>2026-04-12T09:56:00Z</time></trkpt><trkpt lat="45.86156283948076" lon="9.269912999984566"><ele>416.4</ele><time>2026-04-12T09:56:02Z</time></trkpt><trkpt lat="45.861590522949584" lon="9.27001042735656"><ele>417.6</ele><time>2026-04-12T09:56:03Z</time></trkpt><trkpt lat="45.86161197629734" lon="9.27012057547664"><ele>418.8</ele><time>2026-04-12T09:56:04Z</time></trkpt><trkpt lat="45.86162660115147" lon="9.270259773356257"><ele>420.0</ele><time>2026-04-12T09:56:05Z</time></trkpt><trkpt lat="45.86164145133415" lon="9.270404104347206"><ele>420.0</ele><time>2026-04-12T09:56:06Z</time></trkpt><trkpt lat="45.86165597638453" lon="9.270552863692426"><ele>420.0</ele><time>2026-04-12T09:56:07Z</time></trkpt><trkpt lat="45.861671993305904" lon="9.270701230788152"><ele>420.0</ele><time>2026-04-12T09:56:08Z</time></trkpt><trkpt lat="45.86169056662958" lon="9.270828245397572"><ele>420.0</ele><time>2026-04-12T09:56:09Z</time></trkpt><trkpt lat="45.861708786171704" lon="9.270959890126173"><ele>420.0</ele><time>2026-04-12T09:56:10Z</time></trkpt><trkpt lat="45.86173294963578" lon="9.271111256986895"><ele>420.4</ele><time>2026-04-12T09:56:11Z</time></trkpt><trkpt lat="45.861755660644185" lon="9.27124413476278"><ele>420.8</ele><time>2026-04-12T09:56:12Z</time></trkpt><trkpt lat="45.861776053240256" lon="9.271396847318847"><ele>421.20000000000005</ele><time>2026-04-12T09:56:13Z</time></trkpt><trkpt lat="45.861797452713255" lon="9.271555454187164"><ele>421.6</ele><time>2026-04-12T09:56:14Z</time></trkpt><trkpt lat="45.861818185309836" lon="9.27171774173257"><ele>422.0</ele><time>2026-04-12T09:56:15Z</time></trkpt><trkpt lat="45.8618350966891" lon="9.271890541516417"><ele>421.5</ele><time>2026-04-12T09:56:16Z</time></trkpt><trkpt lat="45.8618485720658" lon="9.272085013480263"><ele>421.0</ele><time>2026-04-12T09:56:17Z</time></trkpt><trkpt lat="45.86186157924755" lon="9.272280798507682"><ele>420.5</ele><time>2026-04-12T09:56:18Z</time></trkpt><trkpt lat="45.861857367148836" lon="9.272493277967017"><ele>420.0</ele><time>2026-04-12T09:56:19Z</time></trkpt><trkpt lat="45.861861685665865" lon="9.272727096702752"><ele>420.0</ele><time>2026-04-12T09:56:20Z</time></trkpt><trkpt lat="45.86186467933073" lon="9.272978083178087"><ele>420.0</ele><time>2026-04-12T09:56:21Z</time></trkpt><trkpt lat="45.86186804261351" lon="9.273238227851975"><ele>420.0</ele><time>2026-04-12T09:56:22Z</time></trkpt><trkpt lat="45.86188432003941" lon="9.273478355073312"><ele>421.0</ele><time>2026-04-12T09:56:23Z</time></trkpt><trkpt lat="45.86188574044457" lon="9.27369700591176"><ele>422.0</ele><time>2026-04-12T09:56:24Z</time></trkpt><trkpt lat="45.86188634814985" lon="9.27389077775572"><ele>423.0</ele><time>2026-04-12T09:56:25Z</time></trkpt><trkpt lat="45.86188625983525" lon="9.274059751788508"><ele>424.0</ele><time>2026-04-12T09:56:26Z</time></trkpt><trkpt lat="45.86188905143193" lon="9.274233133131824"><ele>425.25</ele><time>2026-04-12T09:56:27Z</time></trkpt><trkpt lat="45.86189486778435" lon="9.27440713789667"><ele>426.5</ele><time>2026-04-12T09:56:28Z</time></trkpt><trkpt lat="45.86191417290115" lon="9.274602619936301"><ele>427.75</ele><time>2026-04-12T09:56:29Z</time></trkpt><trkpt lat="45.86194130354333" lon="9.274817429781274"><ele>429.0</ele><time>2026-04-12T09:56:30Z</time></trkpt><trkpt lat="45.861983050097656" lon="9.275029632735428"><ele>430.0</ele><time>2026-04-12T09:56:31Z</time></trkpt><trkpt lat="45.86205142244762" lon="9.275227457199511"><ele>431.0</ele><time>2026-04-12T09:56:32Z</time></trkpt><trkpt lat="45.862141987099186" lon="9.275402707708004"><ele>432.0</ele><time>2026-04-12T09:56:33Z</time></trkpt><trkpt lat="45.86224357471948" lon="9.27556164544606"><ele>434.66666666666663</ele><time>2026-04-12T09:56:34Z</time></trkpt><trkpt lat="45.86236703083181" lon="9.275696377387119"><ele>437.3333333333333</ele><time>2026-04-12T09:56:35Z</time></trkpt><trkpt lat="45.86251282150407" lon="9.275815329582967"><ele>440.0</ele><time>2026-04-12T09:56:36Z</time></trkpt><trkpt lat="45.86268125472167" lon="9.275906063003719"><ele>442.66666666666663</ele><time>2026-04-12T09:56:37Z</time></trkpt><trkpt lat="45.8628738797822" lon="9.275963047948375"><ele>445.33333333333337</ele><time>2026-04-12T09:56:38Z</time></trkpt><trkpt lat="45.86306840369052" lon="9.275975446009445"><ele>448.0</ele><time>2026-04-12T09:56:39Z</time></trkpt><trkpt lat="45.86323458759152" lon="9.275944636715757"><ele>448.0</ele><time>2026-04-12T09:56:40Z</time></trkpt><trkpt lat="45.86339435249782" lon="9.27587409324414"><ele>448.0</ele><time>2026-04-12T09:56:41Z</time></trkpt><trkpt lat="45.86354838105667" lon="9.275771104224384"><ele>448.0</ele><time>2026-04-12T09:56:42Z</time></trkpt><trkpt lat="45.863678799224076" lon="9.275644671262516"><ele>456.6666666666667</ele><time>2026-04-12T09:56:43Z</time></trkpt><trkpt lat="45.86379917462936" lon="9.275486837064033"><ele>465.33333333333337</ele><time>2026-04-12T09:56:44Z</time></trkpt><trkpt lat="45.86390613885519" lon="9.275298099643335"><ele>474.0</ele><time>2026-04-12T09:56:45Z</time></trkpt><trkpt lat="45.86398485867927" lon="9.275111164164198"><ele>474.0</ele><time>2026-04-12T09:56:46Z</time></trkpt><trkpt lat="45.86404366554452" lon="9.27491423564338"><ele>474.0</ele><time>2026-04-12T09:56:47Z</time></trkpt><trkpt lat="45.86408455937143" lon="9.274714600543849"><ele>474.0</ele><time>2026-04-12T09:56:48Z</time></trkpt><trkpt lat="45.86411194673522" lon="9.274522797820053"><ele>474.0</ele><time>2026-04-12T09:56:49.001Z</time></trkpt><trkpt lat="45.86413744171243" lon="9.274320628915866"><ele>472.0</ele><time>2026-04-12T09:56:50.001Z</time></trkpt><trkpt lat="45.86416593372465" lon="9.274129521144495"><ele>470.0</ele><time>2026-04-12T09:56:51.001Z</time></trkpt><trkpt lat="45.86419374419841" lon="9.273953072380445"><ele>468.0</ele><time>2026-04-12T09:56:52.001Z</time></trkpt><trkpt lat="45.86421976656583" lon="9.273799604939942"><ele>466.0</ele><time>2026-04-12T09:56:53.001Z</time></trkpt><trkpt lat="45.8642464497499" lon="9.27363012601711"><ele>465.75</ele><time>2026-04-12T09:56:54.001Z</time></trkpt><trkpt lat="45.8642730147174" lon="9.273455182143143"><ele>465.5</ele><time>2026-04-12T09:56:55.001Z</time></trkpt><trkpt lat="45.86430398577423" lon="9.27327500552031"><ele>465.25</ele><time>2026-04-12T09:56:56.001Z</time></trkpt><trkpt lat="45.864343216313614" lon="9.273086063681847"><ele>465.0</ele><time>2026-04-12T09:56:57.001Z</time></trkpt><trkpt lat="45.864394964188435" lon="9.272893418518043"><ele>475.33333333333337</ele><time>2026-04-12T09:56:58.001Z</time></trkpt><trkpt lat="45.864459050921724" lon="9.27269089040039"><ele>485.6666666666667</ele><time>2026-04-12T09:56:59.001Z</time></trkpt><trkpt lat="45.86452428050546" lon="9.272478926495701"><ele>496.0</ele><time>2026-04-12T09:57:00.001Z</time></trkpt><trkpt lat="45.864591216673155" lon="9.272253448654965"><ele>496.0</ele><time>2026-04-12T09:57:01.001Z</time></trkpt><trkpt lat="45.864675278128956" lon="9.27203681446138"><ele>496.0</ele><time>2026-04-12T09:57:02.001Z</time></trkpt><trkpt lat="45.864750965651446" lon="9.271790333722784"><ele>496.0</ele><time>2026-04-12T09:57:03.001Z</time></trkpt><trkpt lat="45.86482034545234" lon="9.271567387826526"><ele>492.33333333333337</ele><time>2026-04-12T09:57:04.001Z</time></trkpt><trkpt lat="45.86488355927824" lon="9.271363880400523"><ele>488.66666666666663</ele><time>2026-04-12T09:57:05.001Z</time></trkpt><trkpt lat="45.86495094372575" lon="9.271146945900071"><ele>485.0</ele><time>2026-04-12T09:57:06.001Z</time></trkpt><trkpt lat="45.86501578275442" lon="9.270938206603052"><ele>485.0</ele><time>2026-04-12T09:57:07.001Z</time></trkpt><trkpt lat="45.86507739958126" lon="9.270736591092579"><ele>485.0</ele><time>2026-04-12T09:57:08.001Z</time></trkpt><trkpt lat="45.86514198493184" lon="9.27052118636106"><ele>485.0</ele><time>2026-04-12T09:57:09.001Z</time></trkpt><trkpt lat="45.86520443141714" lon="9.270317471564864"><ele>487.0</ele><time>2026-04-12T09:57:10.001Z</time></trkpt><trkpt lat="45.865251906773906" lon="9.270166362699964"><ele>489.0</ele><time>2026-04-12T09:57:11.001Z</time></trkpt><trkpt lat="45.865305738219625" lon="9.26999315442919"><ele>491.0</ele><time>2026-04-12T09:57:12.001Z</time></trkpt><trkpt lat="45.865359074235116" lon="9.269821385722956"><ele>493.0</ele><time>2026-04-12T09:57:13.001Z</time></trkpt><trkpt lat="45.86540823606342" lon="9.269663059838969"><ele>493.0</ele><time>2026-04-12T09:57:14.001Z</time></trkpt><trkpt lat="45.86544550875733" lon="9.269498796417006"><ele>493.0</ele><time>2026-04-12T09:57:15.001Z</time></trkpt><trkpt lat="45.86549517052619" lon="9.269336745163383"><ele>493.0</ele><time>2026-04-12T09:57:16.001Z</time></trkpt><trkpt lat="45.86554313347337" lon="9.26918403525628"><ele>493.0</ele><time>2026-04-12T09:57:17.001Z</time></trkpt><trkpt lat="45.865596007552725" lon="9.269034975047207"><ele>490.5</ele><time>2026-04-12T09:57:18.001Z</time></trkpt><trkpt lat="45.86564288185756" lon="9.268884049368543"><ele>488.0</ele><time>2026-04-12T09:57:19.001Z</time></trkpt><trkpt lat="45.86569475953862" lon="9.268738950044124"><ele>485.5</ele><time>2026-04-12T09:57:20.001Z</time></trkpt><trkpt lat="45.865737927794406" lon="9.268587006342974"><ele>483.0</ele><time>2026-04-12T09:57:21.001Z</time></trkpt><trkpt lat="45.86578288788394" lon="9.268435970764665"><ele>483.0</ele><time>2026-04-12T09:57:22.001Z</time></trkpt><trkpt lat="45.865828590695514" lon="9.268282446186602"><ele>483.0</ele><time>2026-04-12T09:57:23.001Z</time></trkpt><trkpt lat="45.865880211457494" lon="9.268124894176102"><ele>483.0</ele><time>2026-04-12T09:57:24.001Z</time></trkpt><trkpt lat="45.865947737268094" lon="9.267964808576535"><ele>483.0</ele><time>2026-04-12T09:57:25.001Z</time></trkpt><trkpt lat="45.8660356095726" lon="9.267817832314027"><ele>483.75</ele><time>2026-04-12T09:57:26.001Z</time></trkpt><trkpt lat="45.86612425057067" lon="9.267651826663407"><ele>484.5</ele><time>2026-04-12T09:57:27.001Z</time></trkpt><trkpt lat="45.866209506160025" lon="9.267478744040426"><ele>485.25</ele><time>2026-04-12T09:57:28.001Z</time></trkpt><trkpt lat="45.86630428934527" lon="9.267302590469177"><ele>486.0</ele><time>2026-04-12T09:57:29.001Z</time></trkpt><trkpt lat="45.86641009157877" lon="9.267114668781815"><ele>486.0</ele><time>2026-04-12T09:57:30.001Z</time></trkpt><trkpt lat="45.866505682908205" lon="9.266921988064338"><ele>486.0</ele><time>2026-04-12T09:57:31.001Z</time></trkpt><trkpt lat="45.866607262110115" lon="9.266739848677966"><ele>486.0</ele><time>2026-04-12T09:57:32.001Z</time></trkpt><trkpt lat="45.86670228969236" lon="9.26657702935248"><ele>486.5</ele><time>2026-04-12T09:57:33.001Z</time></trkpt><trkpt lat="45.86678910398615" lon="9.2664011976288"><ele>487.0</ele><time>2026-04-12T09:57:34.001Z</time></trkpt><trkpt lat="45.866875102616966" lon="9.266234606792482"><ele>487.5</ele><time>2026-04-12T09:57:35.001Z</time></trkpt><trkpt lat="45.866968578300146" lon="9.266080794051819"><ele>488.0</ele><time>2026-04-12T09:57:36.002Z</time></trkpt><trkpt lat="45.86706862277425" lon="9.265941891377585"><ele>488.0</ele><time>2026-04-12T09:57:37.002Z</time></trkpt><trkpt lat="45.867180848548344" lon="9.265825162251486"><ele>488.0</ele><time>2026-04-12T09:57:38.002Z</time></trkpt><trkpt lat="45.8673038436103" lon="9.265728395791719"><ele>488.0</ele><time>2026-04-12T09:57:39.002Z</time></trkpt><trkpt lat="45.86744180678527" lon="9.26563991917569"><ele>488.0</ele><time>2026-04-12T09:57:40.002Z</time></trkpt><trkpt lat="45.86759396323836" lon="9.265563678832606"><ele>486.5</ele><time>2026-04-12T09:57:41.002Z</time></trkpt><trkpt lat="45.86774845772837" lon="9.265522567506652"><ele>485.0</ele><time>2026-04-12T09:57:42.002Z</time></trkpt><trkpt lat="45.86788579492028" lon="9.265484220957568"><ele>483.5</ele><time>2026-04-12T09:57:43.002Z</time></trkpt><trkpt lat="45.868009148320986" lon="9.26543806822279"><ele>482.0</ele><time>2026-04-12T09:57:44.002Z</time></trkpt><trkpt lat="45.86813397949667" lon="9.265393266583352"><ele>482.0</ele><time>2026-04-12T09:57:45.002Z</time></trkpt><trkpt lat="45.868252148254186" lon="9.26535676158766"><ele>482.0</ele><time>2026-04-12T09:57:46.002Z</time></trkpt><trkpt lat="45.868361119836514" lon="9.265319777628763"><ele>482.0</ele><time>2026-04-12T09:57:47.002Z</time></trkpt><trkpt lat="45.86846711508875" lon="9.265281859730587"><ele>482.0</ele><time>2026-04-12T09:57:48.002Z</time></trkpt><trkpt lat="45.868572161439985" lon="9.265238940390361"><ele>483.5</ele><time>2026-04-12T09:57:49.002Z</time></trkpt><trkpt lat="45.86867775381145" lon="9.26519626866929"><ele>485.0</ele><time>2026-04-12T09:57:50.002Z</time></trkpt><trkpt lat="45.868785780825355" lon="9.26510674194164"><ele>486.5</ele><time>2026-04-12T09:57:51.002Z</time></trkpt><trkpt lat="45.8688849539842" lon="9.264956282980869"><ele>488.0</ele><time>2026-04-12T09:57:52.002Z</time></trkpt><trkpt lat="45.86896707686734" lon="9.264760657341446"><ele>488.0</ele><time>2026-04-12T09:57:53.002Z</time></trkpt><trkpt lat="45.869047430155675" lon="9.264556530689049"><ele>488.0</ele><time>2026-04-12T09:57:54.002Z</time></trkpt><trkpt lat="45.86914042031824" lon="9.26440415094616"><ele>488.0</ele><time>2026-04-12T09:57:55.002Z</time></trkpt><trkpt lat="45.86923069075677" lon="9.26429181836854"><ele>488.0</ele><time>2026-04-12T09:57:56.002Z</time></trkpt><trkpt lat="45.86930555063022" lon="9.264171690962176"><ele>491.0</ele><time>2026-04-12T09:57:57.002Z</time></trkpt><trkpt lat="45.8693710096406" lon="9.264054987303885"><ele>493.99999999999994</ele><time>2026-04-12T09:57:58.002Z</time></trkpt><trkpt lat="45.869430490299195" lon="9.263944645374172"><ele>496.99999999999994</ele><time>2026-04-12T09:57:59.002Z</time></trkpt><trkpt lat="45.86949456014953" lon="9.263843366150368"><ele>500.0</ele><time>2026-04-12T09:58:00.002Z</time></trkpt><trkpt lat="45.86950185922873" lon="9.263676594471765"><ele>503.0</ele><time>2026-04-12T09:58:01.002Z</time></trkpt><trkpt lat="45.86950471325814" lon="9.263513081492523"><ele>503.0</ele><time>2026-04-12T09:58:01.999Z</time></trkpt><trkpt lat="45.869502224525085" lon="9.26337521196599"><ele>502.99999999999994</ele><time>2026-04-12T09:58:02.999Z</time></trkpt><trkpt lat="45.869523743591195" lon="9.263233624700167"><ele>502.99999999999994</ele><time>2026-04-12T09:58:03.999Z</time></trkpt><trkpt lat="45.869559954393544" lon="9.26310637288164"><ele>503.0</ele><time>2026-04-12T09:58:04.999Z</time></trkpt><trkpt lat="45.86961444534051" lon="9.262979809918923"><ele>503.0</ele><time>2026-04-12T09:58:05.999Z</time></trkpt><trkpt lat="45.86968937119381" lon="9.262867961131318"><ele>499.75</ele><time>2026-04-12T09:58:06.999Z</time></trkpt><trkpt lat="45.86978422032508" lon="9.262788158833471"><ele>496.5</ele><time>2026-04-12T09:58:07.999Z</time></trkpt><trkpt lat="45.86988782118374" lon="9.262731187162936"><ele>493.25</ele><time>2026-04-12T09:58:08.999Z</time></trkpt><trkpt lat="45.870012790286566" lon="9.262720378021365"><ele>490.0</ele><time>2026-04-12T09:58:09.999Z</time></trkpt><trkpt lat="45.87015229464709" lon="9.262736354477147"><ele>490.0</ele><time>2026-04-12T09:58:10.999Z</time></trkpt><trkpt lat="45.870300908601536" lon="9.262772223907307"><ele>490.0</ele><time>2026-04-12T09:58:11.999Z</time></trkpt><trkpt lat="45.870440770064164" lon="9.262803876921813"><ele>490.0</ele><time>2026-04-12T09:58:12.999Z</time></trkpt><trkpt lat="45.8705653472204" lon="9.262820125640866"><ele>490.0</ele><time>2026-04-12T09:58:13.999Z</time></trkpt><trkpt lat="45.87069545431932" lon="9.26283808994078"><ele>490.0</ele><time>2026-04-12T09:58:14.999Z</time></trkpt><trkpt lat="45.87081972105984" lon="9.262840817580887"><ele>490.0</ele><time>2026-04-12T09:58:15.999Z</time></trkpt><trkpt lat="45.8709474067615" lon="9.262793049626861"><ele>490.0</ele><time>2026-04-12T09:58:17Z</time></trkpt><trkpt lat="45.871077075794005" lon="9.262699503275492"><ele>490.0</ele><time>2026-04-12T09:58:18Z</time></trkpt><trkpt lat="45.87118937950431" lon="9.262590808066268"><ele>490.0</ele><time>2026-04-12T09:58:19Z</time></trkpt><trkpt lat="45.871296566878286" lon="9.262494152742265"><ele>490.0</ele><time>2026-04-12T09:58:20Z</time></trkpt><trkpt lat="45.87141044939581" lon="9.262393987729046"><ele>490.0</ele><time>2026-04-12T09:58:21Z</time></trkpt><trkpt lat="45.871523323779996" lon="9.262280029684566"><ele>490.0</ele><time>2026-04-12T09:58:22Z</time></trkpt><trkpt lat="45.87165868644184" lon="9.262151566497907"><ele>496.6666666666667</ele><time>2026-04-12T09:58:23Z</time></trkpt><trkpt lat="45.87181144962352" lon="9.262001205733636"><ele>503.33333333333337</ele><time>2026-04-12T09:58:24Z</time></trkpt><trkpt lat="45.871968441496946" lon="9.26184668277529"><ele>510.0</ele><time>2026-04-12T09:58:25Z</time></trkpt><trkpt lat="45.87212119428214" lon="9.261668675015613"><ele>510.0</ele><time>2026-04-12T09:58:26Z</time></trkpt><trkpt lat="45.87228110921163" lon="9.261531508422902"><ele>510.0</ele><time>2026-04-12T09:58:27Z</time></trkpt><trkpt lat="45.872414770691584" lon="9.261405879062188"><ele>510.0</ele><time>2026-04-12T09:58:28Z</time></trkpt><trkpt lat="45.87254560629735" lon="9.26129420866531"><ele>508.0</ele><time>2026-04-12T09:58:29Z</time></trkpt><trkpt lat="45.87266876690988" lon="9.26120027159686"><ele>506.0</ele><time>2026-04-12T09:58:30Z</time></trkpt><trkpt lat="45.87278287738772" lon="9.26112982477737"><ele>504.0</ele><time>2026-04-12T09:58:31Z</time></trkpt><trkpt lat="45.8728894362753" lon="9.261052783481693"><ele>502.0</ele><time>2026-04-12T09:58:32Z</time></trkpt><trkpt lat="45.87299741963995" lon="9.260980570919424"><ele>502.0</ele><time>2026-04-12T09:58:33Z</time></trkpt><trkpt lat="45.87311494866452" lon="9.260936569726638"><ele>502.0</ele><time>2026-04-12T09:58:34Z</time></trkpt><trkpt lat="45.87322726851366" lon="9.260935453248251"><ele>502.0</ele><time>2026-04-12T09:58:35Z</time></trkpt><trkpt lat="45.87334884082539" lon="9.260969123500445"><ele>502.0</ele><time>2026-04-12T09:58:36Z</time></trkpt><trkpt lat="45.873491173105684" lon="9.261084885268911"><ele>506.0</ele><time>2026-04-12T09:58:37Z</time></trkpt><trkpt lat="45.87365243738082" lon="9.26118362356361"><ele>510.0</ele><time>2026-04-12T09:58:38Z</time></trkpt><trkpt lat="45.87379413573146" lon="9.261262907886762"><ele>514.0</ele><time>2026-04-12T09:58:39Z</time></trkpt><trkpt lat="45.87392649127863" lon="9.261301306655525"><ele>514.0</ele><time>2026-04-12T09:58:40Z</time></trkpt><trkpt lat="45.874081894300446" lon="9.261270025605281"><ele>514.0</ele><time>2026-04-12T09:58:41Z</time></trkpt><trkpt lat="45.87425425666909" lon="9.26118122979629"><ele>514.0</ele><time>2026-04-12T09:58:42Z</time></trkpt><trkpt lat="45.87442694207236" lon="9.261075824142091"><ele>513.3333333333334</ele><time>2026-04-12T09:58:43Z</time></trkpt><trkpt lat="45.87459414650676" lon="9.260954698167357"><ele>512.6666666666666</ele><time>2026-04-12T09:58:44Z</time></trkpt><trkpt lat="45.8747545915875" lon="9.260840762849915"><ele>512.0</ele><time>2026-04-12T09:58:45Z</time></trkpt><trkpt lat="45.87489101967874" lon="9.260807431960234"><ele>512.0</ele><time>2026-04-12T09:58:46Z</time></trkpt><trkpt lat="45.87500824786938" lon="9.260851132088629"><ele>512.0</ele><time>2026-04-12T09:58:47Z</time></trkpt><trkpt lat="45.87514204366282" lon="9.260947371265523"><ele>512.0</ele><time>2026-04-12T09:58:48Z</time></trkpt><trkpt lat="45.87530489531152" lon="9.261048308580374"><ele>512.0</ele><time>2026-04-12T09:58:49Z</time></trkpt><trkpt lat="45.875485474982675" lon="9.261151876216214"><ele>514.6666666666666</ele><time>2026-04-12T09:58:50Z</time></trkpt><trkpt lat="45.87567254627697" lon="9.261270785939441"><ele>517.3333333333334</ele><time>2026-04-12T09:58:51Z</time></trkpt><trkpt lat="45.875860536783286" lon="9.261391954772705"><ele>520.0</ele><time>2026-04-12T09:58:52Z</time></trkpt><trkpt lat="45.876053650802284" lon="9.261512201525342"><ele>520.0</ele><time>2026-04-12T09:58:53Z</time></trkpt><trkpt lat="45.876250680646656" lon="9.26162989440224"><ele>520.0</ele><time>2026-04-12T09:58:54Z</time></trkpt><trkpt lat="45.87644827801527" lon="9.261751005709222"><ele>520.0</ele><time>2026-04-12T09:58:55Z</time></trkpt><trkpt lat="45.87662551879454" lon="9.26185619276589"><ele>525.0</ele><time>2026-04-12T09:58:56Z</time></trkpt><trkpt lat="45.87680030479852" lon="9.261952138194575"><ele>530.0</ele><time>2026-04-12T09:58:57Z</time></trkpt><trkpt lat="45.87697824527841" lon="9.262027849734006"><ele>535.0</ele><time>2026-04-12T09:58:58Z</time></trkpt><trkpt lat="45.87716994064587" lon="9.262082920894741"><ele>535.0</ele><time>2026-04-12T09:58:59Z</time></trkpt><trkpt lat="45.87737193564106" lon="9.26210846720383"><ele>535.0</ele><time>2026-04-12T09:59:00.001Z</time></trkpt><trkpt lat="45.87757967357779" lon="9.262126106367303"><ele>535.0</ele><time>2026-04-12T09:59:01.001Z</time></trkpt><trkpt lat="45.87779084222951" lon="9.262144629523979"><ele>538.3333333333334</ele><time>2026-04-12T09:59:02.001Z</time></trkpt><trkpt lat="45.87799708922217" lon="9.26217203540111"><ele>541.6666666666666</ele><time>2026-04-12T09:59:03.001Z</time></trkpt><trkpt lat="45.87819950740792" lon="9.262193091057357"><ele>545.0</ele><time>2026-04-12T09:59:04.001Z</time></trkpt><trkpt lat="45.87839647032977" lon="9.262227802907201"><ele>550.0</ele><time>2026-04-12T09:59:05.001Z</time></trkpt><trkpt lat="45.87858900111958" lon="9.26226078088464"><ele>555.0</ele><time>2026-04-12T09:59:06.001Z</time></trkpt><trkpt lat="45.87878101970298" lon="9.262310267229783"><ele>560.0</ele><time>2026-04-12T09:59:07.001Z</time></trkpt><trkpt lat="45.87896476679997" lon="9.262390911256999"><ele>554.6666666666666</ele><time>2026-04-12T09:59:08.001Z</time></trkpt><trkpt lat="45.879140001522664" lon="9.2624793895149"><ele>549.3333333333334</ele><time>2026-04-12T09:59:09.001Z</time></trkpt><trkpt lat="45.87931598463006" lon="9.262560247362066"><ele>544.0</ele><time>2026-04-12T09:59:10.001Z</time></trkpt><trkpt lat="45.879501555065126" lon="9.262624283897173"><ele>544.0</ele><time>2026-04-12T09:59:11.001Z</time></trkpt><trkpt lat="45.879693919829116" lon="9.262662289635193"><ele>544.0</ele><time>2026-04-12T09:59:12.001Z</time></trkpt><trkpt lat="45.87989259194963" lon="9.262698548207611"><ele>544.0</ele><time>2026-04-12T09:59:13.001Z</time></trkpt><trkpt lat="45.880093413469645" lon="9.262736838434867"><ele>545.0</ele><time>2026-04-12T09:59:14.001Z</time></trkpt><trkpt lat="45.88030046737972" lon="9.26277344425988"><ele>546.0</ele><time>2026-04-12T09:59:15.001Z</time></trkpt><trkpt lat="45.88049940145774" lon="9.26280876300487"><ele>547.0</ele><time>2026-04-12T09:59:16.001Z</time></trkpt><trkpt lat="45.880679135402595" lon="9.26284311611448"><ele>547.0</ele><time>2026-04-12T09:59:17.001Z</time></trkpt><trkpt lat="45.88084522004276" lon="9.262882552243715"><ele>547.0</ele><time>2026-04-12T09:59:18.001Z</time></trkpt><trkpt lat="45.88099032678916" lon="9.262926735296805"><ele>547.0</ele><time>2026-04-12T09:59:19.001Z</time></trkpt><trkpt lat="45.88113141269922" lon="9.262972955735194"><ele>547.0</ele><time>2026-04-12T09:59:20.001Z</time></trkpt><trkpt lat="45.8812593789899" lon="9.263011337031045"><ele>547.0</ele><time>2026-04-12T09:59:21.001Z</time></trkpt><trkpt lat="45.88137682634466" lon="9.26305234879609"><ele>547.0</ele><time>2026-04-12T09:59:22.001Z</time></trkpt><trkpt lat="45.88147642055382" lon="9.263080821960479"><ele>547.0</ele><time>2026-04-12T09:59:23.001Z</time></trkpt><trkpt lat="45.88155295701563" lon="9.263105249854833"><ele>547.0</ele><time>2026-04-12T09:59:24.001Z</time></trkpt><trkpt lat="45.88165618576458" lon="9.263131182124066"><ele>543.8000000000001</ele><time>2026-04-12T09:59:26.001Z</time></trkpt><trkpt lat="45.88173331710023" lon="9.263164651145392"><ele>540.6</ele><time>2026-04-12T09:59:29.001Z</time></trkpt><trkpt lat="45.88184752113246" lon="9.26319242821786"><ele>537.4000000000001</ele><time>2026-04-12T09:59:42.001Z</time></trkpt><trkpt lat="45.88194338759639" lon="9.263218092853766"><ele>534.2</ele><time>2026-04-12T09:59:43.001Z</time></trkpt><trkpt lat="45.88204985996884" lon="9.263253763228569"><ele>531.0</ele><time>2026-04-12T09:59:44.001Z</time></trkpt><trkpt lat="45.88218703738881" lon="9.263295197139536"><ele>531.0</ele><time>2026-04-12T09:59:45.001Z</time></trkpt><trkpt lat="45.88232014481109" lon="9.263329846420499"><ele>531.0</ele><time>2026-04-12T09:59:46.002Z</time></trkpt><trkpt lat="45.88246868138986" lon="9.263375045547853"><ele>531.0</ele><time>2026-04-12T09:59:47.002Z</time></trkpt><trkpt lat="45.882619437252046" lon="9.26342468267816"><ele>531.0</ele><time>2026-04-12T09:59:48.002Z</time></trkpt><trkpt lat="45.88277755096662" lon="9.263472042903398"><ele>533.3333333333334</ele><time>2026-04-12T09:59:49.002Z</time></trkpt><trkpt lat="45.88295117874819" lon="9.263517946945933"><ele>535.6666666666667</ele><time>2026-04-12T09:59:50.002Z</time></trkpt><trkpt lat="45.88311772246092" lon="9.263562554497062"><ele>538.0</ele><time>2026-04-12T09:59:51.002Z</time></trkpt><trkpt lat="45.88328110514454" lon="9.263607414870672"><ele>540.0</ele><time>2026-04-12T09:59:52.002Z</time></trkpt><trkpt lat="45.88345576226291" lon="9.263659742266068"><ele>542.0</ele><time>2026-04-12T09:59:53.002Z</time></trkpt><trkpt lat="45.883640220514884" lon="9.263715505538789"><ele>544.0</ele><time>2026-04-12T09:59:54.002Z</time></trkpt><trkpt lat="45.88382341821244" lon="9.26376361790931"><ele>544.0</ele><time>2026-04-12T09:59:55.002Z</time></trkpt><trkpt lat="45.88401142322289" lon="9.263814029890192"><ele>544.0</ele><time>2026-04-12T09:59:56.002Z</time></trkpt><trkpt lat="45.88419359831574" lon="9.263860633431653"><ele>544.0</ele><time>2026-04-12T09:59:57.002Z</time></trkpt><trkpt lat="45.88435572549629" lon="9.26389540224831"><ele>544.25</ele><time>2026-04-12T09:59:58.002Z</time></trkpt><trkpt lat="45.88449735226105" lon="9.263921359415631"><ele>544.5</ele><time>2026-04-12T09:59:59.002Z</time></trkpt><trkpt lat="45.88463578070877" lon="9.26391963201161"><ele>544.75</ele><time>2026-04-12T10:00:00.002Z</time></trkpt><trkpt lat="45.884763598710414" lon="9.263872508751227"><ele>545.0</ele><time>2026-04-12T10:00:01.002Z</time></trkpt><trkpt lat="45.88486727755544" lon="9.263751339607808"><ele>545.0</ele><time>2026-04-12T10:00:02.002Z</time></trkpt><trkpt lat="45.88495504906057" lon="9.263568283673354"><ele>545.0</ele><time>2026-04-12T10:00:03.002Z</time></trkpt><trkpt lat="45.88503097818024" lon="9.263344328097876"><ele>545.0</ele><time>2026-04-12T10:00:04.002Z</time></trkpt><trkpt lat="45.885122269749715" lon="9.263125114307238"><ele>545.6666666666666</ele><time>2026-04-12T10:00:05.002Z</time></trkpt><trkpt lat="45.88523378851597" lon="9.262898281579163"><ele>546.3333333333334</ele><time>2026-04-12T10:00:06.002Z</time></trkpt><trkpt lat="45.88537293376329" lon="9.262688932399204"><ele>547.0</ele><time>2026-04-12T10:00:07.002Z</time></trkpt><trkpt lat="45.88555951237379" lon="9.26256303334464"><ele>547.0</ele><time>2026-04-12T10:00:07.999Z</time></trkpt><trkpt lat="45.88576414638935" lon="9.262443518105247"><ele>547.0</ele><time>2026-04-12T10:00:08.999Z</time></trkpt><trkpt lat="45.88598220485241" lon="9.262322810976748"><ele>546.5</ele><time>2026-04-12T10:00:09.999Z</time></trkpt><trkpt lat="45.886203622470894" lon="9.262191604896438"><ele>546.0</ele><time>2026-04-12T10:00:10.999Z</time></trkpt><trkpt lat="45.88642770245972" lon="9.262071033340938"><ele>546.0</ele><time>2026-04-12T10:00:11.999Z</time></trkpt><trkpt lat="45.88664664404985" lon="9.261945289242648"><ele>546.0</ele><time>2026-04-12T10:00:12.999Z</time></trkpt><trkpt lat="45.88687465741465" lon="9.261814095450628"><ele>549.5</ele><time>2026-04-12T10:00:13.999Z</time></trkpt><trkpt lat="45.88709905898377" lon="9.261683531665467"><ele>553.0</ele><time>2026-04-12T10:00:14.999Z</time></trkpt><trkpt lat="45.88731595085325" lon="9.261555399175995"><ele>554.0</ele><time>2026-04-12T10:00:15.999Z</time></trkpt><trkpt lat="45.88753684768826" lon="9.261426990053895"><ele>555.0</ele><time>2026-04-12T10:00:16.999Z</time></trkpt><trkpt lat="45.88775948173346" lon="9.261295985915611"><ele>556.5</ele><time>2026-04-12T10:00:17.999Z</time></trkpt><trkpt lat="45.88798371314595" lon="9.261164054048743"><ele>558.0</ele><time>2026-04-12T10:00:18.999Z</time></trkpt><trkpt lat="45.8881936210386" lon="9.261048243907865"><ele>558.0</ele><time>2026-04-12T10:00:19.999Z</time></trkpt><trkpt lat="45.888383406588204" lon="9.260951339347573"><ele>558.0</ele><time>2026-04-12T10:00:20.999Z</time></trkpt><trkpt lat="45.88856791527711" lon="9.260867673113989"><ele>558.0</ele><time>2026-04-12T10:00:21.999Z</time></trkpt><trkpt lat="45.888767558575275" lon="9.260801052575124"><ele>558.3333333333334</ele><time>2026-04-12T10:00:22.999Z</time></trkpt><trkpt lat="45.88897491807663" lon="9.260752504154445"><ele>558.6666666666667</ele><time>2026-04-12T10:00:24Z</time></trkpt><trkpt lat="45.88918753445983" lon="9.26069581925198"><ele>559.0</ele><time>2026-04-12T10:00:25Z</time></trkpt><trkpt lat="45.88939989618368" lon="9.260629192287498"><ele>561.3333333333334</ele><time>2026-04-12T10:00:26Z</time></trkpt><trkpt lat="45.88961175512727" lon="9.260570756747025"><ele>563.6666666666666</ele><time>2026-04-12T10:00:27Z</time></trkpt><trkpt lat="45.88982591922047" lon="9.260544736143919"><ele>566.0</ele><time>2026-04-12T10:00:28Z</time></trkpt><trkpt lat="45.89005120125431" lon="9.260548915836358"><ele>568.0</ele><time>2026-04-12T10:00:29Z</time></trkpt><trkpt lat="45.89027767941288" lon="9.260567762771489"><ele>570.0</ele><time>2026-04-12T10:00:30Z</time></trkpt><trkpt lat="45.89050211927326" lon="9.260582325857401"><ele>570.0</ele><time>2026-04-12T10:00:31Z</time></trkpt><trkpt lat="45.89073334125747" lon="9.26058933970115"><ele>570.0</ele><time>2026-04-12T10:00:32Z</time></trkpt><trkpt lat="45.890948110401666" lon="9.260595941618192"><ele>570.0</ele><time>2026-04-12T10:00:33Z</time></trkpt><trkpt lat="45.89114476980156" lon="9.26060271873002"><ele>572.3333333333334</ele><time>2026-04-12T10:00:34Z</time></trkpt><trkpt lat="45.891341740922904" lon="9.260616086461054"><ele>574.6666666666667</ele><time>2026-04-12T10:00:35Z</time></trkpt><trkpt lat="45.89153882314543" lon="9.26069891373747"><ele>577.0</ele><time>2026-04-12T10:00:36Z</time></trkpt><trkpt lat="45.8917433993424" lon="9.260783770146727"><ele>576.3333333333334</ele><time>2026-04-12T10:00:37Z</time></trkpt><trkpt lat="45.89195227241715" lon="9.260867289147045"><ele>575.6666666666666</ele><time>2026-04-12T10:00:38Z</time></trkpt><trkpt lat="45.89216619278924" lon="9.260937251046055"><ele>575.0</ele><time>2026-04-12T10:00:39Z</time></trkpt><trkpt lat="45.89237723134432" lon="9.261021050787992"><ele>578.3333333333333</ele><time>2026-04-12T10:00:40Z</time></trkpt><trkpt lat="45.89259017566735" lon="9.261106319159714"><ele>581.6666666666666</ele><time>2026-04-12T10:00:41Z</time></trkpt><trkpt lat="45.89279672666882" lon="9.261196284697325"><ele>585.0</ele><time>2026-04-12T10:00:42Z</time></trkpt><trkpt lat="45.892994336081664" lon="9.26127590103764"><ele>585.0</ele><time>2026-04-12T10:00:43Z</time></trkpt><trkpt lat="45.893173671309164" lon="9.261343395773618"><ele>585.0</ele><time>2026-04-12T10:00:44Z</time></trkpt><trkpt lat="45.89334160993167" lon="9.261416858765458"><ele>585.0</ele><time>2026-04-12T10:00:45Z</time></trkpt><trkpt lat="45.89352273720548" lon="9.261457374563156"><ele>582.3333333333334</ele><time>2026-04-12T10:00:46Z</time></trkpt><trkpt lat="45.893722503736825" lon="9.261464744857971"><ele>579.6666666666667</ele><time>2026-04-12T10:00:47Z</time></trkpt><trkpt lat="45.89392796252196" lon="9.261461075994674"><ele>577.0</ele><time>2026-04-12T10:00:48Z</time></trkpt><trkpt lat="45.89413384544639" lon="9.261496056057338"><ele>580.6666666666667</ele><time>2026-04-12T10:00:49Z</time></trkpt><trkpt lat="45.89434561761019" lon="9.261511988825172"><ele>584.3333333333334</ele><time>2026-04-12T10:00:50Z</time></trkpt><trkpt lat="45.89455580938611" lon="9.261506178696061"><ele>588.0</ele><time>2026-04-12T10:00:51Z</time></trkpt><trkpt lat="45.8947630494773" lon="9.26154273412204"><ele>588.0</ele><time>2026-04-12T10:00:52Z</time></trkpt><trkpt lat="45.894966813951214" lon="9.261638220749447"><ele>588.0</ele><time>2026-04-12T10:00:53Z</time></trkpt><trkpt lat="45.895177720655454" lon="9.261726530759107"><ele>588.0</ele><time>2026-04-12T10:00:54Z</time></trkpt><trkpt lat="45.89538796442527" lon="9.261785735653437"><ele>593.3333333333334</ele><time>2026-04-12T10:00:55Z</time></trkpt><trkpt lat="45.895574124608245" lon="9.261860319768576"><ele>598.6666666666667</ele><time>2026-04-12T10:00:56Z</time></trkpt><trkpt lat="45.895744265870015" lon="9.261944181795842"><ele>604.0</ele><time>2026-04-12T10:00:57Z</time></trkpt><trkpt lat="45.895901324029225" lon="9.262065199342233"><ele>603.0</ele><time>2026-04-12T10:00:58Z</time></trkpt><trkpt lat="45.89603581217592" lon="9.262213606093534"><ele>602.0</ele><time>2026-04-12T10:00:59Z</time></trkpt><trkpt lat="45.89617423756881" lon="9.262365866934958"><ele>601.0</ele><time>2026-04-12T10:01:00Z</time></trkpt><trkpt lat="45.89632552055565" lon="9.262493882393601"><ele>601.0</ele><time>2026-04-12T10:01:01Z</time></trkpt><trkpt lat="45.8964830859379" lon="9.2626002390952"><ele>601.0</ele><time>2026-04-12T10:01:02Z</time></trkpt><trkpt lat="45.89667104356155" lon="9.262666979711712"><ele>601.0</ele><time>2026-04-12T10:01:03Z</time></trkpt><trkpt lat="45.89686314296158" lon="9.26272396052561"><ele>607.3333333333334</ele><time>2026-04-12T10:01:04Z</time></trkpt><trkpt lat="45.89703933276183" lon="9.262837872120963"><ele>613.6666666666666</ele><time>2026-04-12T10:01:05Z</time></trkpt><trkpt lat="45.89723443329614" lon="9.26293565593279"><ele>620.0</ele><time>2026-04-12T10:01:06Z</time></trkpt><trkpt lat="45.89742692303054" lon="9.26305725878871"><ele>614.6666666666666</ele><time>2026-04-12T10:01:07.001Z</time></trkpt><trkpt lat="45.89762941650488" lon="9.263152716124624"><ele>609.3333333333334</ele><time>2026-04-12T10:01:08.001Z</time></trkpt><trkpt lat="45.89782859825126" lon="9.263215316346185"><ele>604.0</ele><time>2026-04-12T10:01:09.001Z</time></trkpt><trkpt lat="45.897999124116694" lon="9.263309685048368"><ele>604.0</ele><time>2026-04-12T10:01:10.001Z</time></trkpt><trkpt lat="45.898160681970694" lon="9.263420013725614"><ele>604.0</ele><time>2026-04-12T10:01:11.001Z</time></trkpt><trkpt lat="45.89833618724315" lon="9.263547526186958"><ele>604.0</ele><time>2026-04-12T10:01:12.001Z</time></trkpt><trkpt lat="45.89848672555904" lon="9.263695654934832"><ele>602.75</ele><time>2026-04-12T10:01:13.001Z</time></trkpt><trkpt lat="45.89861593361241" lon="9.263834870835904"><ele>601.5</ele><time>2026-04-12T10:01:14.001Z</time></trkpt><trkpt lat="45.89872939194134" lon="9.263944925183369"><ele>600.25</ele><time>2026-04-12T10:01:15.001Z</time></trkpt><trkpt lat="45.89884624135744" lon="9.26403833723872"><ele>599.0</ele><time>2026-04-12T10:01:16.001Z</time></trkpt><trkpt lat="45.89897346344227" lon="9.264123405009087"><ele>599.0</ele><time>2026-04-12T10:01:17.001Z</time></trkpt><trkpt lat="45.89910031933754" lon="9.264183617359107"><ele>599.0</ele><time>2026-04-12T10:01:18.001Z</time></trkpt><trkpt lat="45.899232722845646" lon="9.26421774794244"><ele>599.0</ele><time>2026-04-12T10:01:19.001Z</time></trkpt><trkpt lat="45.899379080628364" lon="9.26420648188893"><ele>599.0</ele><time>2026-04-12T10:01:20.001Z</time></trkpt><trkpt lat="45.89954730607729" lon="9.264180774593255"><ele>601.0</ele><time>2026-04-12T10:01:21.001Z</time></trkpt><trkpt lat="45.89972092160138" lon="9.264163884691989"><ele>603.0</ele><time>2026-04-12T10:01:22.001Z</time></trkpt><trkpt lat="45.89990756454262" lon="9.264131601902003"><ele>605.0</ele><time>2026-04-12T10:01:23.001Z</time></trkpt><trkpt lat="45.90011121325471" lon="9.26413120404491"><ele>605.0</ele><time>2026-04-12T10:01:24.001Z</time></trkpt><trkpt lat="45.900322436943476" lon="9.264111089519028"><ele>605.0</ele><time>2026-04-12T10:01:25.001Z</time></trkpt><trkpt lat="45.90053992177101" lon="9.264081793890854"><ele>605.0</ele><time>2026-04-12T10:01:26.001Z</time></trkpt><trkpt lat="45.900730309076195" lon="9.264057232963502"><ele>605.0</ele><time>2026-04-12T10:01:27.001Z</time></trkpt><trkpt lat="45.90090094517494" lon="9.264048639219817"><ele>605.0</ele><time>2026-04-12T10:01:28.001Z</time></trkpt><trkpt lat="45.901055764337485" lon="9.264093365709206"><ele>605.0</ele><time>2026-04-12T10:01:29.001Z</time></trkpt><trkpt lat="45.901202654599466" lon="9.26418706583938"><ele>608.6666666666666</ele><time>2026-04-12T10:01:30.001Z</time></trkpt><trkpt lat="45.90137437151062" lon="9.264307678576161"><ele>612.3333333333334</ele><time>2026-04-12T10:01:31.001Z</time></trkpt><trkpt lat="45.90155215127714" lon="9.264420309609099"><ele>616.0</ele><time>2026-04-12T10:01:32.001Z</time></trkpt><trkpt lat="45.901717292943104" lon="9.264569585952378"><ele>616.3333333333334</ele><time>2026-04-12T10:01:33.001Z</time></trkpt><trkpt lat="45.90185150151531" lon="9.26476698220499"><ele>616.6666666666666</ele><time>2026-04-12T10:01:34.001Z</time></trkpt><trkpt lat="45.90199377937953" lon="9.264965551304376"><ele>617.0</ele><time>2026-04-12T10:01:35.001Z</time></trkpt><trkpt lat="45.90212900407551" lon="9.265137462358142"><ele>617.0</ele><time>2026-04-12T10:01:36.001Z</time></trkpt><trkpt lat="45.90224535870832" lon="9.26529759205496"><ele>617.0</ele><time>2026-04-12T10:01:37.001Z</time></trkpt><trkpt lat="45.90238363071976" lon="9.265418677865247"><ele>617.0</ele><time>2026-04-12T10:01:38.001Z</time></trkpt><trkpt lat="45.90255292659668" lon="9.265498307520007"><ele>616.6666666666666</ele><time>2026-04-12T10:01:39.001Z</time></trkpt><trkpt lat="45.9027472148118" lon="9.265551123314827"><ele>616.3333333333334</ele><time>2026-04-12T10:01:40.001Z</time></trkpt><trkpt lat="45.902957234378775" lon="9.265587485849634"><ele>616.0</ele><time>2026-04-12T10:01:41.001Z</time></trkpt><trkpt lat="45.90313546970941" lon="9.26569983509688"><ele>616.0</ele><time>2026-04-12T10:01:42.001Z</time></trkpt><trkpt lat="45.903316906619565" lon="9.265814733675942"><ele>616.0</ele><time>2026-04-12T10:01:43.001Z</time></trkpt><trkpt lat="45.90350716869312" lon="9.26588470406388"><ele>616.0</ele><time>2026-04-12T10:01:44.001Z</time></trkpt><trkpt lat="45.90368963831585" lon="9.266015221381513"><ele>616.3333333333334</ele><time>2026-04-12T10:01:45.001Z</time></trkpt><trkpt lat="45.90384268768624" lon="9.266185815162181"><ele>616.6666666666666</ele><time>2026-04-12T10:01:46.001Z</time></trkpt><trkpt lat="45.90399144575301" lon="9.266340001545846"><ele>617.0</ele><time>2026-04-12T10:01:47.001Z</time></trkpt><trkpt lat="45.90411608900177" lon="9.266467723938105"><ele>616.25</ele><time>2026-04-12T10:01:48.001Z</time></trkpt><trkpt lat="45.90422995161863" lon="9.266554120942708"><ele>615.5</ele><time>2026-04-12T10:01:49.001Z</time></trkpt><trkpt lat="45.90434219563373" lon="9.26662172495883"><ele>614.75</ele><time>2026-04-12T10:01:50.001Z</time></trkpt><trkpt lat="45.90448743468912" lon="9.2666326328276"><ele>614.0</ele><time>2026-04-12T10:01:51.001Z</time></trkpt><trkpt lat="45.904660138200356" lon="9.26656998144408"><ele>614.0</ele><time>2026-04-12T10:01:52.002Z</time></trkpt><trkpt lat="45.90483359214699" lon="9.266462370265415"><ele>614.0</ele><time>2026-04-12T10:01:53.002Z</time></trkpt><trkpt lat="45.90499942973176" lon="9.266330460024491"><ele>614.0</ele><time>2026-04-12T10:01:54.002Z</time></trkpt><trkpt lat="45.90516677128494" lon="9.266201558294393"><ele>614.0</ele><time>2026-04-12T10:01:55.002Z</time></trkpt><trkpt lat="45.90532086640131" lon="9.266085025441889"><ele>614.0</ele><time>2026-04-12T10:01:56.002Z</time></trkpt><trkpt lat="45.905475650445275" lon="9.26597241724203"><ele>614.0</ele><time>2026-04-12T10:01:57.002Z</time></trkpt><trkpt lat="45.90564144304219" lon="9.265854150792817"><ele>614.0</ele><time>2026-04-12T10:01:58.002Z</time></trkpt><trkpt lat="45.90581813601858" lon="9.265729329152274"><ele>614.0</ele><time>2026-04-12T10:01:59.002Z</time></trkpt><trkpt lat="45.906004574539246" lon="9.265577482877747"><ele>614.0</ele><time>2026-04-12T10:02:00.002Z</time></trkpt><trkpt lat="45.906190126755654" lon="9.265397504227833"><ele>616.5</ele><time>2026-04-12T10:02:01.002Z</time></trkpt><trkpt lat="45.90637647945658" lon="9.265196731903515"><ele>619.0</ele><time>2026-04-12T10:02:02.002Z</time></trkpt><trkpt lat="45.90656539303365" lon="9.26498742628987"><ele>618.0</ele><time>2026-04-12T10:02:03.002Z</time></trkpt><trkpt lat="45.90675644766971" lon="9.264780939441167"><ele>617.0</ele><time>2026-04-12T10:02:04.002Z</time></trkpt><trkpt lat="45.90694449947984" lon="9.264578238738524"><ele>622.5</ele><time>2026-04-12T10:02:05.002Z</time></trkpt><trkpt lat="45.907139546611795" lon="9.264372374892409"><ele>628.0</ele><time>2026-04-12T10:02:06.002Z</time></trkpt><trkpt lat="45.90733295123108" lon="9.26417351024796"><ele>628.0</ele><time>2026-04-12T10:02:07.002Z</time></trkpt><trkpt lat="45.90753672521439" lon="9.263978445687936"><ele>628.0</ele><time>2026-04-12T10:02:08.002Z</time></trkpt><trkpt lat="45.90774812552903" lon="9.263803924776468"><ele>642.5</ele><time>2026-04-12T10:02:09.002Z</time></trkpt><trkpt lat="45.907973318008956" lon="9.263649872630912"><ele>657.0</ele><time>2026-04-12T10:02:10.002Z</time></trkpt><trkpt lat="45.90819143522888" lon="9.2635408125394"><ele>648.0</ele><time>2026-04-12T10:02:11.002Z</time></trkpt><trkpt lat="45.90842340178746" lon="9.263422828828311"><ele>639.0</ele><time>2026-04-12T10:02:12.002Z</time></trkpt><trkpt lat="45.90864516928108" lon="9.263303825122168"><ele>639.0</ele><time>2026-04-12T10:02:13.002Z</time></trkpt><trkpt lat="45.90886967672637" lon="9.263183882489248"><ele>639.0</ele><time>2026-04-12T10:02:14Z</time></trkpt><trkpt lat="45.909096357986655" lon="9.263064283342757"><ele>657.0</ele><time>2026-04-12T10:02:15Z</time></trkpt><trkpt lat="45.909319850027295" lon="9.26294310782994"><ele>675.0</ele><time>2026-04-12T10:02:16Z</time></trkpt><trkpt lat="45.90954181284298" lon="9.262813397862976"><ele>675.0</ele><time>2026-04-12T10:02:17Z</time></trkpt><trkpt lat="45.90974187715648" lon="9.262711445736672"><ele>675.0</ele><time>2026-04-12T10:02:18Z</time></trkpt><trkpt lat="45.90993998887297" lon="9.262644006234696"><ele>675.0</ele><time>2026-04-12T10:02:19Z</time></trkpt><trkpt lat="45.91012560633389" lon="9.262596869109752"><ele>676.3333333333334</ele><time>2026-04-12T10:02:20Z</time></trkpt><trkpt lat="45.91033022597469" lon="9.262594518561963"><ele>677.6666666666667</ele><time>2026-04-12T10:02:21Z</time></trkpt><trkpt lat="45.91053762777783" lon="9.262610936289349"><ele>679.0</ele><time>2026-04-12T10:02:22Z</time></trkpt><trkpt lat="45.91074564938422" lon="9.262633156565562"><ele>678.6666666666667</ele><time>2026-04-12T10:02:23Z</time></trkpt><trkpt lat="45.91093807437095" lon="9.262642912281049"><ele>678.3333333333334</ele><time>2026-04-12T10:02:24Z</time></trkpt><trkpt lat="45.911110953913116" lon="9.262662358841107"><ele>678.0</ele><time>2026-04-12T10:02:25Z</time></trkpt><trkpt lat="45.91127578854014" lon="9.262663415852707"><ele>678.0</ele><time>2026-04-12T10:02:26Z</time></trkpt><trkpt lat="45.91142862190523" lon="9.26262496789659"><ele>678.0</ele><time>2026-04-12T10:02:27Z</time></trkpt><trkpt lat="45.91157502514561" lon="9.262537391347578"><ele>678.0</ele><time>2026-04-12T10:02:28Z</time></trkpt><trkpt lat="45.91171297929205" lon="9.262407679135324"><ele>679.6666666666666</ele><time>2026-04-12T10:02:29Z</time></trkpt><trkpt lat="45.91182777294598" lon="9.262248347877527"><ele>681.3333333333333</ele><time>2026-04-12T10:02:30Z</time></trkpt><trkpt lat="45.91193178459875" lon="9.262040066505973"><ele>683.0</ele><time>2026-04-12T10:02:31Z</time></trkpt><trkpt lat="45.91201690896257" lon="9.261799814830287"><ele>683.0</ele><time>2026-04-12T10:02:32Z</time></trkpt><trkpt lat="45.91209566202104" lon="9.261552259193946"><ele>683.0</ele><time>2026-04-12T10:02:33Z</time></trkpt><trkpt lat="45.91218346508812" lon="9.261313415335389"><ele>683.0</ele><time>2026-04-12T10:02:34Z</time></trkpt><trkpt lat="45.91228865212488" lon="9.261096771772728"><ele>687.3333333333333</ele><time>2026-04-12T10:02:35Z</time></trkpt><trkpt lat="45.91241007739186" lon="9.260903898148879"><ele>691.6666666666666</ele><time>2026-04-12T10:02:36Z</time></trkpt><trkpt lat="45.91255704193118" lon="9.26072545382202"><ele>696.0</ele><time>2026-04-12T10:02:37Z</time></trkpt><trkpt lat="45.91272710097361" lon="9.260570634921141"><ele>696.0</ele><time>2026-04-12T10:02:38Z</time></trkpt><trkpt lat="45.91288250362915" lon="9.260377856524636"><ele>696.0</ele><time>2026-04-12T10:02:39Z</time></trkpt><trkpt lat="45.913044339525804" lon="9.260208387373783"><ele>696.0</ele><time>2026-04-12T10:02:40Z</time></trkpt><trkpt lat="45.91319063401481" lon="9.26007784678083"><ele>696.0</ele><time>2026-04-12T10:02:41Z</time></trkpt><trkpt lat="45.91331698808034" lon="9.259943280282064"><ele>696.0</ele><time>2026-04-12T10:02:42Z</time></trkpt><trkpt lat="45.91345563040636" lon="9.259899623992498"><ele>696.0</ele><time>2026-04-12T10:02:43Z</time></trkpt><trkpt lat="45.91359455379835" lon="9.259867315353405"><ele>696.0</ele><time>2026-04-12T10:02:44Z</time></trkpt><trkpt lat="45.91374768140823" lon="9.259875773425502"><ele>698.6666666666666</ele><time>2026-04-12T10:02:45Z</time></trkpt><trkpt lat="45.91389438822991" lon="9.259930544983883"><ele>701.3333333333333</ele><time>2026-04-12T10:02:46Z</time></trkpt><trkpt lat="45.91404176193801" lon="9.26000531856294"><ele>704.0</ele><time>2026-04-12T10:02:47Z</time></trkpt><trkpt lat="45.91420188689262" lon="9.260104451766779"><ele>709.0</ele><time>2026-04-12T10:02:48Z</time></trkpt><trkpt lat="45.91435136685433" lon="9.260220670132759"><ele>714.0</ele><time>2026-04-12T10:02:49Z</time></trkpt><trkpt lat="45.914534204783145" lon="9.260287464919037"><ele>719.0</ele><time>2026-04-12T10:02:50Z</time></trkpt><trkpt lat="45.914731049546575" lon="9.260310732250039"><ele>719.0</ele><time>2026-04-12T10:02:51Z</time></trkpt><trkpt lat="45.914935534799184" lon="9.260321849526079"><ele>719.0</ele><time>2026-04-12T10:02:52Z</time></trkpt><trkpt lat="45.91514020157126" lon="9.260330366886375"><ele>719.0</ele><time>2026-04-12T10:02:53Z</time></trkpt><trkpt lat="45.91536477805309" lon="9.260362346634416"><ele>725.0</ele><time>2026-04-12T10:02:54Z</time></trkpt><trkpt lat="45.915589103426896" lon="9.260389472782979"><ele>731.0</ele><time>2026-04-12T10:02:55Z</time></trkpt><trkpt lat="45.91581560007533" lon="9.26042147611378"><ele>730.6666666666666</ele><time>2026-04-12T10:02:56Z</time></trkpt><trkpt lat="45.91601965203976" lon="9.260467848090844"><ele>730.3333333333334</ele><time>2026-04-12T10:02:57Z</time></trkpt><trkpt lat="45.91621085549394" lon="9.260539576120992"><ele>730.0</ele><time>2026-04-12T10:02:58Z</time></trkpt><trkpt lat="45.916403007370334" lon="9.260665060027417"><ele>730.0</ele><time>2026-04-12T10:02:59Z</time></trkpt><trkpt lat="45.91659756823006" lon="9.260813168627717"><ele>730.0</ele><time>2026-04-12T10:03:00Z</time></trkpt><trkpt lat="45.9167838309567" lon="9.26094548725109"><ele>730.0</ele><time>2026-04-12T10:03:01Z</time></trkpt><trkpt lat="45.916932062821964" lon="9.261048118461888"><ele>734.0</ele><time>2026-04-12T10:03:02Z</time></trkpt><trkpt lat="45.91710745040989" lon="9.261144056582859"><ele>738.0</ele><time>2026-04-12T10:03:03Z</time></trkpt><trkpt lat="45.91729987127545" lon="9.261209862026366"><ele>742.0</ele><time>2026-04-12T10:03:04Z</time></trkpt><trkpt lat="45.91751084050403" lon="9.261261396396238"><ele>745.0</ele><time>2026-04-12T10:03:05Z</time></trkpt><trkpt lat="45.91774235651239" lon="9.261294613133527"><ele>748.0</ele><time>2026-04-12T10:03:06Z</time></trkpt><trkpt lat="45.91796728165796" lon="9.261334181051208"><ele>748.0</ele><time>2026-04-12T10:03:07Z</time></trkpt><trkpt lat="45.91819366355417" lon="9.261386186681197"><ele>748.0</ele><time>2026-04-12T10:03:08.001Z</time></trkpt><trkpt lat="45.9184274143387" lon="9.261431371973044"><ele>744.5</ele><time>2026-04-12T10:03:09.001Z</time></trkpt><trkpt lat="45.91866088088788" lon="9.26147808619083"><ele>741.0</ele><time>2026-04-12T10:03:10.001Z</time></trkpt><trkpt lat="45.91889826858065" lon="9.261527429024168"><ele>741.0</ele><time>2026-04-12T10:03:11.001Z</time></trkpt><trkpt lat="45.91911309414415" lon="9.261571794979"><ele>741.0</ele><time>2026-04-12T10:03:12.001Z</time></trkpt><trkpt lat="45.91929706035656" lon="9.261613007660072"><ele>741.0</ele><time>2026-04-12T10:03:13.001Z</time></trkpt><trkpt lat="45.919472409603124" lon="9.261656400817287"><ele>741.75</ele><time>2026-04-12T10:03:14.001Z</time></trkpt><trkpt lat="45.919622003974844" lon="9.26166940798887"><ele>742.5</ele><time>2026-04-12T10:03:15.001Z</time></trkpt><trkpt lat="45.91975872819639" lon="9.261671240792097"><ele>743.25</ele><time>2026-04-12T10:03:16.001Z</time></trkpt><trkpt lat="45.91987652299886" lon="9.261652626534532"><ele>744.0</ele><time>2026-04-12T10:03:17.001Z</time></trkpt><trkpt lat="45.9199782906196" lon="9.261631422528863"><ele>744.0</ele><time>2026-04-12T10:03:18.001Z</time></trkpt><trkpt lat="45.920064760359594" lon="9.261616459994766"><ele>744.0</ele><time>2026-04-12T10:03:19.001Z</time></trkpt><trkpt lat="45.92014800634515" lon="9.261604703609427"><ele>744.0</ele><time>2026-04-12T10:03:20.001Z</time></trkpt><trkpt lat="45.92022353947288" lon="9.261590329961141"><ele>744.0</ele><time>2026-04-12T10:03:21.001Z</time></trkpt><trkpt lat="45.92029400574164" lon="9.261577842170823"><ele>744.0</ele><time>2026-04-12T10:03:22.001Z</time></trkpt><trkpt lat="45.92036418116752" lon="9.261596848965965"><ele>744.0</ele><time>2026-04-12T10:03:23.001Z</time></trkpt><trkpt lat="45.920435228115984" lon="9.261653968841562"><ele>745.8000000000001</ele><time>2026-04-12T10:03:24.001Z</time></trkpt><trkpt lat="45.920515112776194" lon="9.261727733927168"><ele>747.6</ele><time>2026-04-12T10:03:25.001Z</time></trkpt><trkpt lat="45.92061155590824" lon="9.261795646553923"><ele>749.4</ele><time>2026-04-12T10:03:26.001Z</time></trkpt><trkpt lat="45.92071260957889" lon="9.2618743022135"><ele>751.2</ele><time>2026-04-12T10:03:27.001Z</time></trkpt><trkpt lat="45.92079912818979" lon="9.261930266523429"><ele>753.0</ele><time>2026-04-12T10:03:28.001Z</time></trkpt><trkpt lat="45.920878465654965" lon="9.26198590489819"><ele>754.4</ele><time>2026-04-12T10:03:29.001Z</time></trkpt><trkpt lat="45.9209567399042" lon="9.262038940897366"><ele>755.8</ele><time>2026-04-12T10:03:30.001Z</time></trkpt><trkpt lat="45.921032697841085" lon="9.262087212638567"><ele>757.2</ele><time>2026-04-12T10:03:31.001Z</time></trkpt><trkpt lat="45.921122238391455" lon="9.262157275783444"><ele>758.6</ele><time>2026-04-12T10:03:33.002Z</time></trkpt><trkpt lat="45.92118797691102" lon="9.262180327984138"><ele>760.0</ele><time>2026-04-12T10:03:34.002Z</time></trkpt><trkpt lat="45.9212972367019" lon="9.262212597606023"><ele>760.0</ele><time>2026-04-12T10:03:35.002Z</time></trkpt><trkpt lat="45.9214368212504" lon="9.262256886544339"><ele>760.0</ele><time>2026-04-12T10:03:36.002Z</time></trkpt><trkpt lat="45.9216034132489" lon="9.262315208964797"><ele>760.0</ele><time>2026-04-12T10:03:37.002Z</time></trkpt><trkpt lat="45.921780239931316" lon="9.262382141195623"><ele>758.6666666666667</ele><time>2026-04-12T10:03:38.002Z</time></trkpt><trkpt lat="45.921967360931944" lon="9.262464234374264"><ele>757.3333333333334</ele><time>2026-04-12T10:03:39.002Z</time></trkpt><trkpt lat="45.922156684874516" lon="9.262574145911833"><ele>756.0</ele><time>2026-04-12T10:03:40.002Z</time></trkpt><trkpt lat="45.922316647803946" lon="9.262690102894323"><ele>756.0</ele><time>2026-04-12T10:03:41.002Z</time></trkpt><trkpt lat="45.92244508537668" lon="9.262815344733546"><ele>756.0</ele><time>2026-04-12T10:03:42.002Z</time></trkpt><trkpt lat="45.92254615288682" lon="9.26295373058122"><ele>756.0</ele><time>2026-04-12T10:03:43.002Z</time></trkpt><trkpt lat="45.922636994202406" lon="9.263103170944921"><ele>756.0</ele><time>2026-04-12T10:03:44.002Z</time></trkpt><trkpt lat="45.922692256457566" lon="9.263258614425519"><ele>757.25</ele><time>2026-04-12T10:03:45.002Z</time></trkpt><trkpt lat="45.92275402753378" lon="9.263396682344332"><ele>758.5</ele><time>2026-04-12T10:03:46.002Z</time></trkpt><trkpt lat="45.922808003170424" lon="9.263556667547803"><ele>759.75</ele><time>2026-04-12T10:03:47.002Z</time></trkpt><trkpt lat="45.92284788356426" lon="9.263778946224319"><ele>761.0</ele><time>2026-04-12T10:03:48.002Z</time></trkpt><trkpt lat="45.922883502084844" lon="9.26403603150034"><ele>761.0</ele><time>2026-04-12T10:03:49.002Z</time></trkpt><trkpt lat="45.92293543226619" lon="9.264304651316873"><ele>761.0</ele><time>2026-04-12T10:03:50.002Z</time></trkpt><trkpt lat="45.92296979339441" lon="9.264582485423142"><ele>761.0</ele><time>2026-04-12T10:03:51.002Z</time></trkpt><trkpt lat="45.92300225602013" lon="9.26485127631559"><ele>762.25</ele><time>2026-04-12T10:03:52.002Z</time></trkpt><trkpt lat="45.92300603474611" lon="9.265082035251016"><ele>763.5</ele><time>2026-04-12T10:03:53.003Z</time></trkpt><trkpt lat="45.92303488562696" lon="9.265260137300558"><ele>764.75</ele><time>2026-04-12T10:03:54.003Z</time></trkpt><trkpt lat="45.92304177013073" lon="9.265410536151055"><ele>766.0</ele><time>2026-04-12T10:03:55.003Z</time></trkpt><trkpt lat="45.92305117200933" lon="9.265542581299469"><ele>766.0</ele><time>2026-04-12T10:03:56.003Z</time></trkpt><trkpt lat="45.92306148616081" lon="9.26566857508172"><ele>766.0</ele><time>2026-04-12T10:03:57.003Z</time></trkpt><trkpt lat="45.92307456699485" lon="9.265812415375045"><ele>766.0</ele><time>2026-04-12T10:03:58.003Z</time></trkpt><trkpt lat="45.923087292014436" lon="9.265970178574584"><ele>766.0</ele><time>2026-04-12T10:03:59.003Z</time></trkpt><trkpt lat="45.9231009768507" lon="9.266123859923315"><ele>766.0</ele><time>2026-04-12T10:04:00.003Z</time></trkpt><trkpt lat="45.92311095894914" lon="9.266266065438463"><ele>766.0</ele><time>2026-04-12T10:04:01.003Z</time></trkpt><trkpt lat="45.923127325772214" lon="9.266395953584214"><ele>766.0</ele><time>2026-04-12T10:04:02.003Z</time></trkpt><trkpt lat="45.9231601882497" lon="9.266539980108591"><ele>766.0</ele><time>2026-04-12T10:04:03.003Z</time></trkpt><trkpt lat="45.92321109302202" lon="9.2666677852819"><ele>766.0</ele><time>2026-04-12T10:04:04.003Z</time></trkpt><trkpt lat="45.92327463175852" lon="9.266780884314068"><ele>766.0</ele><time>2026-04-12T10:04:05.003Z</time></trkpt><trkpt lat="45.923342207068956" lon="9.266875614806942"><ele>766.0</ele><time>2026-04-12T10:04:06.003Z</time></trkpt><trkpt lat="45.92341965145949" lon="9.266962698475973"><ele>766.0</ele><time>2026-04-12T10:04:07.003Z</time></trkpt><trkpt lat="45.92349507724396" lon="9.267032749245082"><ele>766.0</ele><time>2026-04-12T10:04:08.003Z</time></trkpt><trkpt lat="45.92356272673347" lon="9.267083212703893"><ele>766.0</ele><time>2026-04-12T10:04:09.003Z</time></trkpt><trkpt lat="45.92364757191874" lon="9.267162747244496"><ele>766.0</ele><time>2026-04-12T10:04:11.003Z</time></trkpt><trkpt lat="45.923716505526706" lon="9.267021012274162"><ele>766.0</ele><time>2026-04-12T10:04:12.003Z</time></trkpt><trkpt lat="45.92377678368703" lon="9.266953662230222"><ele>766.0</ele><time>2026-04-12T10:04:13.003Z</time></trkpt><trkpt lat="45.92384448625335" lon="9.266880622278888"><ele>766.0</ele><time>2026-04-12T10:04:14.003Z</time></trkpt><trkpt lat="45.923906285845774" lon="9.266848079949726"><ele>766.0</ele><time>2026-04-12T10:04:15.003Z</time></trkpt><trkpt lat="45.92400997464472" lon="9.266970559910801"><ele>766.0</ele><time>2026-04-12T10:04:16.003Z</time></trkpt><trkpt lat="45.92409637108279" lon="9.267057205659837"><ele>766.0</ele><time>2026-04-12T10:04:17.003Z</time></trkpt><trkpt lat="45.924185621734736" lon="9.267126936023393"><ele>766.0</ele><time>2026-04-12T10:04:18.003Z</time></trkpt><trkpt lat="45.92427034890689" lon="9.267178739707095"><ele>766.0</ele><time>2026-04-12T10:04:19.003Z</time></trkpt><trkpt lat="45.92435389553309" lon="9.26723205933027"><ele>766.0</ele><time>2026-04-12T10:04:20.001Z</time></trkpt><trkpt lat="45.924437009234" lon="9.267279823754246"><ele>766.0</ele><time>2026-04-12T10:04:21.001Z</time></trkpt><trkpt lat="45.92450817264077" lon="9.267312163251933"><ele>766.0</ele><time>2026-04-12T10:04:22.001Z</time></trkpt><trkpt lat="45.9245837442557" lon="9.267315959220019"><ele>765.5999999999999</ele><time>2026-04-12T10:04:23.001Z</time></trkpt><trkpt lat="45.924675209008264" lon="9.26728414068955"><ele>765.2</ele><time>2026-04-12T10:04:24.001Z</time></trkpt><trkpt lat="45.924778186818116" lon="9.267235289926981"><ele>764.8</ele><time>2026-04-12T10:04:25.001Z</time></trkpt><trkpt lat="45.92488794390908" lon="9.267220405238886"><ele>764.4000000000001</ele><time>2026-04-12T10:04:26.001Z</time></trkpt><trkpt lat="45.92499975346836" lon="9.267226332739464"><ele>764.0</ele><time>2026-04-12T10:04:27.001Z</time></trkpt><trkpt lat="45.92511309050917" lon="9.26723284633554"><ele>761.2</ele><time>2026-04-12T10:04:28.001Z</time></trkpt><trkpt lat="45.92522865773628" lon="9.267245939281187"><ele>758.4000000000001</ele><time>2026-04-12T10:04:29.001Z</time></trkpt><trkpt lat="45.92533507060991" lon="9.267260743550063"><ele>755.6</ele><time>2026-04-12T10:04:30.001Z</time></trkpt><trkpt lat="45.92543308188671" lon="9.267280935410438"><ele>752.8</ele><time>2026-04-12T10:04:31.001Z</time></trkpt><trkpt lat="45.92552592848418" lon="9.26726579318779"><ele>750.0</ele><time>2026-04-12T10:04:32.001Z</time></trkpt><trkpt lat="45.92562606857348" lon="9.267197065233894"><ele>757.25</ele><time>2026-04-12T10:04:33.001Z</time></trkpt><trkpt lat="45.925729888331524" lon="9.267110818363687"><ele>764.5</ele><time>2026-04-12T10:04:34.001Z</time></trkpt><trkpt lat="45.92583363296843" lon="9.26703593313875"><ele>771.75</ele><time>2026-04-12T10:04:35.001Z</time></trkpt><trkpt lat="45.92594270668072" lon="9.2670065971445"><ele>779.0</ele><time>2026-04-12T10:04:36.001Z</time></trkpt><trkpt lat="45.926049643646984" lon="9.26697556173522"><ele>779.0</ele><time>2026-04-12T10:04:37.001Z</time></trkpt><trkpt lat="45.92615680856657" lon="9.26695576115322"><ele>779.0</ele><time>2026-04-12T10:04:38.001Z</time></trkpt><trkpt lat="45.926261287702815" lon="9.26692450394172"><ele>779.0</ele><time>2026-04-12T10:04:39.001Z</time></trkpt><trkpt lat="45.92636262253314" lon="9.26692486151683"><ele>779.0</ele><time>2026-04-12T10:04:40.001Z</time></trkpt><trkpt lat="45.926451509590215" lon="9.266887637642316"><ele>779.0</ele><time>2026-04-12T10:04:41.001Z</time></trkpt><trkpt lat="45.92653611005671" lon="9.266800003645095"><ele>779.0</ele><time>2026-04-12T10:04:42.001Z</time></trkpt><trkpt lat="45.926613829177484" lon="9.266694483144358"><ele>779.0</ele><time>2026-04-12T10:04:43.001Z</time></trkpt><trkpt lat="45.9266793879279" lon="9.266579283695153"><ele>779.0</ele><time>2026-04-12T10:04:44.001Z</time></trkpt><trkpt lat="45.92676449622489" lon="9.26651698317114"><ele>779.0</ele><time>2026-04-12T10:04:45.001Z</time></trkpt><trkpt lat="45.926837438849645" lon="9.266465829823982"><ele>779.0</ele><time>2026-04-12T10:04:46.001Z</time></trkpt><trkpt lat="45.92690087239621" lon="9.266401702917701"><ele>777.6</ele><time>2026-04-12T10:04:47.001Z</time></trkpt><trkpt lat="45.92696957254577" lon="9.266285750838788"><ele>776.2</ele><time>2026-04-12T10:04:49.001Z</time></trkpt><trkpt lat="45.92697729710748" lon="9.266187878251442"><ele>774.8000000000001</ele><time>2026-04-12T10:04:50.001Z</time></trkpt><trkpt lat="45.92699094450101" lon="9.266062396788024"><ele>773.4000000000001</ele><time>2026-04-12T10:04:51.001Z</time></trkpt><trkpt lat="45.92700139301162" lon="9.265932398402878"><ele>772.0</ele><time>2026-04-12T10:04:52.001Z</time></trkpt><trkpt lat="45.92701193318968" lon="9.265793924098519"><ele>772.0</ele><time>2026-04-12T10:04:53.001Z</time></trkpt><trkpt lat="45.927013543235155" lon="9.265659632175776"><ele>772.0</ele><time>2026-04-12T10:04:54.001Z</time></trkpt><trkpt lat="45.92702147689836" lon="9.265511071117821"><ele>772.0</ele><time>2026-04-12T10:04:55.001Z</time></trkpt><trkpt lat="45.92703104377962" lon="9.265365721431499"><ele>772.0</ele><time>2026-04-12T10:04:56.001Z</time></trkpt><trkpt lat="45.92704445893204" lon="9.265217428044199"><ele>772.0</ele><time>2026-04-12T10:04:57.001Z</time></trkpt><trkpt lat="45.927054963428155" lon="9.2650591316122"><ele>774.4000000000001</ele><time>2026-04-12T10:04:58.001Z</time></trkpt><trkpt lat="45.92707143180678" lon="9.264906296890597"><ele>776.8000000000001</ele><time>2026-04-12T10:04:59.001Z</time></trkpt><trkpt lat="45.92707730737271" lon="9.264765873577906"><ele>779.2</ele><time>2026-04-12T10:05:00.001Z</time></trkpt><trkpt lat="45.927088509987264" lon="9.264627615641391"><ele>781.6</ele><time>2026-04-12T10:05:01.001Z</time></trkpt><trkpt lat="45.92711078057194" lon="9.264501363490503"><ele>784.0</ele><time>2026-04-12T10:05:02.001Z</time></trkpt><trkpt lat="45.92715931170495" lon="9.264395031545162"><ele>788.75</ele><time>2026-04-12T10:05:03.001Z</time></trkpt><trkpt lat="45.92723618791833" lon="9.264328662447108"><ele>793.5</ele><time>2026-04-12T10:05:04.001Z</time></trkpt><trkpt lat="45.92736175782099" lon="9.264328880221017"><ele>798.25</ele><time>2026-04-12T10:05:05.001Z</time></trkpt><trkpt lat="45.92747420842019" lon="9.264219151922077"><ele>803.0</ele><time>2026-04-12T10:05:06.001Z</time></trkpt><trkpt lat="45.927611177548684" lon="9.264109804733474"><ele>803.0</ele><time>2026-04-12T10:05:07.001Z</time></trkpt><trkpt lat="45.92775501338742" lon="9.263976927937579"><ele>803.0</ele><time>2026-04-12T10:05:08.001Z</time></trkpt><trkpt lat="45.92790527850128" lon="9.26383953104033"><ele>803.0</ele><time>2026-04-12T10:05:09.001Z</time></trkpt><trkpt lat="45.92804503371747" lon="9.26370357457666"><ele>807.3333333333334</ele><time>2026-04-12T10:05:10.001Z</time></trkpt><trkpt lat="45.92819060820704" lon="9.263575057591146"><ele>811.6666666666667</ele><time>2026-04-12T10:05:11.001Z</time></trkpt><trkpt lat="45.928303900719314" lon="9.263448092388003"><ele>816.0</ele><time>2026-04-12T10:05:12.001Z</time></trkpt><trkpt lat="45.928393018643625" lon="9.263283378398508"><ele>814.0</ele><time>2026-04-12T10:05:13.001Z</time></trkpt><trkpt lat="45.92848578235093" lon="9.263141309429162"><ele>812.0</ele><time>2026-04-12T10:05:14.002Z</time></trkpt><trkpt lat="45.928558722423354" lon="9.263007029760136"><ele>810.0</ele><time>2026-04-12T10:05:15.002Z</time></trkpt><trkpt lat="45.928633126684865" lon="9.262842238814317"><ele>808.0</ele><time>2026-04-12T10:05:16.002Z</time></trkpt><trkpt lat="45.928698047070206" lon="9.26263576831003"><ele>808.0</ele><time>2026-04-12T10:05:17.002Z</time></trkpt><trkpt lat="45.92875790414686" lon="9.262458317052547"><ele>808.0</ele><time>2026-04-12T10:05:18.002Z</time></trkpt><trkpt lat="45.92878732776161" lon="9.262271979632372"><ele>808.0</ele><time>2026-04-12T10:05:19.002Z</time></trkpt><trkpt lat="45.928778821739016" lon="9.262047046710483"><ele>808.0</ele><time>2026-04-12T10:05:20.002Z</time></trkpt><trkpt lat="45.92876417360551" lon="9.26180144583991"><ele>810.6666666666666</ele><time>2026-04-12T10:05:21.002Z</time></trkpt><trkpt lat="45.928792436064874" lon="9.26154793276413"><ele>813.3333333333333</ele><time>2026-04-12T10:05:22.002Z</time></trkpt><trkpt lat="45.92881420209912" lon="9.261316032727693"><ele>816.0</ele><time>2026-04-12T10:05:23.002Z</time></trkpt><trkpt lat="45.92882255840501" lon="9.261123701043257"><ele>819.75</ele><time>2026-04-12T10:05:24.002Z</time></trkpt><trkpt lat="45.92886034400535" lon="9.260978048048784"><ele>823.5</ele><time>2026-04-12T10:05:25.002Z</time></trkpt><trkpt lat="45.92893626980314" lon="9.260845440036949"><ele>827.25</ele><time>2026-04-12T10:05:26.002Z</time></trkpt><trkpt lat="45.929039296109394" lon="9.260700942210931"><ele>831.0</ele><time>2026-04-12T10:05:27.002Z</time></trkpt><trkpt lat="45.92916140991632" lon="9.260571632115656"><ele>830.6666666666667</ele><time>2026-04-12T10:05:28.002Z</time></trkpt><trkpt lat="45.92927601468104" lon="9.260406696853686"><ele>830.3333333333334</ele><time>2026-04-12T10:05:29.002Z</time></trkpt><trkpt lat="45.929359426488745" lon="9.260203235539924"><ele>830.0</ele><time>2026-04-12T10:05:30.002Z</time></trkpt><trkpt lat="45.929453120534156" lon="9.259989649671068"><ele>834.3333333333334</ele><time>2026-04-12T10:05:31.002Z</time></trkpt><trkpt lat="45.92955045708714" lon="9.259778236543061"><ele>838.6666666666667</ele><time>2026-04-12T10:05:32.002Z</time></trkpt><trkpt lat="45.92963252393188" lon="9.259595558236978"><ele>843.0</ele><time>2026-04-12T10:05:33.002Z</time></trkpt><trkpt lat="45.92970235410243" lon="9.259444437539083"><ele>843.0</ele><time>2026-04-12T10:05:34.002Z</time></trkpt><trkpt lat="45.9297625280278" lon="9.259317411544906"><ele>843.0</ele><time>2026-04-12T10:05:35.002Z</time></trkpt><trkpt lat="45.929816628045444" lon="9.25920860642901"><ele>843.0</ele><time>2026-04-12T10:05:36.002Z</time></trkpt><trkpt lat="45.92985872773408" lon="9.259119150410877"><ele>843.0</ele><time>2026-04-12T10:05:37.002Z</time></trkpt><trkpt lat="45.92993590429912" lon="9.258962595057142"><ele>843.0</ele><time>2026-04-12T10:05:39.002Z</time></trkpt><trkpt lat="45.92998945928792" lon="9.258854979956409"><ele>842.2</ele><time>2026-04-12T10:05:40.002Z</time></trkpt><trkpt lat="45.93004928322263" lon="9.25872932277305"><ele>841.4</ele><time>2026-04-12T10:05:41.002Z</time></trkpt><trkpt lat="45.93009916817043" lon="9.258598684390451"><ele>840.6</ele><time>2026-04-12T10:05:42.002Z</time></trkpt><trkpt lat="45.93012383485458" lon="9.25844359008758"><ele>839.8000000000001</ele><time>2026-04-12T10:05:43.002Z</time></trkpt><trkpt lat="45.9301209943475" lon="9.258275487108167"><ele>839.0</ele><time>2026-04-12T10:05:44.002Z</time></trkpt><trkpt lat="45.93008613741069" lon="9.258092153441059"><ele>844.6666666666667</ele><time>2026-04-12T10:05:45.002Z</time></trkpt><trkpt lat="45.930029698937474" lon="9.257905957434998"><ele>850.3333333333333</ele><time>2026-04-12T10:05:46.002Z</time></trkpt><trkpt lat="45.92998715258626" lon="9.257692755095333"><ele>856.0</ele><time>2026-04-12T10:05:47.002Z</time></trkpt><trkpt lat="45.929933390212724" lon="9.257481773375593"><ele>854.0</ele><time>2026-04-12T10:05:48.002Z</time></trkpt><trkpt lat="45.929882148417335" lon="9.257277264729204"><ele>851.9999999999999</ele><time>2026-04-12T10:05:49.002Z</time></trkpt><trkpt lat="45.92984206439868" lon="9.257116722318685"><ele>850.0</ele><time>2026-04-12T10:05:50.002Z</time></trkpt><trkpt lat="45.929812189551" lon="9.256995550891714"><ele>848.0</ele><time>2026-04-12T10:05:51.002Z</time></trkpt><trkpt lat="45.92977400400765" lon="9.256896626866068"><ele>846.0</ele><time>2026-04-12T10:05:52.002Z</time></trkpt><trkpt lat="45.92975354962639" lon="9.256806897590574"><ele>846.0</ele><time>2026-04-12T10:05:53.002Z</time></trkpt><trkpt lat="45.929602740209035" lon="9.25684834200071"><ele>846.0</ele><time>2026-04-12T10:05:56.002Z</time></trkpt><trkpt lat="45.92962508521108" lon="9.257016931113238"><ele>846.0</ele><time>2026-04-12T10:05:57.002Z</time></trkpt><trkpt lat="45.929658663364066" lon="9.25718302353575"><ele>846.0</ele><time>2026-04-12T10:05:58.002Z</time></trkpt><trkpt lat="45.92963739994188" lon="9.257359239756854"><ele>848.5</ele><time>2026-04-12T10:05:59.002Z</time></trkpt><trkpt lat="45.92957187796818" lon="9.257524021908274"><ele>851.0</ele><time>2026-04-12T10:06:00.002Z</time></trkpt><trkpt lat="45.929496722934964" lon="9.25773209518838"><ele>853.5</ele><time>2026-04-12T10:06:01.003Z</time></trkpt><trkpt lat="45.92942885335536" lon="9.257908428348317"><ele>856.0</ele><time>2026-04-12T10:06:02.003Z</time></trkpt><trkpt lat="45.929370586807366" lon="9.258091659076399"><ele>855.0</ele><time>2026-04-12T10:06:03.003Z</time></trkpt><trkpt lat="45.929328001330745" lon="9.258257938141357"><ele>853.9999999999999</ele><time>2026-04-12T10:06:04.003Z</time></trkpt><trkpt lat="45.929322683773876" lon="9.258391085002804"><ele>853.0</ele><time>2026-04-12T10:06:05.003Z</time></trkpt><trkpt lat="45.92931440141088" lon="9.258508233288817"><ele>852.0</ele><time>2026-04-12T10:06:06.003Z</time></trkpt><trkpt lat="45.92925076286216" lon="9.25863597798934"><ele>851.0</ele><time>2026-04-12T10:06:08.003Z</time></trkpt><trkpt lat="45.92917636082905" lon="9.258458313765887"><ele>856.5</ele><time>2026-04-12T10:06:10.003Z</time></trkpt><trkpt lat="45.9291899090619" lon="9.258307897614142"><ele>862.0</ele><time>2026-04-12T10:06:11.003Z</time></trkpt><trkpt lat="45.92918811012854" lon="9.25814430867124"><ele>867.5</ele><time>2026-04-12T10:06:12.003Z</time></trkpt><trkpt lat="45.92917187911919" lon="9.257945842168484"><ele>873.0</ele><time>2026-04-12T10:06:13.003Z</time></trkpt><trkpt lat="45.92916151696069" lon="9.257739999285294"><ele>874.5</ele><time>2026-04-12T10:06:14.003Z</time></trkpt><trkpt lat="45.92915147146885" lon="9.25755017173972"><ele>876.0</ele><time>2026-04-12T10:06:15.003Z</time></trkpt><trkpt lat="45.92913255891212" lon="9.257347234294054"><ele>877.5</ele><time>2026-04-12T10:06:16.003Z</time></trkpt><trkpt lat="45.92911749807196" lon="9.257165113265984"><ele>879.0</ele><time>2026-04-12T10:06:17.003Z</time></trkpt><trkpt lat="45.92910842173871" lon="9.257021010142013"><ele>879.0</ele><time>2026-04-12T10:06:18.003Z</time></trkpt><trkpt lat="45.92910037475017" lon="9.25691186000267"><ele>879.0000000000001</ele><time>2026-04-12T10:06:19.003Z</time></trkpt><trkpt lat="45.92902475503493" lon="9.25682538766361"><ele>879.0000000000001</ele><time>2026-04-12T10:06:21.003Z</time></trkpt><trkpt lat="45.928949571529984" lon="9.256883909931648"><ele>879.0</ele><time>2026-04-12T10:06:22.003Z</time></trkpt><trkpt lat="45.92892276310382" lon="9.257033540714401"><ele>879.0</ele><time>2026-04-12T10:06:23.003Z</time></trkpt><trkpt lat="45.928920876215784" lon="9.257207990521296"><ele>879.0</ele><time>2026-04-12T10:06:24.003Z</time></trkpt><trkpt lat="45.928850504007364" lon="9.257368175360329"><ele>879.0</ele><time>2026-04-12T10:06:25.003Z</time></trkpt><trkpt lat="45.92878243087614" lon="9.257513944339168"><ele>879.0</ele><time>2026-04-12T10:06:26Z</time></trkpt><trkpt lat="45.928727801102696" lon="9.257658418360814"><ele>879.0</ele><time>2026-04-12T10:06:27Z</time></trkpt><trkpt lat="45.92866034452306" lon="9.257812486132238"><ele>879.0</ele><time>2026-04-12T10:06:28Z</time></trkpt><trkpt lat="45.92858714786116" lon="9.25796273629388"><ele>879.0</ele><time>2026-04-12T10:06:29Z</time></trkpt><trkpt lat="45.928514432385604" lon="9.258121323653887"><ele>879.0</ele><time>2026-04-12T10:06:30Z</time></trkpt><trkpt lat="45.928453316016004" lon="9.258276898311227"><ele>879.0</ele><time>2026-04-12T10:06:31Z</time></trkpt><trkpt lat="45.9283791866084" lon="9.258416293799163"><ele>881.0</ele><time>2026-04-12T10:06:32Z</time></trkpt><trkpt lat="45.92831488097568" lon="9.258564933906433"><ele>883.0000000000001</ele><time>2026-04-12T10:06:33Z</time></trkpt><trkpt lat="45.92826320868858" lon="9.258698384207673"><ele>885.0000000000001</ele><time>2026-04-12T10:06:34Z</time></trkpt><trkpt lat="45.9282467475044" lon="9.258810053599632"><ele>887.0</ele><time>2026-04-12T10:06:35Z</time></trkpt><trkpt lat="45.92820714436055" lon="9.258899455749432"><ele>889.0</ele><time>2026-04-12T10:06:36Z</time></trkpt><trkpt lat="45.92814152172818" lon="9.259013577708984"><ele>891.4000000000001</ele><time>2026-04-12T10:06:38Z</time></trkpt><trkpt lat="45.92811925196418" lon="9.25879420842187"><ele>893.8000000000001</ele><time>2026-04-12T10:06:41.001Z</time></trkpt><trkpt lat="45.92814955445694" lon="9.258677061275144"><ele>896.1999999999999</ele><time>2026-04-12T10:06:42.001Z</time></trkpt><trkpt lat="45.928166205088175" lon="9.25854973635925"><ele>898.5999999999999</ele><time>2026-04-12T10:06:43.001Z</time></trkpt><trkpt lat="45.92818202384596" lon="9.258403805544392"><ele>901.0</ele><time>2026-04-12T10:06:44.001Z</time></trkpt><trkpt lat="45.928179554446494" lon="9.258231191629497"><ele>902.5</ele><time>2026-04-12T10:06:45.001Z</time></trkpt><trkpt lat="45.928179365766056" lon="9.25805256726407"><ele>904.0</ele><time>2026-04-12T10:06:46.001Z</time></trkpt><trkpt lat="45.928175150472974" lon="9.257866811699934"><ele>905.5</ele><time>2026-04-12T10:06:47.001Z</time></trkpt><trkpt lat="45.92816703398227" lon="9.257669034256244"><ele>907.0</ele><time>2026-04-12T10:06:48.001Z</time></trkpt><trkpt lat="45.92815510114107" lon="9.257460350903543"><ele>909.0</ele><time>2026-04-12T10:06:49.001Z</time></trkpt><trkpt lat="45.92814855373681" lon="9.257244927214357"><ele>911.0</ele><time>2026-04-12T10:06:50.001Z</time></trkpt><trkpt lat="45.92814650933703" lon="9.257028388081613"><ele>913.0</ele><time>2026-04-12T10:06:51.001Z</time></trkpt><trkpt lat="45.92814375718329" lon="9.25680731045084"><ele>913.0</ele><time>2026-04-12T10:06:52.001Z</time></trkpt><trkpt lat="45.92814504151158" lon="9.25658730557841"><ele>913.0</ele><time>2026-04-12T10:06:53.001Z</time></trkpt><trkpt lat="45.928136789370825" lon="9.25637014537371"><ele>913.0</ele><time>2026-04-12T10:06:54.001Z</time></trkpt><trkpt lat="45.92813601516527" lon="9.256170515709531"><ele>913.0</ele><time>2026-04-12T10:06:55.001Z</time></trkpt><trkpt lat="45.92813640086442" lon="9.255976567179495"><ele>916.0</ele><time>2026-04-12T10:06:56.001Z</time></trkpt><trkpt lat="45.92815841917961" lon="9.25580230568544"><ele>919.0</ele><time>2026-04-12T10:06:57.001Z</time></trkpt><trkpt lat="45.92822505270201" lon="9.255644851925833"><ele>922.0</ele><time>2026-04-12T10:06:58.001Z</time></trkpt><trkpt lat="45.92827340805721" lon="9.255465946799655"><ele>925.0</ele><time>2026-04-12T10:06:59.001Z</time></trkpt><trkpt lat="45.928338416766195" lon="9.255298354020852"><ele>920.75</ele><time>2026-04-12T10:07:00.001Z</time></trkpt><trkpt lat="45.928397254019096" lon="9.255112864211878"><ele>916.5</ele><time>2026-04-12T10:07:01.001Z</time></trkpt><trkpt lat="45.928469392164494" lon="9.25494533490256"><ele>912.25</ele><time>2026-04-12T10:07:02.001Z</time></trkpt><trkpt lat="45.928524553310936" lon="9.254772280189236"><ele>908.0</ele><time>2026-04-12T10:07:03.001Z</time></trkpt><trkpt lat="45.92855937831065" lon="9.2546043136306"><ele>908.0</ele><time>2026-04-12T10:07:04.001Z</time></trkpt><trkpt lat="45.9286055847168" lon="9.254474231280474"><ele>908.0</ele><time>2026-04-12T10:07:05.001Z</time></trkpt><trkpt lat="45.92860246511995" lon="9.254335489665811"><ele>908.0</ele><time>2026-04-12T10:07:06.001Z</time></trkpt><trkpt lat="45.92859415876727" lon="9.25418904128914"><ele>908.0</ele><time>2026-04-12T10:07:07.001Z</time></trkpt><trkpt lat="45.928563634556376" lon="9.254025290052454"><ele>908.0</ele><time>2026-04-12T10:07:08.001Z</time></trkpt><trkpt lat="45.928528077488565" lon="9.253858676292863"><ele>909.75</ele><time>2026-04-12T10:07:09.001Z</time></trkpt><trkpt lat="45.92851866224621" lon="9.253684302630145"><ele>911.5</ele><time>2026-04-12T10:07:10.001Z</time></trkpt><trkpt lat="45.92847784448679" lon="9.25351465400951"><ele>913.25</ele><time>2026-04-12T10:07:11.001Z</time></trkpt><trkpt lat="45.92845738276435" lon="9.253338319483163"><ele>915.0</ele><time>2026-04-12T10:07:12.001Z</time></trkpt><trkpt lat="45.92842668596731" lon="9.253158814287916"><ele>916.5</ele><time>2026-04-12T10:07:13.001Z</time></trkpt><trkpt lat="45.928401323127865" lon="9.252967389143807"><ele>918.0</ele><time>2026-04-12T10:07:14.001Z</time></trkpt><trkpt lat="45.928370494953654" lon="9.252769834041183"><ele>919.5</ele><time>2026-04-12T10:07:15.001Z</time></trkpt><trkpt lat="45.92837165940727" lon="9.252567147517645"><ele>921.0</ele><time>2026-04-12T10:07:16.001Z</time></trkpt><trkpt lat="45.928369233239145" lon="9.252350445805346"><ele>923.5</ele><time>2026-04-12T10:07:17.001Z</time></trkpt><trkpt lat="45.928355366313454" lon="9.25215086775523"><ele>926.0</ele><time>2026-04-12T10:07:18.001Z</time></trkpt><trkpt lat="45.92838586415453" lon="9.251976413248583"><ele>928.5</ele><time>2026-04-12T10:07:19.001Z</time></trkpt><trkpt lat="45.928401341161845" lon="9.251831287740313"><ele>931.0</ele><time>2026-04-12T10:07:20.001Z</time></trkpt><trkpt lat="45.92838093241358" lon="9.251670597787822"><ele>937.25</ele><time>2026-04-12T10:07:21.001Z</time></trkpt><trkpt lat="45.92831543467287" lon="9.251499568681057"><ele>943.5</ele><time>2026-04-12T10:07:22.001Z</time></trkpt><trkpt lat="45.928242468494616" lon="9.251341250851894"><ele>949.75</ele><time>2026-04-12T10:07:23.001Z</time></trkpt><trkpt lat="45.928171025397454" lon="9.251166353444262"><ele>956.0</ele><time>2026-04-12T10:07:24.001Z</time></trkpt><trkpt lat="45.9281138016259" lon="9.250987797300146"><ele>956.25</ele><time>2026-04-12T10:07:25.001Z</time></trkpt><trkpt lat="45.928067004913956" lon="9.25081199480194"><ele>956.5</ele><time>2026-04-12T10:07:26.001Z</time></trkpt><trkpt lat="45.92803469115026" lon="9.250626274275897"><ele>956.75</ele><time>2026-04-12T10:07:27.001Z</time></trkpt><trkpt lat="45.92800727382305" lon="9.25043448997266"><ele>957.0</ele><time>2026-04-12T10:07:28.001Z</time></trkpt><trkpt lat="45.92797737483833" lon="9.250236306085817"><ele>959.6666666666667</ele><time>2026-04-12T10:07:29.002Z</time></trkpt><trkpt lat="45.927938820834434" lon="9.250031401630638"><ele>962.3333333333334</ele><time>2026-04-12T10:07:30.002Z</time></trkpt><trkpt lat="45.9279063652181" lon="9.249807996647759"><ele>965.0</ele><time>2026-04-12T10:07:31.002Z</time></trkpt><trkpt lat="45.92786426085998" lon="9.249606075404506"><ele>966.0</ele><time>2026-04-12T10:07:32.002Z</time></trkpt><trkpt lat="45.92782230488331" lon="9.249393925575665"><ele>967.0</ele><time>2026-04-12T10:07:33.002Z</time></trkpt><trkpt lat="45.92778918620174" lon="9.249193625333964"><ele>968.0</ele><time>2026-04-12T10:07:34.002Z</time></trkpt><trkpt lat="45.92776644461617" lon="9.249009825186944"><ele>969.0</ele><time>2026-04-12T10:07:35.002Z</time></trkpt><trkpt lat="45.927745443761026" lon="9.24884806647414"><ele>969.0</ele><time>2026-04-12T10:07:36.002Z</time></trkpt><trkpt lat="45.927739912716156" lon="9.248701034535923"><ele>969.0</ele><time>2026-04-12T10:07:37.002Z</time></trkpt><trkpt lat="45.92774608126406" lon="9.248559416307659"><ele>969.0</ele><time>2026-04-12T10:07:38.002Z</time></trkpt><trkpt lat="45.92776468585972" lon="9.248434973113126"><ele>969.0</ele><time>2026-04-12T10:07:39.002Z</time></trkpt><trkpt lat="45.927786803845066" lon="9.248322010267906"><ele>969.0</ele><time>2026-04-12T10:07:40.002Z</time></trkpt><trkpt lat="45.92780942944503" lon="9.248215856392639"><ele>969.0</ele><time>2026-04-12T10:07:41.002Z</time></trkpt><trkpt lat="45.927829596575506" lon="9.248108822324228"><ele>969.2</ele><time>2026-04-12T10:07:42.002Z</time></trkpt><trkpt lat="45.92785023464673" lon="9.247990786716194"><ele>969.4000000000001</ele><time>2026-04-12T10:07:43.002Z</time></trkpt><trkpt lat="45.92787328603683" lon="9.247874422276286"><ele>969.6</ele><time>2026-04-12T10:07:44.002Z</time></trkpt><trkpt lat="45.92790423730231" lon="9.247749979465093"><ele>969.8</ele><time>2026-04-12T10:07:45.002Z</time></trkpt><trkpt lat="45.927941655750814" lon="9.247608545841594"><ele>970.0</ele><time>2026-04-12T10:07:46.002Z</time></trkpt><trkpt lat="45.927983214963895" lon="9.247450553408168"><ele>969.75</ele><time>2026-04-12T10:07:47.002Z</time></trkpt><trkpt lat="45.92802746060313" lon="9.247291210409086"><ele>969.5</ele><time>2026-04-12T10:07:48.002Z</time></trkpt><trkpt lat="45.9280779546077" lon="9.2471231945652"><ele>969.25</ele><time>2026-04-12T10:07:49.002Z</time></trkpt><trkpt lat="45.92813607908148" lon="9.246963716872575"><ele>969.0</ele><time>2026-04-12T10:07:50.002Z</time></trkpt><trkpt lat="45.92819129898438" lon="9.246797176149682"><ele>969.0</ele><time>2026-04-12T10:07:51.002Z</time></trkpt><trkpt lat="45.928241771624954" lon="9.2466016241477"><ele>969.0</ele><time>2026-04-12T10:07:52.002Z</time></trkpt><trkpt lat="45.92829414208423" lon="9.24641283794988"><ele>969.0</ele><time>2026-04-12T10:07:53.002Z</time></trkpt><trkpt lat="45.92833946999593" lon="9.246235907287454"><ele>969.0</ele><time>2026-04-12T10:07:54.002Z</time></trkpt><trkpt lat="45.92837886132867" lon="9.246077535638056"><ele>969.1666666666666</ele><time>2026-04-12T10:07:55.002Z</time></trkpt><trkpt lat="45.9284167186635" lon="9.245937223758554"><ele>969.3333333333333</ele><time>2026-04-12T10:07:56.002Z</time></trkpt><trkpt lat="45.92845297605751" lon="9.245809470659928"><ele>969.5</ele><time>2026-04-12T10:07:57.002Z</time></trkpt><trkpt lat="45.92848372786404" lon="9.245687929561726"><ele>969.6666666666666</ele><time>2026-04-12T10:07:58.002Z</time></trkpt><trkpt lat="45.928508705364294" lon="9.24557670857287"><ele>969.8333333333333</ele><time>2026-04-12T10:07:59.002Z</time></trkpt><trkpt lat="45.928529820154445" lon="9.245470656169347"><ele>970.0</ele><time>2026-04-12T10:08:00.002Z</time></trkpt><trkpt lat="45.92855405907207" lon="9.24538150745094"><ele>970.0</ele><time>2026-04-12T10:08:01.002Z</time></trkpt><trkpt lat="45.92859482738954" lon="9.24521909679691"><ele>970.0</ele><time>2026-04-12T10:08:02.002Z</time></trkpt><trkpt lat="45.928625034098125" lon="9.245067155842706"><ele>970.0</ele><time>2026-04-12T10:08:03.002Z</time></trkpt><trkpt lat="45.928649016411356" lon="9.244912456394472"><ele>970.0</ele><time>2026-04-12T10:08:04.002Z</time></trkpt><trkpt lat="45.928678328323116" lon="9.244745192924885"><ele>971.5</ele><time>2026-04-12T10:08:05.002Z</time></trkpt><trkpt lat="45.9287170730872" lon="9.244560801843063"><ele>973.0</ele><time>2026-04-12T10:08:06.002Z</time></trkpt><trkpt lat="45.92873557038023" lon="9.244356589753584"><ele>974.5</ele><time>2026-04-12T10:08:07.002Z</time></trkpt><trkpt lat="45.92877114638592" lon="9.244178796216419"><ele>976.0</ele><time>2026-04-12T10:08:08.002Z</time></trkpt><trkpt lat="45.92879240811052" lon="9.244034606513432"><ele>976.1666666666666</ele><time>2026-04-12T10:08:09.002Z</time></trkpt><trkpt lat="45.92881716701355" lon="9.243907182262658"><ele>976.3333333333333</ele><time>2026-04-12T10:08:10.002Z</time></trkpt><trkpt lat="45.92884892197639" lon="9.243800201677619"><ele>976.5</ele><time>2026-04-12T10:08:11.002Z</time></trkpt><trkpt lat="45.928856620477106" lon="9.243701210509922"><ele>976.6666666666667</ele><time>2026-04-12T10:08:12.002Z</time></trkpt><trkpt lat="45.92887562584995" lon="9.2436088572443"><ele>976.8333333333334</ele><time>2026-04-12T10:08:13.002Z</time></trkpt><trkpt lat="45.928906993365395" lon="9.24345591855246"><ele>977.0</ele><time>2026-04-12T10:08:15.003Z</time></trkpt><trkpt lat="45.928982269821155" lon="9.243347526848206"><ele>977.0</ele><time>2026-04-12T10:08:17.003Z</time></trkpt><trkpt lat="45.92906524785567" lon="9.243268477480862"><ele>977.0</ele><time>2026-04-12T10:08:19.003Z</time></trkpt><trkpt lat="45.92912047873136" lon="9.243190564901267"><ele>977.0</ele><time>2026-04-12T10:08:21.003Z</time></trkpt><trkpt lat="45.92908666446512" lon="9.243044399899658"><ele>977.0</ele><time>2026-04-12T10:08:23.003Z</time></trkpt><trkpt lat="45.92906211191299" lon="9.242899937258798"><ele>977.0</ele><time>2026-04-12T10:08:25.003Z</time></trkpt><trkpt lat="45.929041525572515" lon="9.242737086588182"><ele>977.75</ele><time>2026-04-12T10:08:27.003Z</time></trkpt><trkpt lat="45.929024541797965" lon="9.242571564025878"><ele>978.5</ele><time>2026-04-12T10:08:29.003Z</time></trkpt><trkpt lat="45.929010520183155" lon="9.242419163575677"><ele>979.25</ele><time>2026-04-12T10:08:31.003Z</time></trkpt><trkpt lat="45.928996595657495" lon="9.2422654594256"><ele>980.0</ele><time>2026-04-12T10:08:33.001Z</time></trkpt><trkpt lat="45.92896628281429" lon="9.242089724366009"><ele>980.2857142857142</ele><time>2026-04-12T10:08:35.001Z</time></trkpt><trkpt lat="45.92896579902148" lon="9.241995126837041"><ele>980.5714285714286</ele><time>2026-04-12T10:08:36.001Z</time></trkpt><trkpt lat="45.928960463884835" lon="9.241903887129528"><ele>980.8571428571429</ele><time>2026-04-12T10:08:37.001Z</time></trkpt><trkpt lat="45.92895595738078" lon="9.241805391362211"><ele>981.1428571428571</ele><time>2026-04-12T10:08:38.001Z</time></trkpt><trkpt lat="45.9289706833057" lon="9.241706869222226"><ele>981.4285714285713</ele><time>2026-04-12T10:08:39.001Z</time></trkpt><trkpt lat="45.92897001420032" lon="9.241609179236452"><ele>981.7142857142857</ele><time>2026-04-12T10:08:40.001Z</time></trkpt><trkpt lat="45.92897133970545" lon="9.241501196763478"><ele>982.0</ele><time>2026-04-12T10:08:41.001Z</time></trkpt><trkpt lat="45.92898204123401" lon="9.24138970956158"><ele>982.2</ele><time>2026-04-12T10:08:42.001Z</time></trkpt><trkpt lat="45.92898137631636" lon="9.241268926442133"><ele>982.4000000000001</ele><time>2026-04-12T10:08:43.001Z</time></trkpt><trkpt lat="45.92897821229364" lon="9.241143559463078"><ele>982.5999999999999</ele><time>2026-04-12T10:08:44.001Z</time></trkpt><trkpt lat="45.92897228691894" lon="9.241017834706003"><ele>982.8</ele><time>2026-04-12T10:08:45.001Z</time></trkpt><trkpt lat="45.9289593583692" lon="9.24088047647272"><ele>983.0</ele><time>2026-04-12T10:08:46.001Z</time></trkpt><trkpt lat="45.92892845985209" lon="9.240729090536345"><ele>985.5999999999999</ele><time>2026-04-12T10:08:47.001Z</time></trkpt><trkpt lat="45.9288753468377" lon="9.24059815890413"><ele>988.1999999999999</ele><time>2026-04-12T10:08:48.001Z</time></trkpt><trkpt lat="45.92883926814757" lon="9.240467633202634"><ele>990.8</ele><time>2026-04-12T10:08:49.001Z</time></trkpt><trkpt lat="45.92881909969752" lon="9.240359043543986"><ele>993.4</ele><time>2026-04-12T10:08:50.001Z</time></trkpt><trkpt lat="45.928835494457374" lon="9.240221123855344"><ele>996.0</ele><time>2026-04-12T10:08:51.001Z</time></trkpt><trkpt lat="45.92890234117715" lon="9.240050553783153"><ele>996.0</ele><time>2026-04-12T10:08:52.001Z</time></trkpt><trkpt lat="45.92897993987506" lon="9.239876958487075"><ele>996.0</ele><time>2026-04-12T10:08:53.001Z</time></trkpt><trkpt lat="45.92906999099753" lon="9.239693861694517"><ele>996.0</ele><time>2026-04-12T10:08:54.001Z</time></trkpt><trkpt lat="45.92916165915899" lon="9.239501779771729"><ele>996.3333333333333</ele><time>2026-04-12T10:08:55.001Z</time></trkpt><trkpt lat="45.929271503710176" lon="9.239327666709753"><ele>996.6666666666666</ele><time>2026-04-12T10:08:56.001Z</time></trkpt><trkpt lat="45.92941797881706" lon="9.239193071807994"><ele>997.0</ele><time>2026-04-12T10:08:57.001Z</time></trkpt><trkpt lat="45.92957118794616" lon="9.239029016284746"><ele>1006.0</ele><time>2026-04-12T10:08:58.001Z</time></trkpt><trkpt lat="45.92972872818359" lon="9.23890070317277"><ele>1015.0</ele><time>2026-04-12T10:08:59.001Z</time></trkpt><trkpt lat="45.92985821592111" lon="9.23879490546151"><ele>1024.0</ele><time>2026-04-12T10:09:00.001Z</time></trkpt><trkpt lat="45.929984442658544" lon="9.23868165817402"><ele>1016.25</ele><time>2026-04-12T10:09:01.001Z</time></trkpt><trkpt lat="45.93008882013529" lon="9.238580901447735"><ele>1008.5</ele><time>2026-04-12T10:09:02.001Z</time></trkpt><trkpt lat="45.930173325066555" lon="9.238473903310782"><ele>1000.75</ele><time>2026-04-12T10:09:03.001Z</time></trkpt><trkpt lat="45.93024390293653" lon="9.238351835254289"><ele>993.0</ele><time>2026-04-12T10:09:04.001Z</time></trkpt><trkpt lat="45.93032516418522" lon="9.238242888302759"><ele>993.0</ele><time>2026-04-12T10:09:05.001Z</time></trkpt><trkpt lat="45.930389571066605" lon="9.238150625462572"><ele>993.0</ele><time>2026-04-12T10:09:06.001Z</time></trkpt><trkpt lat="45.930436661689455" lon="9.238035317501344"><ele>993.0</ele><time>2026-04-12T10:09:07.001Z</time></trkpt><trkpt lat="45.930464810082725" lon="9.237874945463817"><ele>993.0</ele><time>2026-04-12T10:09:08.001Z</time></trkpt><trkpt lat="45.93047766724248" lon="9.237700763110077"><ele>993.0</ele><time>2026-04-12T10:09:09.001Z</time></trkpt><trkpt lat="45.93048740757243" lon="9.23754120119641"><ele>995.0</ele><time>2026-04-12T10:09:10.001Z</time></trkpt><trkpt lat="45.93049830436709" lon="9.23739941650546"><ele>997.0</ele><time>2026-04-12T10:09:11.001Z</time></trkpt><trkpt lat="45.93051671610962" lon="9.237272539546124"><ele>999.0</ele><time>2026-04-12T10:09:12.001Z</time></trkpt><trkpt lat="45.93054081951531" lon="9.237143963118276"><ele>1001.0</ele><time>2026-04-12T10:09:13.001Z</time></trkpt><trkpt lat="45.93057233845042" lon="9.23701226776737"><ele>1003.0</ele><time>2026-04-12T10:09:14.001Z</time></trkpt><trkpt lat="45.93059351469449" lon="9.236881944343626"><ele>1003.0</ele><time>2026-04-12T10:09:15.001Z</time></trkpt><trkpt lat="45.93060414378242" lon="9.236751867570309"><ele>1003.0</ele><time>2026-04-12T10:09:16.001Z</time></trkpt><trkpt lat="45.93060616809205" lon="9.236617200311269"><ele>1003.0</ele><time>2026-04-12T10:09:17.001Z</time></trkpt><trkpt lat="45.93059401760657" lon="9.23648457334324"><ele>1003.0</ele><time>2026-04-12T10:09:18.001Z</time></trkpt><trkpt lat="45.93057728603251" lon="9.23635165818527"><ele>1003.0</ele><time>2026-04-12T10:09:19.001Z</time></trkpt><trkpt lat="45.930558467544614" lon="9.236222879981387"><ele>1001.5999999999999</ele><time>2026-04-12T10:09:20.001Z</time></trkpt><trkpt lat="45.930529767177255" lon="9.236094373539014"><ele>1000.1999999999999</ele><time>2026-04-12T10:09:21.001Z</time></trkpt><trkpt lat="45.9304732085519" lon="9.2359718864822"><ele>998.8</ele><time>2026-04-12T10:09:22.001Z</time></trkpt><trkpt lat="45.93040419718232" lon="9.235855187848456"><ele>997.4</ele><time>2026-04-12T10:09:23.001Z</time></trkpt><trkpt lat="45.93033256887747" lon="9.235752039429205"><ele>996.0</ele><time>2026-04-12T10:09:24.001Z</time></trkpt><trkpt lat="45.930281895407205" lon="9.235653195534562"><ele>993.8333333333334</ele><time>2026-04-12T10:09:25.001Z</time></trkpt><trkpt lat="45.93024324233492" lon="9.235542195289952"><ele>991.6666666666667</ele><time>2026-04-12T10:09:26.001Z</time></trkpt><trkpt lat="45.93022126672777" lon="9.235421219587879"><ele>989.5</ele><time>2026-04-12T10:09:27.001Z</time></trkpt><trkpt lat="45.93021691594769" lon="9.235289821108559"><ele>987.3333333333334</ele><time>2026-04-12T10:09:28.001Z</time></trkpt><trkpt lat="45.93020729428745" lon="9.235176872110483"><ele>985.1666666666667</ele><time>2026-04-12T10:09:29.001Z</time></trkpt><trkpt lat="45.93019823128272" lon="9.235055334331271"><ele>983.0</ele><time>2026-04-12T10:09:30.001Z</time></trkpt><trkpt lat="45.93018847596743" lon="9.234928365429617"><ele>983.0000000000001</ele><time>2026-04-12T10:09:31.002Z</time></trkpt><trkpt lat="45.930156683103874" lon="9.234812064068835"><ele>983.0</ele><time>2026-04-12T10:09:32.002Z</time></trkpt><trkpt lat="45.93015014494605" lon="9.234686662866487"><ele>983.0</ele><time>2026-04-12T10:09:33.002Z</time></trkpt><trkpt lat="45.930159563836725" lon="9.234555999112816"><ele>983.0</ele><time>2026-04-12T10:09:34.002Z</time></trkpt><trkpt lat="45.93017929416408" lon="9.234427986680544"><ele>983.0000000000001</ele><time>2026-04-12T10:09:35.002Z</time></trkpt><trkpt lat="45.9301739896432" lon="9.234300223840432"><ele>983.0</ele><time>2026-04-12T10:09:36.002Z</time></trkpt><trkpt lat="45.93014691537997" lon="9.234148692794209"><ele>982.4</ele><time>2026-04-12T10:09:37.002Z</time></trkpt><trkpt lat="45.930106862055126" lon="9.234010719845719"><ele>981.8</ele><time>2026-04-12T10:09:38.002Z</time></trkpt><trkpt lat="45.9300627298173" lon="9.233883412243488"><ele>981.2</ele><time>2026-04-12T10:09:39.002Z</time></trkpt><trkpt lat="45.93000388119654" lon="9.233772836444077"><ele>980.6</ele><time>2026-04-12T10:09:40.002Z</time></trkpt><trkpt lat="45.92992466280265" lon="9.233683721766646"><ele>980.0</ele><time>2026-04-12T10:09:41.002Z</time></trkpt><trkpt lat="45.92985203888015" lon="9.23359517817195"><ele>984.6</ele><time>2026-04-12T10:09:42.002Z</time></trkpt><trkpt lat="45.92978926597774" lon="9.23347846999297"><ele>989.2</ele><time>2026-04-12T10:09:43.002Z</time></trkpt><trkpt lat="45.92971821068464" lon="9.233378895015369"><ele>993.8</ele><time>2026-04-12T10:09:44.002Z</time></trkpt><trkpt lat="45.929655601658986" lon="9.233277716702064"><ele>998.4</ele><time>2026-04-12T10:09:45.002Z</time></trkpt><trkpt lat="45.929591764958374" lon="9.233161705731526"><ele>1003.0</ele><time>2026-04-12T10:09:46.002Z</time></trkpt><trkpt lat="45.92953867465773" lon="9.23303507425805"><ele>1003.0</ele><time>2026-04-12T10:09:47.002Z</time></trkpt><trkpt lat="45.92947552641274" lon="9.232916063816072"><ele>1003.0</ele><time>2026-04-12T10:09:48.002Z</time></trkpt><trkpt lat="45.929411266688305" lon="9.232804496621096"><ele>1003.0</ele><time>2026-04-12T10:09:49.002Z</time></trkpt><trkpt lat="45.92933910258602" lon="9.232708839366039"><ele>1003.0</ele><time>2026-04-12T10:09:50.002Z</time></trkpt><trkpt lat="45.929275514385004" lon="9.232595105825917"><ele>1003.0</ele><time>2026-04-12T10:09:51.002Z</time></trkpt><trkpt lat="45.92921428382491" lon="9.23248333383033"><ele>1006.3333333333333</ele><time>2026-04-12T10:09:52.002Z</time></trkpt><trkpt lat="45.92916157758272" lon="9.232367953557775"><ele>1009.6666666666666</ele><time>2026-04-12T10:09:53.002Z</time></trkpt><trkpt lat="45.929118942717494" lon="9.232274285078317"><ele>1013.0</ele><time>2026-04-12T10:09:54.002Z</time></trkpt><trkpt lat="45.929079094957245" lon="9.23220066642922"><ele>1016.3333333333333</ele><time>2026-04-12T10:09:55.002Z</time></trkpt><trkpt lat="45.92902111548098" lon="9.232155843440701"><ele>1019.6666666666666</ele><time>2026-04-12T10:09:56.002Z</time></trkpt><trkpt lat="45.928940118053866" lon="9.232135244003738"><ele>1023.0</ele><time>2026-04-12T10:09:57.002Z</time></trkpt><trkpt lat="45.928848441460396" lon="9.232131785038128"><ele>1023.0</ele><time>2026-04-12T10:09:58.002Z</time></trkpt><trkpt lat="45.928747209001564" lon="9.232118629766118"><ele>1023.0</ele><time>2026-04-12T10:09:59.002Z</time></trkpt><trkpt lat="45.9286601609146" lon="9.232087512674969"><ele>1023.0</ele><time>2026-04-12T10:10:00.002Z</time></trkpt><trkpt lat="45.92857794265464" lon="9.232021873243289"><ele>1023.0</ele><time>2026-04-12T10:10:01.002Z</time></trkpt><trkpt lat="45.928509297724986" lon="9.231957905599122"><ele>1023.0</ele><time>2026-04-12T10:10:02.002Z</time></trkpt><trkpt lat="45.92842659250302" lon="9.231893677665841"><ele>1027.6</ele><time>2026-04-12T10:10:03.002Z</time></trkpt><trkpt lat="45.92834475297958" lon="9.2318249081924"><ele>1032.1999999999998</ele><time>2026-04-12T10:10:04.002Z</time></trkpt><trkpt lat="45.92825073216079" lon="9.231812528070392"><ele>1036.8</ele><time>2026-04-12T10:10:05.002Z</time></trkpt><trkpt lat="45.92816511613343" lon="9.231774571524713"><ele>1041.3999999999999</ele><time>2026-04-12T10:10:06.002Z</time></trkpt><trkpt lat="45.928093525230366" lon="9.231712850152539"><ele>1046.0</ele><time>2026-04-12T10:10:07.002Z</time></trkpt><trkpt lat="45.928000959256515" lon="9.231658768100097"><ele>1046.0</ele><time>2026-04-12T10:10:08.002Z</time></trkpt><trkpt lat="45.92793312278468" lon="9.231582888852275"><ele>1046.0</ele><time>2026-04-12T10:10:09.002Z</time></trkpt><trkpt lat="45.92784610972868" lon="9.231516226921824"><ele>1046.0</ele><time>2026-04-12T10:10:10.002Z</time></trkpt><trkpt lat="45.927774162259716" lon="9.23142289499468"><ele>1046.0</ele><time>2026-04-12T10:10:11.002Z</time></trkpt><trkpt lat="45.92770435748849" lon="9.231333130476955"><ele>1046.0</ele><time>2026-04-12T10:10:12.002Z</time></trkpt><trkpt lat="45.927621888811714" lon="9.231243529100137"><ele>1047.6</ele><time>2026-04-12T10:10:13.002Z</time></trkpt><trkpt lat="45.927540744484254" lon="9.231163514418345"><ele>1049.1999999999998</ele><time>2026-04-12T10:10:14.002Z</time></trkpt><trkpt lat="45.92745263293066" lon="9.231099408321693"><ele>1050.8000000000002</ele><time>2026-04-12T10:10:15.002Z</time></trkpt><trkpt lat="45.92735468810403" lon="9.23103447474355"><ele>1052.4</ele><time>2026-04-12T10:10:16.002Z</time></trkpt><trkpt lat="45.92726398154729" lon="9.230963822912571"><ele>1054.0</ele><time>2026-04-12T10:10:17.003Z</time></trkpt><trkpt lat="45.92717139894651" lon="9.230893619622522"><ele>1054.0</ele><time>2026-04-12T10:10:18.003Z</time></trkpt><trkpt lat="45.927079178345615" lon="9.230820123788817"><ele>1054.0</ele><time>2026-04-12T10:10:19.003Z</time></trkpt><trkpt lat="45.92698973896336" lon="9.230737832314752"><ele>1054.0</ele><time>2026-04-12T10:10:20.003Z</time></trkpt><trkpt lat="45.92689775035961" lon="9.230644882598405"><ele>1054.0</ele><time>2026-04-12T10:10:21.003Z</time></trkpt><trkpt lat="45.92680641707913" lon="9.23055135888814"><ele>1054.0</ele><time>2026-04-12T10:10:22.003Z</time></trkpt><trkpt lat="45.926727505911835" lon="9.230444971838638"><ele>1055.6000000000001</ele><time>2026-04-12T10:10:23.003Z</time></trkpt><trkpt lat="45.9266505864519" lon="9.230316887712306"><ele>1057.2</ele><time>2026-04-12T10:10:24.003Z</time></trkpt><trkpt lat="45.92655664622856" lon="9.23022447020507"><ele>1058.8000000000002</ele><time>2026-04-12T10:10:25.003Z</time></trkpt><trkpt lat="45.92648103244713" lon="9.230117073973187"><ele>1060.4</ele><time>2026-04-12T10:10:26.003Z</time></trkpt><trkpt lat="45.92639397759233" lon="9.230024029225222"><ele>1062.0</ele><time>2026-04-12T10:10:27.003Z</time></trkpt><trkpt lat="45.926307027024826" lon="9.229936359126752"><ele>1062.0</ele><time>2026-04-12T10:10:28.003Z</time></trkpt><trkpt lat="45.92624293199287" lon="9.22981095054156"><ele>1062.0</ele><time>2026-04-12T10:10:29.003Z</time></trkpt><trkpt lat="45.926172676613206" lon="9.229702167887066"><ele>1062.0</ele><time>2026-04-12T10:10:30.003Z</time></trkpt><trkpt lat="45.92612596592111" lon="9.229563683516165"><ele>1062.0</ele><time>2026-04-12T10:10:31.003Z</time></trkpt><trkpt lat="45.92609346602501" lon="9.229421762770226"><ele>1062.0</ele><time>2026-04-12T10:10:32.003Z</time></trkpt><trkpt lat="45.926046454155504" lon="9.22933060325891"><ele>1063.5</ele><time>2026-04-12T10:10:33.003Z</time></trkpt><trkpt lat="45.92598837758316" lon="9.229285151205676"><ele>1065.0</ele><time>2026-04-12T10:10:34.003Z</time></trkpt><trkpt lat="45.92591459030098" lon="9.22925755902136"><ele>1066.5</ele><time>2026-04-12T10:10:35.003Z</time></trkpt><trkpt lat="45.925824233625455" lon="9.229327525466136"><ele>1068.0</ele><time>2026-04-12T10:10:36.003Z</time></trkpt><trkpt lat="45.92575168049398" lon="9.229372791902382"><ele>1069.5</ele><time>2026-04-12T10:10:37.003Z</time></trkpt><trkpt lat="45.92568488867503" lon="9.229399482244661"><ele>1071.0</ele><time>2026-04-12T10:10:38.001Z</time></trkpt><trkpt lat="45.92560958308211" lon="9.229388469915115"><ele>1071.0</ele><time>2026-04-12T10:10:40.001Z</time></trkpt><trkpt lat="45.92568290080445" lon="9.22943478743661"><ele>1071.0</ele><time>2026-04-12T10:10:47.001Z</time></trkpt><trkpt lat="45.92572587689308" lon="9.229337637298677"><ele>1071.0</ele><time>2026-04-12T10:10:49.001Z</time></trkpt></trkseg></trk></gpx>